GFSGBSN_sfc_30mbdewp_000.txt.gz
Dewpoint
54 52 53 54 54 55 54 54 53 53 52 53 54 53 52 52 52 51 52 52 54 54 54 54 54 54 50 27 26 29 34 31 32 28 23 22 22 23 21 22 21 18 18 19 19 18 17
53 53 54 55 55 55 55 54 54 53 53 53 53 53 54 53 53 52 52 53 54 53 53 53 54 54 37 23 28 30 30 29 29 28 27 23 23 23 23 22 19 22 22 21 21 20 21
52 52 54 55 55 55 54 54 53 53 53 52 53 53 53 54 54 54 54 54 53 53 53 54 54 52 29 26 29 30 30 29 30 28 28 26 25 21 22 22 25 23 19 19 19 20 20
51 52 54 55 55 55 54 54 53 53 52 52 53 52 52 53 53 53 53 53 53 53 54 54 53 46 27 32 33 29 26 23 25 29 29 29 28 24 21 24 21 17 16 13 18 20 17
51 51 54 55 55 55 55 54 53 53 52 52 52 51 52 52 52 52 52 53 53 53 53 52 46 36 26 31 26 28 24 21 23 25 29 29 25 22 21 14 16 16 10 13 15 23 25
49 51 54 55 55 55 55 55 53 52 52 51 51 50 50 50 51 51 52 52 52 52 49 45 39 26 24 24 27 25 25 25 23 25 24 22 20 16 18 14 5 14 12 17 17 21 25
48 50 53 55 55 55 55 54 53 53 52 50 49 48 48 48 49 51 51 48 32 27 32 23 23 23 23 24 26 25 24 24 24 20 16 23 16 15 18 19 19 18 18 20 21 23 25
47 48 52 54 55 54 54 54 53 52 51 50 49 49 48 47 48 51 48 44 45 44 24 27 24 23 24 25 23 25 24 23 21 17 17 20 16 18 21 20 17 18 19 16 22 24 26
47 46 51 53 54 53 53 53 53 52 51 50 50 49 47 47 48 48 49 50 55 47 24 24 26 25 24 24 23 24 24 26 21 18 20 18 17 21 19 21 22 20 17 19 21 25 26
46 45 50 52 53 52 52 52 52 51 51 50 49 48 47 45 43 46 43 48 53 40 23 22 23 24 24 23 21 29 32 25 22 18 20 20 18 20 24 22 22 21 20 24 24 26 21
47 45 50 52 53 52 52 52 52 51 50 49 48 48 51 45 46 43 47 53 55 40 8 23 22 26 25 21 22 29 33 26 27 26 21 17 19 23 24 23 25 24 28 28 27 26 24
47 46 50 51 52 52 52 51 51 51 50 49 48 49 49 46 46 49 54 52 46 28 16 22 24 24 22 26 28 31 31 32 30 28 30 27 25 25 25 26 28 29 28 25 27 25 21
48 49 50 51 52 52 51 51 51 51 50 48 49 52 51 52 39 53 52 44 30 21 29 23 22 23 22 24 29 30 29 29 27 16 26 29 29 30 28 28 29 29 24 16 18 17 19
51 51 50 51 52 52 51 51 51 51 50 48 49 52 53 53 54 53 44 34 21 28 25 26 24 25 24 25 29 30 29 28 31 29 30 27 21 30 31 28 27 28 28 22 14 18 21
51 52 51 51 52 51 51 50 50 51 49 50 53 49 45 50 53 48 38 25 24 26 25 25 26 24 26 29 28 29 30 30 31 33 27 30 25 32 33 33 30 28 27 29 26 25 25
51 51 52 52 52 51 50 50 50 50 50 51 51 40 44 52 52 38 29 26 24 28 29 29 24 28 25 30 28 28 29 31 29 34 33 32 27 31 31 32 31 29 30 25 27 22 19
50 51 51 52 52 51 50 50 50 50 50 52 49 31 41 52 42 31 24 23 26 33 32 30 29 30 30 30 30 30 30 31 31 32 33 31 30 23 28 28 29 29 29 29 29 29 25
50 50 51 51 52 51 50 50 49 50 49 50 39 29 44 47 30 33 26 27 32 32 34 33 33 32 31 32 31 31 31 31 34 34 31 33 30 23 24 29 33 32 29 28 22 22 27
50 50 50 51 52 51 50 50 49 50 50 45 38 38 42 40 26 29 32 32 32 31 33 31 32 34 34 32 30 32 33 36 36 34 33 32 28 20 15 24 30 30 32 31 29 28 26
50 51 51 51 52 51 51 50 49 50 50 43 36 34 37 39 37 31 30 30 31 34 33 35 33 33 33 32 34 32 33 35 37 36 36 33 30 25 19 22 27 29 31 32 31 29 27
50 51 50 51 52 51 50 49 49 49 51 44 38 37 39 31 33 34 34 31 32 29 32 34 33 33 31 30 32 34 35 34 34 37 36 35 32 31 30 31 31 31 32 32 32 31 29
50 51 50 50 52 51 50 49 49 49 50 41 37 37 40 38 36 31 31 31 34 32 31 32 32 34 34 31 32 31 35 34 32 35 35 35 29 33 30 33 32 31 32 32 33 33 33
51 51 50 50 52 51 50 49 49 49 49 43 45 42 37 36 31 29 31 31 31 33 34 34 34 32 30 34 36 37 37 37 36 34 34 34 33 31 21 29 30 20 23 29 29 29 28
50 51 51 52 52 51 50 50 50 49 50 46 46 37 31 33 29 32 34 33 33 33 32 34 34 32 34 40 37 36 33 30 33 35 37 34 33 31 29 30 23 23 29 28 27 27 27
50 51 51 52 52 52 51 51 50 49 51 49 48 39 33 33 36 36 33 34 34 34 35 34 39 39 38 35 33 29 26 21 29 37 36 35 33 29 28 27 27 28 26 25 25 26 28
50 50 51 52 52 52 52 52 50 49 51 51 49 43 36 32 34 35 34 34 32 32 33 39 42 41 38 33 31 27 22 26 23 26 35 34 32 31 28 25 23 24 26 29 34 26 34
51 51 51 51 51 52 52 52 51 49 50 52 51 47 39 31 38 38 33 34 35 34 33 35 39 38 37 34 32 30 29 30 25 23 23 29 29 30 29 27 27 29 29 32 27 27 33
51 51 52 52 51 51 51 52 52 50 49 51 51 51 43 37 40 44 40 38 38 36 32 36 36 36 36 34 33 31 29 29 30 28 25 23 22 23 26 24 22 30 32 31 32 35 35
50 51 51 51 52 51 51 51 52 50 49 49 49 50 48 39 39 49 49 46 40 38 37 37 35 35 36 34 33 31 31 30 29 28 30 27 27 26 30 28 29 31 35 34 35 37 37

GFSGBSN_sfc_30mbdewp_003.txt.gz
Dewpoint
54 53 54 55 55 55 55 54 54 54 53 53 53 54 52 52 51 51 51 51 52 53 53 54 54 54 48 27 26 29 33 31 33 28 23 22 22 23 21 21 22 19 19 19 19 17 17
53 53 54 56 56 55 54 53 54 54 53 53 53 53 53 52 52 52 51 51 52 53 53 54 54 54 35 24 28 30 30 29 28 29 26 26 24 24 24 22 21 22 22 21 21 21 22
52 53 55 56 56 55 53 53 54 54 53 53 53 53 54 54 53 52 52 52 53 53 53 54 54 53 28 27 30 30 27 29 27 29 27 26 25 21 23 21 25 22 15 18 20 21 19
52 52 55 55 55 55 53 53 54 53 53 53 53 53 53 53 54 54 54 54 53 53 54 54 54 49 27 32 34 27 24 22 26 29 29 29 26 24 21 24 19 16 15 13 18 23 24
50 52 54 55 55 55 54 54 54 53 53 52 52 52 52 52 53 53 53 53 53 53 53 53 47 34 26 29 25 27 24 22 24 28 27 25 24 22 20 17 15 16 6 12 16 24 25
49 51 54 55 55 55 54 53 54 53 52 52 51 50 51 51 52 52 53 52 52 50 50 50 38 23 23 23 25 26 25 26 24 23 21 21 19 18 20 12 4 13 12 16 16 20 26
48 50 53 55 55 55 54 53 53 53 52 52 51 50 49 49 51 52 49 45 28 26 30 23 23 23 23 24 26 26 25 24 22 20 17 21 17 16 19 19 18 17 17 19 20 23 26
48 48 52 54 55 54 54 53 53 52 52 51 50 49 48 48 49 51 49 43 39 39 23 27 25 24 24 25 25 28 27 21 20 16 19 19 16 18 20 20 17 18 18 16 21 24 26
47 46 51 53 54 53 53 53 53 52 51 50 49 48 48 49 50 50 49 50 54 45 24 25 27 25 24 28 29 30 28 26 20 20 19 17 16 20 19 23 23 21 17 19 21 24 26
47 46 50 52 53 53 52 52 52 52 51 49 48 48 50 48 44 45 43 48 53 40 21 23 23 24 25 24 25 32 33 27 26 19 22 17 21 24 24 23 24 20 22 27 25 25 21
47 46 50 51 52 52 52 51 51 52 51 49 48 49 49 42 43 42 46 53 54 35 4 23 24 27 29 25 26 29 33 30 26 26 23 17 22 24 24 23 26 26 29 28 27 26 24
48 48 50 51 52 52 51 51 51 51 50 49 49 48 48 44 46 49 54 50 44 21 14 22 25 23 27 29 31 31 31 32 29 28 30 27 29 26 26 26 28 30 28 26 27 26 21
49 50 51 51 52 52 51 50 50 51 50 49 51 51 51 48 39 52 50 41 25 17 28 23 22 24 26 28 29 30 30 31 28 17 25 28 28 31 29 27 29 30 23 17 19 19 18
51 51 51 51 52 52 51 50 50 51 50 49 51 51 51 52 53 51 43 33 20 27 25 26 25 28 25 28 29 30 29 28 32 30 30 26 21 29 32 28 27 29 27 22 11 16 21
50 51 51 51 52 52 51 50 50 50 50 50 52 44 45 49 53 45 38 25 23 25 25 24 26 24 28 30 28 29 30 29 31 33 28 28 25 32 33 32 29 28 28 29 26 25 26
50 50 51 51 52 52 50 50 50 50 50 51 44 41 44 49 48 37 30 25 24 29 29 27 24 27 26 30 27 28 29 31 29 33 33 32 26 30 30 31 31 29 31 25 28 20 18
50 50 50 51 52 51 50 50 49 50 50 52 42 37 42 50 40 31 24 24 28 34 33 29 29 30 30 29 30 30 30 31 32 32 33 30 28 23 28 30 29 30 28 29 29 29 25
50 50 50 51 52 51 50 50 49 50 50 44 35 35 44 46 29 32 26 27 32 33 34 33 33 32 31 31 31 31 31 31 35 34 32 33 30 20 24 30 33 31 28 27 22 21 27
50 50 50 51 52 51 51 50 49 50 50 43 37 38 41 39 26 30 32 32 32 32 33 31 32 33 33 31 29 32 33 36 36 34 33 32 28 16 15 26 29 30 31 29 28 29 25
50 51 51 50 51 51 50 50 49 49 50 41 34 34 36 37 36 31 30 31 32 33 33 34 33 33 32 31 34 33 33 35 36 36 35 33 30 24 13 17 26 27 30 31 31 28 26
50 51 50 50 51 51 50 49 49 49 50 41 38 37 37 29 32 32 32 31 31 30 32 33 32 31 31 30 32 33 34 33 34 36 37 35 31 30 30 30 31 30 30 31 30 31 29
50 51 50 50 51 50 50 49 49 49 49 40 36 36 38 36 33 30 30 32 31 32 30 31 31 33 32 29 28 28 33 33 30 34 34 35 28 32 30 31 31 29 30 31 32 32 32
50 51 50 50 51 50 50 49 49 49 48 41 43 40 37 34 30 30 30 32 32 32 33 33 33 32 30 32 34 35 36 36 34 33 33 34 33 30 21 30 29 21 23 28 29 30 28
50 51 51 51 51 51 50 50 49 49 49 45 44 37 34 31 28 31 33 32 32 32 32 34 33 31 32 39 37 35 31 30 33 36 36 34 33 31 29 29 18 21 28 28 28 28 28
50 50 51 51 52 51 51 51 49 49 51 48 45 36 33 31 34 34 32 33 34 34 34 34 39 38 38 36 32 27 26 22 29 35 35 35 33 29 27 26 26 27 26 25 25 25 29
50 50 50 51 52 51 51 51 50 48 50 50 48 42 34 30 34 34 33 33 32 31 34 39 41 40 37 33 31 23 20 26 23 27 34 33 32 30 29 25 22 24 26 30 32 26 34
50 50 50 50 51 51 51 51 51 49 50 51 49 45 36 29 36 35 33 33 34 33 32 35 39 38 37 34 31 29 28 29 25 22 23 28 29 28 28 26 27 29 30 31 27 31 35
50 50 50 51 51 50 51 51 51 49 48 51 49 48 40 34 39 41 38 34 36 35 31 36 37 36 36 34 33 32 30 30 29 28 25 24 24 24 26 25 22 28 30 30 35 37 36
50 50 51 51 51 50 50 50 51 50 49 49 48 48 46 37 39 48 48 43 39 37 36 37 34 36 37 33 32 32 31 29 29 27 30 27 27 26 29 28 29 30 34 38 38 39 39

GFSGBSN_sfc_30mbdewp_006.txt.gz
Dewpoint
54 53 54 55 56 55 54 54 53 53 54 53 53 53 52 52 52 52 51 51 51 51 52 53 54 54 51 29 26 29 33 30 34 28 24 23 18 19 13 15 14 13 17 19 17 16 17
53 53 54 56 56 54 53 53 53 54 54 53 53 54 53 52 52 52 51 51 51 51 53 53 54 54 40 22 28 29 29 26 27 27 26 24 23 23 21 21 17 22 20 21 21 21 22
53 52 55 56 55 54 53 53 54 54 53 53 53 53 54 53 52 52 52 52 51 53 53 53 54 51 28 27 30 27 25 26 27 28 27 28 25 22 24 23 25 22 19 20 21 21 21
52 52 55 55 55 54 53 53 54 54 53 53 53 53 53 54 54 53 53 53 54 53 54 54 53 49 25 32 30 25 22 23 28 30 30 29 26 24 23 25 18 15 15 11 21 22 24
51 51 54 55 55 54 53 53 54 53 53 52 52 52 52 53 53 53 53 53 53 53 53 53 50 38 23 28 25 27 25 23 27 28 28 25 25 23 20 18 12 12 4 8 16 23 24
50 50 54 55 55 54 53 53 53 53 52 51 51 51 51 51 52 52 52 53 52 51 48 47 36 24 23 23 26 26 25 27 25 25 24 23 21 17 14 8 2 9 8 12 12 18 21
49 49 53 55 55 54 53 53 53 52 52 51 51 50 49 50 52 52 52 48 34 32 28 25 24 23 23 25 27 27 26 25 23 22 18 22 15 16 19 20 18 16 14 14 15 23 26
48 47 51 54 54 54 53 53 53 52 52 51 51 50 50 49 51 52 52 39 42 38 23 29 26 26 27 27 24 28 29 21 21 17 21 16 17 19 23 22 18 17 15 14 20 24 27
48 46 51 53 54 53 53 53 52 52 52 51 50 49 49 49 50 52 49 49 54 46 23 25 27 25 25 29 29 29 28 24 19 18 19 16 18 21 22 24 23 20 18 22 22 24 26
47 46 50 52 53 52 51 51 52 52 51 51 50 50 50 50 46 47 44 50 55 45 20 22 23 25 26 26 26 31 32 28 24 20 20 20 24 25 24 25 26 19 25 27 25 23 17
47 48 50 52 52 52 51 50 51 51 51 50 50 49 49 49 47 39 48 54 55 44 15 24 24 28 31 27 27 29 33 29 25 25 24 21 24 25 25 25 28 26 30 28 27 24 24
48 49 50 51 52 52 51 50 51 51 50 50 50 49 48 47 51 52 54 52 50 31 17 23 25 27 28 29 29 29 30 30 30 26 25 26 28 28 28 28 28 30 28 28 28 27 23
49 51 51 51 52 51 51 50 50 51 50 49 52 51 51 49 44 55 54 45 26 21 28 21 23 28 28 29 29 29 29 31 26 21 24 25 27 30 31 26 30 27 24 20 24 23 21
50 51 51 52 52 51 50 50 50 51 49 50 52 51 52 53 55 56 48 37 22 27 25 25 26 27 26 29 29 30 28 27 30 28 25 22 22 30 32 30 28 28 27 25 18 19 19
50 51 51 51 52 51 50 50 50 51 50 51 50 49 50 53 55 51 38 33 27 25 24 24 25 24 27 29 28 29 29 28 30 31 26 25 24 31 31 31 30 27 27 30 28 28 27
50 50 50 51 52 51 50 50 50 51 50 51 44 44 47 53 52 46 39 27 27 28 29 26 23 27 25 28 27 28 29 31 30 33 32 30 25 29 29 32 32 29 31 25 24 22 13
50 50 50 51 51 50 50 50 49 50 50 51 45 34 48 53 49 40 33 30 30 34 33 29 29 29 30 29 29 30 29 32 33 32 32 28 27 25 29 29 28 29 29 28 26 26 19
50 50 50 51 51 50 50 49 49 50 49 49 44 35 48 51 37 34 30 31 33 33 34 34 34 32 31 32 31 31 31 32 36 34 30 33 30 19 22 31 33 31 28 27 21 20 25
50 50 50 51 51 51 49 49 49 50 49 46 40 40 46 47 35 38 34 33 33 33 33 33 33 34 34 33 31 32 33 37 37 34 32 33 28 16 19 28 30 30 29 30 30 30 26
50 50 50 50 51 50 49 49 49 50 50 46 40 40 40 39 38 33 32 33 32 34 34 34 34 34 33 33 34 34 34 36 37 36 35 35 30 23 10 15 23 21 22 26 27 27 24
50 50 50 49 50 50 49 49 49 50 48 47 42 41 41 38 36 34 34 33 31 31 34 34 32 32 32 31 32 33 34 34 35 37 38 35 26 29 26 25 25 26 25 24 24 27 26
50 50 50 49 50 50 49 49 49 50 47 44 41 40 39 37 37 33 35 32 30 32 31 31 30 32 29 27 24 27 27 29 26 35 34 35 29 32 28 28 26 26 26 25 27 28 28
50 51 50 50 51 50 50 49 48 50 48 45 45 43 40 35 36 36 35 33 32 33 35 34 33 31 30 30 33 37 37 37 35 32 34 35 35 32 27 29 29 25 27 25 26 28 27
50 51 50 51 51 51 50 50 48 50 50 48 45 41 41 36 37 34 34 34 33 34 33 36 34 32 36 40 39 37 35 36 37 38 38 36 36 34 31 30 22 26 27 27 26 27 26
50 51 51 51 51 51 51 51 49 49 50 49 46 41 41 33 38 35 35 35 36 36 36 35 39 40 41 39 36 29 29 26 32 35 36 37 37 32 29 25 24 25 26 27 25 25 29
50 50 50 51 52 51 51 51 49 48 51 51 48 45 42 35 37 35 35 36 36 37 38 41 42 42 41 40 35 21 24 27 24 29 35 35 36 34 29 26 22 25 27 30 31 25 34
50 50 50 50 51 51 51 51 50 48 50 52 51 49 42 37 38 38 36 36 38 38 37 40 41 40 42 38 32 31 30 31 25 24 26 31 32 30 29 28 28 29 31 32 29 32 38
50 50 49 50 50 50 51 51 51 49 49 52 51 50 46 41 40 42 40 38 37 38 38 41 39 41 40 35 35 35 33 33 30 29 28 26 29 29 30 27 26 30 31 33 36 38 39
50 50 50 50 51 50 50 50 51 49 49 50 49 50 49 45 44 49 48 45 44 39 39 42 39 39 41 39 38 36 32 33 35 29 31 27 29 27 30 30 31 33 34 37 39 39 39

GFSGBSN_sfc_30mbdewp_009.txt.gz
Dewpoint
53 54 54 54 56 55 55 55 54 53 53 54 54 54 53 53 52 52 52 52 51 52 52 53 53 54 53 36 23 28 30 33 38 27 20 17 15 11 7 7 6 6 8 8 6 7 8
54 53 53 55 56 55 55 54 53 53 54 54 54 53 54 53 53 52 52 51 51 51 52 53 53 54 46 25 26 25 26 24 24 22 18 16 15 14 10 8 9 12 14 16 16 17 17
53 53 53 55 56 55 54 53 53 54 54 54 54 54 54 53 52 52 52 52 51 52 53 53 54 51 41 25 26 23 23 23 24 26 20 23 19 15 15 18 19 17 15 17 18 19 18
53 52 52 55 55 54 53 53 53 54 54 53 53 53 53 54 53 52 52 52 52 53 54 54 54 47 28 27 25 22 20 20 24 28 26 24 23 22 19 21 16 14 14 13 18 19 21
53 51 52 55 55 54 53 52 53 53 53 52 52 53 53 53 53 54 54 54 53 53 54 54 51 47 22 27 23 22 22 19 24 28 24 23 23 19 21 15 12 12 9 5 16 19 19
52 49 51 55 55 54 53 53 53 53 52 51 51 51 52 52 52 52 53 52 53 52 51 46 40 28 20 21 22 22 24 26 25 26 23 22 20 17 10 8 8 7 4 5 6 17 14
51 48 50 54 55 54 54 54 53 52 52 52 51 50 51 51 52 52 51 47 37 36 30 25 22 22 20 21 25 23 25 24 23 22 19 19 15 15 17 16 13 10 9 9 12 19 19
51 48 50 53 54 54 53 53 52 52 52 52 51 51 49 50 52 52 53 38 42 35 23 25 25 27 27 26 19 22 25 21 20 15 17 12 16 18 21 21 18 16 13 13 16 20 22
51 47 50 53 54 53 52 53 52 51 51 51 50 50 51 49 51 54 45 45 48 45 22 24 25 24 25 26 25 26 25 18 15 11 10 16 19 21 22 21 20 19 17 21 20 21 20
50 47 50 52 53 52 51 52 52 51 50 50 50 50 50 50 48 46 43 48 51 48 21 19 20 25 25 27 26 29 30 25 18 13 16 19 24 23 22 23 23 19 23 24 22 19 16
49 47 50 51 52 52 51 51 51 51 50 49 49 50 50 49 43 37 45 51 53 49 18 21 23 30 25 26 27 27 30 25 19 20 24 22 23 25 24 24 26 25 28 25 24 21 19
48 48 51 51 52 51 51 51 51 51 49 48 49 50 50 48 50 49 49 51 50 33 19 21 23 25 26 27 27 28 28 29 29 24 24 25 27 27 27 26 27 28 27 26 27 23 19
49 50 51 52 52 51 50 50 51 50 49 50 51 50 50 48 41 54 54 46 21 24 24 21 22 25 26 25 27 27 27 28 25 23 23 24 26 28 29 26 29 25 24 22 23 21 21
50 51 51 52 52 51 50 50 51 50 49 51 51 51 53 53 52 56 48 30 27 24 19 22 23 24 25 25 27 27 25 25 28 26 21 20 24 27 28 28 27 25 26 26 17 18 18
50 51 51 51 51 50 50 50 51 50 50 49 51 52 50 55 57 54 34 31 24 21 22 22 23 22 24 26 26 27 27 26 27 29 24 23 24 28 29 30 28 26 25 26 27 28 25
50 50 50 51 51 50 50 50 50 50 50 50 41 39 43 55 56 49 37 31 27 27 24 22 21 25 23 24 25 26 26 30 28 29 28 25 25 25 27 29 30 29 28 26 24 22 13
50 50 50 51 51 50 50 50 50 50 50 51 40 33 51 55 52 36 34 29 28 31 30 27 25 25 26 27 26 27 27 30 31 30 28 24 24 24 25 26 24 27 27 26 21 23 19
50 50 50 51 51 50 49 49 50 50 51 50 41 32 49 52 33 38 33 30 31 31 33 32 31 29 28 29 29 29 28 31 33 32 28 29 27 20 18 29 31 29 26 24 22 18 22
50 50 50 51 51 50 49 49 50 50 49 46 35 39 48 50 39 40 35 33 32 31 31 31 32 32 32 31 30 30 32 36 36 32 32 30 28 19 17 27 29 26 26 25 26 28 23
50 50 49 50 51 49 49 49 50 50 49 50 38 38 39 41 38 31 32 30 32 34 33 33 33 33 32 30 32 32 32 35 37 35 34 34 26 22 17 16 18 18 19 19 22 24 24
50 50 49 50 50 50 49 49 49 50 48 49 40 39 40 36 37 33 32 31 30 30 32 32 31 31 31 30 30 30 30 33 33 35 35 32 26 26 25 21 20 20 21 21 19 20 21
50 50 49 50 49 50 49 49 49 50 47 45 36 38 39 40 36 34 34 31 28 30 30 29 29 30 28 30 22 25 24 24 25 33 31 33 30 31 26 23 21 21 21 20 20 22 23
50 50 49 50 50 50 50 49 49 50 50 42 44 45 40 37 36 35 33 31 29 32 35 30 30 27 27 29 33 34 35 34 32 31 32 34 33 30 27 30 29 27 27 21 22 23 26
50 50 50 51 51 51 51 50 48 50 51 48 46 42 44 38 38 34 32 32 31 31 31 32 30 32 37 38 37 36 36 35 35 36 36 38 34 36 32 31 25 26 25 24 23 24 24
50 51 51 51 51 51 51 50 48 50 50 48 45 44 42 40 36 35 33 32 35 34 34 35 39 39 39 37 36 31 30 29 33 33 34 35 37 33 30 25 24 25 26 26 25 26 27
50 51 51 51 51 51 51 51 49 49 51 49 48 48 44 37 40 35 35 36 36 37 38 41 43 43 42 41 36 23 26 25 25 30 34 36 38 34 32 27 22 27 28 30 30 26 35
50 50 50 51 51 51 51 51 50 48 50 52 51 53 44 45 39 37 37 37 37 36 36 40 41 42 42 41 33 34 29 29 24 25 31 33 34 32 30 28 28 27 30 32 27 31 38
50 50 50 50 50 50 51 51 51 48 49 52 51 52 49 44 41 41 40 40 39 36 41 41 39 42 43 37 37 37 36 32 30 26 29 29 32 30 31 28 26 30 30 33 33 36 39
50 50 49 50 51 50 50 50 51 49 48 50 48 49 51 45 45 48 48 47 46 40 38 42 37 40 40 40 41 40 34 37 36 27 27 26 29 29 31 29 29 33 34 38 38 39 39

GFSGBSN_sfc_30mbdewp_015.txt.gz
Dewpoint
51 52 54 55 54 55 55 54 54 53 52 52 52 52 53 54 54 54 52 52 52 52 52 52 52 53 53 47 36 27 39 41 42 37 33 33 27 18 14 13 8 5 4 3 2 5 10
52 54 54 54 54 55 54 53 53 52 52 52 52 54 54 54 54 54 52 52 52 51 51 52 52 53 50 34 32 25 24 39 31 36 34 31 21 17 13 12 9 8 4 2 1 11 11
53 54 54 53 53 55 53 53 52 52 52 52 54 55 54 54 54 52 52 52 52 51 52 53 53 53 48 39 29 23 22 20 21 23 23 21 20 18 17 13 12 12 8 7 10 14 13
53 54 53 52 53 55 55 53 52 52 53 54 54 54 54 54 53 52 52 52 52 52 53 54 53 52 34 36 24 19 19 19 19 24 24 23 24 20 20 12 9 9 13 12 15 17 15
53 53 53 51 53 55 55 53 53 53 54 54 53 53 54 53 53 53 52 52 52 53 54 54 52 51 36 25 19 20 19 20 21 24 22 20 22 20 13 12 9 12 10 15 14 17 20
53 53 51 50 53 55 55 54 54 53 53 53 52 53 53 53 53 54 53 54 54 53 53 52 50 42 41 24 21 18 20 22 23 23 22 21 21 18 16 16 12 11 11 16 16 15 13
53 52 50 50 53 54 54 54 53 53 53 53 52 52 52 53 53 53 52 50 44 41 48 32 30 35 16 13 16 18 21 21 24 23 21 22 21 18 17 15 13 12 12 16 17 17 15
52 52 49 50 53 54 54 53 53 53 52 52 51 51 51 52 52 53 51 50 41 43 31 37 26 22 22 23 18 19 23 22 21 21 22 19 18 18 18 18 17 14 18 20 18 17 14
52 51 48 50 52 53 53 52 52 52 52 52 51 52 50 52 53 51 48 48 49 49 28 24 24 23 25 26 24 21 25 25 20 19 22 19 18 18 19 23 22 22 22 22 20 20 19
51 51 47 50 52 52 52 51 52 52 52 51 51 51 51 51 47 51 48 46 51 53 22 19 22 22 23 25 23 24 23 25 17 20 22 21 21 22 22 23 23 24 27 25 21 20 16
51 49 47 50 51 52 51 51 51 51 51 51 50 51 50 50 48 49 46 50 50 50 19 20 23 26 23 24 25 24 26 28 22 16 23 21 25 26 25 24 24 26 26 24 23 22 22
51 49 49 50 51 52 51 51 51 51 51 50 49 51 51 49 50 53 54 55 47 39 20 20 22 25 21 24 25 24 24 27 28 24 24 23 27 27 26 26 24 25 27 27 26 25 22
51 49 50 50 52 52 51 51 51 51 50 50 49 50 49 52 52 56 57 48 30 28 24 19 22 23 23 24 25 26 26 27 27 23 22 25 26 27 27 27 27 26 27 25 24 24 24
50 49 50 51 51 51 51 50 51 51 50 51 50 51 55 58 59 57 54 38 30 21 19 22 23 24 23 25 25 26 25 25 26 30 26 24 24 26 27 26 25 28 26 22 22 20 21
49 50 50 50 51 51 51 50 51 51 50 51 51 54 55 57 59 55 47 36 32 25 21 21 23 23 23 25 26 27 26 25 26 27 25 27 24 27 26 26 27 27 21 23 27 29 24
50 50 50 50 51 50 50 49 51 50 50 51 50 50 49 56 58 52 43 37 31 25 23 22 21 23 21 21 24 26 27 30 28 28 27 23 23 22 23 27 28 23 24 24 24 19 17
50 50 50 50 50 50 49 49 50 50 50 51 50 38 52 57 53 43 38 39 27 27 32 29 26 21 25 22 24 26 28 30 30 28 26 29 29 23 24 23 24 25 26 25 24 24 19
50 50 49 50 50 49 49 49 50 50 51 48 50 37 54 56 30 39 35 35 29 28 32 31 31 26 27 26 28 29 31 31 34 34 27 26 27 22 25 25 26 25 25 26 21 22 27
50 50 49 50 50 49 49 50 50 50 50 52 44 46 53 55 29 33 35 31 29 28 29 29 30 32 31 31 29 34 35 36 36 34 33 29 25 23 25 29 28 20 23 25 30 27 21
49 50 49 49 49 49 49 49 50 50 48 49 49 35 45 46 45 41 35 31 31 33 32 32 31 31 32 31 32 34 35 36 35 30 32 36 26 23 21 20 20 18 20 20 27 26 24
49 49 49 49 48 49 49 49 50 50 47 48 47 39 35 30 31 37 37 32 32 31 32 33 31 31 31 29 31 34 35 34 34 30 33 32 29 28 26 24 23 22 22 22 21 21 21
49 49 49 49 48 49 50 49 50 50 47 47 46 44 35 30 30 36 37 31 32 32 32 31 29 30 32 31 32 32 31 31 32 32 33 36 33 29 25 28 26 25 27 26 23 23 22
50 50 49 49 49 50 50 48 49 50 51 48 49 47 46 42 32 36 35 32 31 33 33 34 32 35 34 35 37 37 35 34 35 32 35 36 32 28 21 28 31 26 26 25 24 25 24
50 50 49 50 50 51 50 48 48 50 52 55 52 52 42 35 39 36 36 34 34 32 31 37 37 35 37 37 35 35 34 35 35 35 37 32 35 32 21 27 11 28 28 27 27 27 28
50 49 50 51 51 51 50 49 48 49 51 52 52 53 43 35 42 37 33 34 35 40 39 38 38 37 39 40 29 21 24 26 31 33 35 37 34 25 21 24 23 27 27 27 27 29 36
49 49 51 50 50 50 50 49 48 48 50 53 52 55 48 39 39 41 34 35 38 39 40 41 43 44 44 39 28 22 24 24 28 30 36 39 35 30 28 19 9 27 30 31 31 26 38
50 51 51 50 50 50 50 50 48 48 48 55 52 55 53 42 43 43 38 36 41 41 40 42 42 41 44 33 30 23 30 31 28 29 30 33 33 28 29 25 26 32 31 31 25 25 39
50 50 50 50 50 50 50 50 50 48 48 54 51 53 53 44 44 46 47 42 41 42 38 42 39 40 41 32 29 32 33 30 30 31 29 24 26 28 30 26 21 32 30 27 32 39 39
50 50 50 50 50 50 50 50 50 48 49 52 50 52 55 49 47 50 48 47 45 46 44 42 33 43 43 37 39 40 33 37 33 26 32 26 29 29 29 26 30 33 32 37 39 39 40

GFSGBSN_sfc_30mbdewp_018.txt.gz
Dewpoint
53 52 53 54 55 55 54 54 53 53 52 52 52 52 52 52 53 55 55 51 51 51 51 51 51 52 52 45 32 33 37 48 49 40 32 29 30 25 19 15 11 4 3 2 10 10 5
52 53 54 55 55 54 54 53 53 52 52 52 52 52 52 54 54 55 54 52 51 51 51 50 51 52 48 31 36 32 36 45 35 34 33 33 29 23 19 15 9 7 2 1 5 11 12
52 53 54 54 54 53 55 53 53 52 52 52 52 53 54 55 54 54 52 51 51 51 50 51 52 52 50 32 39 34 24 25 30 33 27 25 27 20 19 11 12 5 5 6 9 11 10
53 54 54 54 53 53 55 55 52 52 52 52 54 55 54 54 54 53 51 51 51 51 52 52 53 52 32 38 37 21 20 19 21 25 23 22 23 20 16 11 11 10 11 9 13 14 15
54 54 54 53 51 52 55 55 53 54 54 54 54 53 54 53 53 53 52 52 52 53 53 54 52 51 23 38 20 20 20 19 24 24 23 21 23 21 14 11 9 14 8 12 14 17 15
54 54 53 52 50 53 55 54 54 54 53 53 53 52 53 53 53 53 53 53 54 54 53 53 50 42 37 31 21 18 20 21 23 24 23 21 22 19 18 14 8 9 12 15 14 16 19
54 54 53 51 50 53 55 54 54 53 52 52 52 52 52 53 53 53 52 49 43 41 47 23 30 36 28 16 17 17 20 21 24 23 20 24 20 16 16 16 15 14 17 16 17 17 14
54 53 52 49 50 53 54 53 53 52 52 52 51 51 52 52 53 53 51 48 41 43 22 32 36 36 31 17 19 19 25 22 22 21 23 20 18 18 20 23 22 19 17 17 18 18 14
54 52 51 48 50 53 53 52 52 52 52 51 51 51 51 52 53 50 45 44 49 50 35 25 30 26 25 26 22 21 25 26 21 20 21 19 18 19 24 23 24 26 21 21 20 21 19
53 51 50 47 50 52 52 51 51 51 52 51 51 51 51 52 46 49 41 44 48 48 21 19 21 21 24 26 21 25 23 25 24 21 21 20 25 25 24 23 24 24 27 24 22 19 7
52 51 48 48 50 52 51 51 51 51 51 50 50 51 51 51 46 51 49 54 54 46 15 20 24 25 24 24 25 21 26 28 20 18 22 24 26 25 23 23 24 25 26 24 23 22 23
52 51 47 49 50 52 51 51 50 51 50 49 50 51 51 49 49 50 56 55 42 34 16 21 24 23 20 25 25 23 24 29 28 24 24 25 28 26 26 27 25 25 27 29 27 26 22
51 50 48 50 51 51 51 50 50 51 49 48 50 52 50 52 51 57 57 42 28 27 24 19 22 23 24 24 25 26 27 26 27 22 23 26 26 27 28 27 27 26 28 23 23 23 22
51 49 49 50 51 51 51 50 51 51 49 49 52 51 51 55 58 56 47 29 29 23 21 22 24 25 23 25 27 27 26 25 26 30 25 24 24 26 27 25 25 26 25 22 21 18 19
51 49 50 50 51 50 50 49 50 51 49 50 51 51 55 55 58 53 40 30 32 26 22 22 25 24 24 25 26 26 25 24 26 27 25 25 23 28 24 26 28 26 23 26 26 28 22
50 49 50 50 51 50 49 49 50 50 49 51 47 49 45 56 56 47 41 36 33 28 28 24 22 25 22 23 25 27 28 30 28 27 28 26 20 23 23 29 28 21 25 23 23 16 16
50 50 50 50 50 49 49 50 50 50 50 51 49 32 43 57 47 38 34 37 30 30 32 26 25 22 24 22 25 27 29 30 32 30 27 31 23 22 28 24 24 24 25 26 25 24 18
49 50 50 50 50 49 49 50 50 50 51 48 48 33 53 47 23 39 35 36 29 28 31 31 31 31 25 28 31 32 31 32 36 35 23 29 25 23 25 25 26 25 26 25 19 20 25
49 49 49 50 49 49 49 50 50 50 50 47 42 46 53 46 20 30 34 31 30 28 29 29 30 32 33 31 31 35 34 36 32 33 31 29 24 21 25 28 27 22 24 30 28 26 20
49 49 50 49 49 49 49 50 50 50 50 51 47 35 42 46 42 32 34 30 31 34 32 32 31 32 31 31 35 34 34 36 30 27 32 36 28 22 16 22 21 18 21 27 26 22 22
49 49 49 48 48 49 49 49 50 49 49 47 48 35 32 24 31 38 38 32 31 30 32 32 30 31 31 31 33 34 35 33 33 30 32 31 26 28 25 26 24 23 22 22 22 23 22
49 49 48 48 48 49 49 49 50 49 48 46 44 43 38 27 28 35 38 34 32 32 32 31 29 32 32 31 32 33 30 31 27 32 33 36 29 26 21 29 29 20 27 27 25 23 24
49 48 48 48 48 50 49 49 50 50 48 44 47 49 34 42 28 32 35 33 33 33 34 35 35 34 33 35 37 37 37 36 34 32 36 33 30 23 12 28 28 22 26 25 25 26 25
50 48 48 48 50 50 49 48 49 50 52 54 52 51 39 35 35 28 36 34 35 33 33 38 36 34 38 40 33 32 32 34 36 37 35 32 32 28 16 19 7 26 28 27 26 32 34
49 49 50 50 50 50 49 48 48 49 52 51 52 50 39 34 41 38 35 39 39 40 39 39 40 38 39 34 21 22 25 29 32 38 39 34 29 24 13 18 18 26 28 27 24 26 36
48 49 50 50 50 50 50 48 48 49 52 50 52 54 40 34 38 43 37 38 36 37 38 41 43 45 40 34 23 13 8 17 26 31 36 36 30 20 27 11 2 17 30 31 30 25 37
49 50 50 50 50 50 50 49 48 48 52 51 49 55 48 40 43 44 37 37 41 40 38 41 40 41 38 28 24 19 28 28 25 26 29 33 33 25 25 19 21 25 31 31 24 18 39
50 50 50 50 50 50 50 50 48 49 51 51 50 53 46 42 44 48 47 41 42 40 35 40 36 38 36 28 23 29 31 30 29 31 29 25 24 28 28 24 14 30 32 27 27 38 39
50 50 50 50 50 50 50 50 49 50 51 54 45 53 53 45 45 49 47 48 47 43 42 41 31 39 37 33 33 36 30 36 30 25 33 23 23 22 27 22 27 33 30 32 38 38 39

GFSGBSN_sfc_30mbdewp_021.txt.gz
Dewpoint
55 54 54 53 54 55 55 54 53 53 52 52 51 51 51 52 52 52 52 54 50 51 50 50 50 51 51 44 30 33 51 54 44 36 30 28 28 27 22 17 18 9 3 7 7 6 4
56 54 53 53 54 55 54 54 53 53 52 52 51 51 51 51 52 53 54 53 51 50 50 50 50 51 48 26 33 35 43 41 37 36 32 30 24 28 24 18 8 7 3 6 10 9 6
55 54 53 54 55 54 54 54 54 53 52 52 52 51 51 53 54 54 54 53 51 50 50 50 51 51 49 27 37 39 37 35 35 33 29 34 32 27 20 13 11 5 4 5 10 10 11
55 54 54 54 54 54 52 53 55 54 52 52 52 52 54 54 54 54 53 51 51 50 50 51 52 52 31 36 40 35 23 20 27 34 29 24 26 25 14 12 13 11 11 7 11 13 15
54 54 54 54 54 53 51 53 55 54 54 54 54 54 54 54 54 54 51 51 51 52 52 52 51 51 23 33 28 23 20 19 23 24 24 22 24 19 16 9 9 13 8 11 13 15 14
54 54 54 54 54 51 51 54 54 54 54 53 53 53 53 53 53 53 52 52 53 53 53 53 51 41 33 24 25 19 19 21 23 24 21 23 23 17 17 10 2 8 10 13 11 15 17
54 54 54 54 53 50 52 54 54 53 52 53 53 52 52 53 53 53 52 50 45 42 48 23 26 30 34 21 18 18 19 22 25 23 21 23 19 16 16 17 15 14 15 15 16 17 16
54 54 54 54 52 50 53 54 53 52 52 52 52 51 52 53 53 53 51 46 39 46 27 37 37 37 35 33 19 19 26 22 22 19 22 19 18 19 25 24 20 18 16 17 19 19 22
54 54 54 53 51 50 53 53 52 52 52 52 51 51 52 52 53 51 44 41 48 45 37 26 29 28 27 25 21 22 26 25 21 19 20 18 18 23 22 24 23 25 20 20 19 20 24
54 53 53 52 50 50 52 52 52 51 52 51 51 51 52 52 46 46 41 43 52 42 23 20 21 21 24 26 20 25 24 24 23 20 21 23 28 24 23 21 24 22 27 23 21 17 19
53 53 52 51 48 50 52 51 51 51 51 51 51 51 52 50 46 50 49 55 53 41 12 19 23 24 24 25 23 19 27 27 19 22 22 25 25 24 22 23 25 25 27 23 23 21 21
53 52 52 50 48 50 51 51 51 51 51 51 51 51 51 50 48 48 55 52 40 29 16 20 24 22 21 25 24 23 28 30 28 25 26 26 28 26 26 27 25 25 28 29 30 26 20
52 52 51 49 49 51 51 51 50 51 50 50 51 52 49 51 51 57 54 37 24 27 23 20 21 22 23 24 26 26 27 26 24 21 24 26 26 27 28 27 27 27 28 23 22 22 22
52 51 51 49 50 51 51 50 50 51 50 50 51 52 50 50 57 55 42 24 25 27 21 23 24 24 23 26 27 27 26 24 27 27 26 24 21 25 25 25 25 24 26 23 21 21 19
51 51 50 49 50 51 50 50 49 51 50 51 51 49 54 55 57 50 34 19 30 28 23 23 25 23 24 26 26 26 26 23 26 27 25 23 22 27 25 26 28 26 23 27 26 26 22
51 50 49 50 51 51 50 49 49 50 50 51 47 47 45 55 53 45 34 32 34 31 27 26 22 24 22 24 25 27 28 30 28 27 28 27 20 24 24 28 27 23 27 21 22 14 16
51 50 50 50 51 50 49 49 50 50 50 51 47 29 40 55 40 34 23 34 36 30 32 24 24 24 24 23 27 28 28 31 33 31 29 30 20 21 27 24 24 24 24 25 26 24 16
50 49 50 50 50 49 49 50 50 50 51 48 43 24 51 39 23 38 33 37 33 28 31 31 32 29 25 30 31 31 30 31 36 35 24 29 25 23 23 27 28 26 25 23 15 18 24
49 50 49 50 49 49 48 50 50 50 48 47 39 48 52 36 20 30 33 34 30 28 29 30 30 32 33 33 30 34 34 35 30 32 29 29 24 21 24 26 25 25 26 29 26 25 21
49 50 50 50 49 48 48 50 50 50 51 48 41 38 42 44 36 26 30 31 30 33 32 32 31 33 31 33 36 33 33 35 28 29 34 33 28 20 13 20 23 18 21 28 25 21 20
49 49 50 49 48 48 49 50 50 50 50 48 46 33 35 32 35 40 35 32 31 29 32 32 30 31 31 32 33 34 35 32 29 31 33 30 24 27 26 26 24 22 21 24 25 24 20
49 49 48 48 48 48 49 50 50 49 49 44 44 37 37 27 30 36 37 34 31 32 32 31 29 33 32 31 31 32 30 27 19 32 34 35 27 23 25 29 28 22 21 23 23 23 25
49 48 47 48 48 49 49 50 50 48 47 42 47 49 33 37 31 34 36 35 32 33 36 35 34 33 32 34 36 37 36 35 33 32 35 30 28 19 9 27 25 15 21 26 25 25 24
48 48 48 48 50 49 48 49 50 48 49 50 52 47 38 35 26 30 37 35 34 33 33 37 36 33 35 36 33 32 33 36 37 37 35 31 27 23 14 16 5 14 27 27 25 27 31
48 48 49 50 50 48 48 48 49 49 50 51 52 46 37 36 36 35 36 38 39 40 39 39 40 39 38 27 26 26 25 28 32 38 35 33 26 20 13 13 14 16 26 27 26 24 34
48 50 50 50 50 49 48 48 49 51 52 51 53 49 39 37 38 40 38 38 35 36 38 40 44 42 36 27 18 13 12 15 25 32 36 31 25 17 23 9 1 7 30 31 28 24 35
50 50 50 50 50 50 48 49 50 52 52 47 51 53 44 40 43 42 37 35 39 37 36 40 40 39 34 26 19 18 17 24 18 22 30 33 31 25 20 15 17 21 31 30 23 14 37
49 50 49 49 50 50 49 49 50 51 52 48 50 53 44 42 45 47 46 41 41 39 34 39 36 37 33 28 22 24 27 29 28 29 29 26 27 27 25 21 13 27 31 27 27 31 37
49 49 49 49 49 50 48 48 50 51 53 49 49 53 50 43 45 48 48 48 47 40 41 40 34 37 35 30 29 32 27 33 29 22 32 25 23 20 24 19 26 31 31 32 33 34 39

GFSGBSN_sfc_30mbdewp_024.txt.gz
Dewpoint
56 55 55 55 55 54 54 54 55 54 52 53 52 51 51 51 51 52 52 52 52 50 50 50 50 50 50 44 31 45 56 55 46 33 30 28 26 25 23 22 19 16 10 8 7 9 20
57 56 56 55 54 54 53 54 55 55 52 52 52 51 51 51 51 51 51 53 52 50 50 50 50 50 47 29 32 45 48 42 37 33 31 29 27 27 25 21 15 12 4 7 9 5 5
57 57 56 55 54 54 54 55 54 54 53 52 51 51 51 51 52 52 52 54 50 50 50 49 50 50 49 29 36 40 41 36 38 34 30 31 28 24 24 16 13 6 2 7 10 10 12
56 56 56 54 53 54 54 54 53 53 55 53 52 52 51 52 53 54 54 53 50 50 49 50 51 51 34 36 39 37 33 25 34 35 31 29 33 28 23 14 14 10 10 3 9 12 14
56 56 55 54 54 54 54 53 52 53 55 54 54 54 54 54 54 54 53 50 50 50 50 51 50 50 28 32 30 23 23 19 25 30 31 25 27 19 14 10 10 12 8 11 12 15 14
56 56 55 54 54 54 54 52 51 54 54 54 53 53 53 53 53 53 52 51 51 52 52 52 52 42 34 23 30 19 19 21 24 24 22 23 22 16 16 5 3 5 10 11 11 15 17
56 55 55 54 54 54 53 52 52 54 54 53 53 53 53 53 53 53 51 50 45 43 48 28 28 27 33 32 21 18 19 23 24 24 21 23 17 15 16 15 12 14 14 13 16 17 27
56 55 54 54 54 54 53 51 53 54 53 52 52 52 52 53 53 53 51 45 36 44 35 39 38 37 36 34 24 19 26 22 22 19 22 19 17 19 25 23 19 18 16 17 20 22 28
56 55 54 54 54 54 53 51 53 53 52 52 52 51 52 53 53 52 49 42 46 46 38 29 34 25 24 29 20 22 25 25 21 20 20 18 20 24 24 24 20 24 18 20 19 25 27
55 54 54 54 54 53 52 51 53 52 52 51 51 51 52 53 48 46 40 41 53 44 22 21 22 22 24 24 21 25 25 24 23 20 23 25 27 23 22 23 24 20 26 23 20 20 19
55 54 53 53 53 52 50 50 52 52 51 51 51 51 52 50 47 49 49 56 53 37 13 19 21 24 24 25 20 21 31 24 21 22 23 25 25 23 22 22 26 25 27 24 23 22 20
54 53 53 53 52 51 49 50 52 51 51 51 51 51 52 50 48 48 53 50 37 27 17 19 24 21 23 25 24 25 29 30 27 27 27 26 28 27 26 28 25 27 28 28 29 25 18
54 53 53 52 51 50 48 51 51 51 50 51 51 51 51 49 49 56 52 34 23 24 23 20 21 21 23 25 25 27 26 26 23 22 23 25 26 27 28 26 27 29 26 22 22 22 20
54 53 52 52 50 49 48 51 51 50 51 50 51 51 50 50 54 55 36 23 21 28 21 23 23 24 23 26 27 27 26 25 27 26 25 20 19 24 25 26 24 24 27 22 20 22 22
50 52 52 51 50 49 49 51 51 50 51 50 51 50 51 54 54 49 27 19 25 29 23 23 24 24 24 26 26 26 26 24 27 27 24 23 22 27 25 27 28 26 21 27 25 26 21
49 52 51 50 49 49 50 51 49 49 51 52 49 48 48 55 52 42 24 21 33 34 27 25 21 24 23 25 25 26 27 30 27 30 29 26 19 24 24 28 27 25 28 20 21 10 10
51 51 50 49 49 49 51 50 49 50 50 51 43 35 40 54 39 29 21 22 37 32 31 24 24 25 24 25 27 27 28 31 33 31 30 27 21 21 26 24 25 25 24 25 25 23 13
52 51 50 49 49 50 50 49 49 50 51 51 37 26 50 37 25 34 28 35 37 28 31 32 30 27 24 29 30 29 28 30 35 35 26 29 25 23 21 27 30 26 25 22 12 15 23
51 50 49 49 49 50 49 49 50 50 51 47 40 48 51 33 21 28 32 33 32 28 30 30 31 32 34 32 28 33 33 34 29 31 27 27 25 21 21 22 24 25 28 27 24 25 21
50 49 49 49 50 49 48 49 50 50 51 46 42 39 42 38 33 25 26 31 30 33 32 32 32 33 33 34 35 33 33 33 29 31 35 30 26 20 10 16 22 19 24 27 23 19 19
49 49 49 50 49 48 48 49 50 50 50 49 40 37 39 35 35 27 29 32 30 29 32 32 31 31 31 31 33 32 34 31 29 33 34 27 22 25 26 27 24 20 20 25 23 22 18
49 49 49 49 48 48 49 50 50 50 50 46 44 34 32 33 39 33 34 33 30 31 32 30 29 34 32 30 29 31 31 26 15 33 33 33 24 23 25 29 27 23 21 22 24 24 25
49 49 48 48 48 48 49 50 50 50 48 42 47 44 32 34 37 32 33 34 32 33 36 35 32 32 31 34 36 36 35 33 31 31 32 28 26 19 12 25 22 14 19 22 23 25 22
48 48 48 48 48 49 49 49 50 49 48 46 49 45 35 26 32 36 35 36 34 33 32 36 35 32 36 36 33 32 34 37 37 36 34 28 23 17 12 15 5 12 26 27 24 25 26
48 47 48 49 50 48 48 49 50 49 51 50 52 45 37 27 29 32 37 37 39 40 38 39 40 39 36 27 29 28 26 28 31 35 31 30 23 18 11 13 12 11 19 25 26 22 30
47 48 49 50 48 48 48 49 49 48 49 52 52 45 41 28 31 37 38 38 35 36 37 41 42 39 33 23 17 22 21 20 21 31 35 28 24 16 19 8 2 7 25 30 27 22 28
49 50 50 49 48 48 49 50 50 48 50 51 52 50 43 40 43 40 36 36 38 36 36 39 38 38 33 23 18 16 14 22 15 18 28 32 30 22 17 14 15 18 30 29 19 13 32
49 49 50 49 49 49 49 50 52 51 50 51 51 52 44 43 46 47 45 39 39 38 33 39 36 36 31 27 22 21 23 25 25 26 29 24 24 24 23 21 13 25 31 26 26 28 33
49 49 50 50 48 48 49 49 51 51 50 51 49 53 50 44 45 48 48 48 46 39 40 40 34 36 34 30 26 28 26 31 28 19 31 23 25 21 23 18 24 28 31 32 32 30 35

GFSGBSN_sfc_30mbdewp_027.txt.gz
Dewpoint
58 57 56 56 56 55 55 54 55 55 55 54 52 52 51 51 51 52 51 51 51 52 51 50 49 49 49 44 31 44 57 56 47 32 30 28 26 25 25 25 22 18 15 9 8 29 33
58 57 57 56 56 56 55 54 54 55 55 54 52 52 52 51 51 51 51 51 51 52 50 49 49 50 47 27 32 50 50 46 37 32 30 29 25 26 26 21 19 17 7 9 8 15 22
58 58 57 56 56 55 55 54 54 54 54 54 53 52 51 51 50 51 51 51 51 50 50 49 49 49 49 30 34 47 42 39 37 33 30 30 29 28 27 20 16 7 8 9 11 11 14
58 58 57 56 55 55 54 53 54 54 53 54 54 52 52 51 51 51 51 52 51 49 50 50 51 49 35 38 41 38 39 34 37 35 32 31 30 27 25 16 15 9 9 5 12 13 13
58 57 57 56 55 54 54 53 53 53 52 53 55 54 54 54 54 52 52 51 50 50 50 52 50 49 29 36 30 28 27 20 31 35 33 32 31 26 14 12 11 13 6 9 11 18 14
58 57 57 56 55 54 54 53 53 53 52 53 54 53 53 53 53 53 51 49 50 51 51 50 51 44 35 24 31 21 20 23 27 27 26 25 23 18 15 9 6 8 10 12 12 18 22
52 58 56 56 55 54 54 54 53 52 52 54 53 53 53 53 53 53 51 50 46 44 49 32 30 32 29 31 30 19 20 25 24 24 21 23 17 11 14 12 8 11 12 13 17 22 31
52 55 56 56 55 54 54 54 53 52 52 54 52 52 52 53 53 51 50 45 37 40 36 42 39 38 36 35 25 19 26 22 20 20 22 19 16 19 25 21 18 18 17 18 24 27 31
51 50 56 56 55 54 54 53 53 51 52 53 52 52 52 53 53 51 49 46 46 46 40 32 37 30 21 31 22 21 25 23 20 19 20 18 20 25 25 23 21 22 20 20 21 28 30
50 50 55 55 55 54 54 53 52 51 52 52 51 52 52 53 49 48 44 44 46 47 23 22 25 25 25 25 21 25 27 24 22 20 26 25 27 23 23 23 23 22 25 22 22 21 18
49 49 52 55 54 54 53 53 51 51 52 52 51 51 52 51 47 44 46 56 51 36 11 20 21 24 26 22 20 23 31 24 21 22 24 24 24 23 22 23 26 26 25 23 22 21 21
49 49 49 55 54 54 53 51 50 50 52 51 51 51 52 51 49 48 52 47 39 29 19 19 23 21 24 25 25 26 28 29 28 27 27 26 28 27 26 28 26 30 28 29 29 26 16
48 49 49 53 53 53 52 51 49 50 51 51 51 52 52 49 46 56 50 37 25 23 25 20 21 22 24 25 25 27 26 26 24 21 22 25 26 27 28 27 27 28 26 20 19 22 19
48 49 50 52 53 52 51 50 49 50 51 51 51 52 51 51 52 51 37 25 21 26 23 23 23 24 24 26 27 27 26 26 27 26 25 19 19 23 26 26 24 26 27 21 13 20 23
47 49 49 53 53 52 50 49 49 51 51 51 51 50 49 51 51 49 29 21 22 27 24 23 25 23 25 26 26 26 26 25 27 28 22 21 21 26 26 27 27 25 20 28 25 25 21
45 48 49 53 52 51 50 49 50 51 51 51 48 47 47 54 54 40 26 21 27 34 28 24 21 24 23 25 25 25 25 30 27 30 29 25 20 24 25 28 28 26 28 21 22 10 10
45 48 49 50 51 50 49 49 51 49 51 51 47 43 43 52 41 30 24 21 34 39 32 23 24 24 25 25 27 26 26 31 32 30 29 24 23 23 26 25 25 26 24 25 25 23 10
45 48 48 48 50 49 49 50 50 48 51 50 40 31 50 39 28 32 25 29 38 29 32 31 27 26 25 28 28 28 26 30 35 34 27 28 25 23 22 27 30 26 24 24 14 15 23
45 46 47 46 50 49 49 50 49 49 51 48 35 48 50 34 24 27 31 32 33 28 30 30 31 30 34 31 27 32 32 33 30 30 28 27 25 21 21 22 25 25 27 25 24 26 20
45 46 46 48 49 49 49 49 48 50 50 46 45 40 43 35 32 25 30 27 29 33 32 32 33 34 34 33 35 32 32 33 30 32 34 29 25 20 14 15 23 21 27 25 22 18 17
46 46 47 50 49 49 49 48 50 50 50 47 41 38 41 32 28 25 26 31 28 30 32 32 32 31 32 31 32 32 33 28 30 35 34 27 21 24 25 26 25 20 22 26 23 21 15
47 47 48 49 49 49 48 48 50 50 51 47 38 35 34 35 33 26 31 31 29 32 31 29 30 33 32 30 29 30 31 25 18 34 33 31 24 25 24 28 27 23 22 22 26 25 23
48 47 49 49 49 48 48 48 50 50 49 45 48 40 31 35 36 25 29 33 31 33 36 34 32 32 31 34 36 36 34 33 30 31 31 28 25 21 14 24 21 15 19 22 23 24 24
46 49 48 48 48 48 48 50 50 50 48 46 47 40 29 30 35 27 31 35 32 32 32 36 34 32 36 38 35 34 35 36 35 33 32 25 21 18 14 16 3 11 26 25 23 23 24
49 48 48 48 48 48 50 49 50 50 50 50 50 42 32 27 32 34 36 37 38 39 38 38 40 38 37 30 30 29 28 30 32 33 29 27 22 17 11 14 12 9 15 21 24 15 26
48 48 48 48 49 49 49 49 50 49 50 51 51 44 37 28 29 36 38 37 35 36 37 40 40 37 30 23 23 25 24 23 21 30 34 27 23 18 18 7 2 7 18 30 28 20 26
47 48 48 49 48 48 48 49 49 49 51 51 51 46 42 35 42 40 37 36 38 36 37 37 35 36 32 22 21 20 19 22 17 16 26 31 29 22 18 15 16 19 24 29 16 12 26
48 49 49 48 48 49 49 49 49 49 50 52 51 51 43 43 46 46 43 38 38 38 34 38 36 35 30 27 24 22 22 22 22 24 27 22 23 23 22 19 12 24 30 23 24 29 29
49 49 48 47 47 48 49 50 48 48 48 52 48 52 48 45 45 47 47 47 46 39 40 40 35 36 34 30 27 27 26 29 26 20 31 22 26 22 23 18 24 26 31 32 32 30 31

GFSGBSN_sfc_30mbdewp_030.txt.gz
Dewpoint
59 58 58 57 57 56 56 56 55 55 55 55 55 53 52 52 52 51 52 51 51 51 52 50 49 49 49 42 31 45 55 54 43 30 30 25 21 18 12 15 20 18 15 14 24 31 26
56 59 58 57 57 56 56 56 55 54 54 54 54 54 52 52 51 51 51 51 51 51 51 49 49 50 46 32 29 45 46 40 32 28 30 27 22 22 23 24 20 18 13 9 12 25 32
55 59 58 57 57 56 56 56 55 54 54 54 53 54 52 52 51 51 51 52 52 51 50 50 49 49 46 33 33 43 39 36 32 27 27 29 26 22 25 24 18 12 8 9 9 16 28
54 54 58 58 57 56 55 55 54 54 54 53 53 54 54 52 51 51 52 52 52 50 49 49 50 49 38 36 36 37 35 36 37 32 30 31 31 26 25 19 12 7 8 6 12 16 17
54 54 57 58 57 56 55 54 54 53 53 53 52 54 54 54 53 53 52 51 50 50 50 51 50 49 33 35 32 28 34 24 34 34 34 32 30 26 23 15 11 9 7 6 11 18 17
53 54 54 58 57 56 55 54 53 53 53 52 52 54 53 53 53 53 52 49 49 51 51 50 50 47 39 25 28 24 25 27 31 31 30 29 26 20 16 13 11 10 9 4 7 17 13
51 51 52 56 57 56 55 54 54 53 52 52 52 54 53 53 53 52 50 50 47 46 48 34 30 35 27 28 30 20 22 29 27 25 22 25 20 14 11 13 10 9 10 10 15 27 20
49 50 51 51 57 56 55 55 54 53 52 52 53 53 52 53 53 52 50 45 39 45 36 40 38 36 33 32 26 19 26 22 25 18 23 21 16 22 24 18 15 12 11 17 21 26 27
48 49 51 50 54 56 55 55 54 53 52 51 53 52 52 53 52 50 47 44 48 47 41 33 37 28 21 29 22 17 24 23 21 18 21 18 23 26 22 19 18 20 17 19 18 26 28
47 49 51 51 51 56 55 55 54 53 51 51 52 52 53 53 48 47 43 42 44 47 26 21 27 28 27 28 21 25 28 23 23 19 25 24 26 24 22 21 21 18 24 22 23 19 14
48 49 50 51 50 55 55 54 54 53 51 51 52 52 53 51 47 42 47 45 55 46 13 20 24 25 26 22 22 26 31 25 17 22 25 24 24 23 21 24 26 24 25 23 21 19 20
46 48 49 50 49 54 54 54 53 52 51 51 52 52 53 51 50 49 51 54 49 31 16 20 22 22 24 24 24 28 28 29 29 26 26 26 28 27 26 28 27 29 26 26 24 22 16
46 47 48 49 49 53 54 54 52 51 50 51 51 52 52 50 41 57 57 47 28 22 24 20 20 22 21 22 24 27 26 24 19 22 23 25 26 27 29 26 30 29 24 15 18 17 14
45 46 47 49 50 51 54 53 52 50 50 51 51 52 52 49 50 53 48 35 21 20 20 23 21 22 20 24 26 27 26 22 27 25 21 19 20 24 27 27 22 24 22 14 7 12 14
44 45 47 48 50 50 53 53 51 50 50 51 51 50 50 49 52 52 41 27 20 25 25 22 22 19 23 24 24 26 25 24 26 28 17 18 19 26 27 28 27 25 20 28 26 27 23
45 44 45 47 49 51 52 52 50 49 51 51 47 47 43 50 54 47 38 26 24 31 27 23 17 18 20 21 20 25 26 29 28 30 31 26 21 25 27 28 29 27 27 22 24 18 10
44 44 44 46 49 49 52 52 50 50 51 51 45 39 51 57 52 45 30 27 27 36 32 23 20 22 21 24 19 22 25 30 31 29 29 26 23 25 27 25 24 26 24 24 22 23 10
44 45 44 46 48 48 52 51 50 50 51 50 43 36 54 51 40 37 30 27 35 30 33 29 27 26 23 26 26 20 23 27 34 31 27 28 27 25 24 27 29 27 24 21 14 16 24
44 44 45 45 48 48 52 50 50 50 50 47 39 44 50 43 34 34 32 29 36 29 30 31 28 30 32 30 27 30 31 34 33 31 30 29 26 23 23 24 26 25 26 23 25 26 20
44 44 45 46 47 48 50 50 49 50 50 46 39 39 46 41 34 30 28 27 30 34 33 34 34 35 34 32 35 33 33 33 33 32 31 29 28 24 20 19 22 22 25 23 19 19 14
43 44 45 46 47 46 50 49 49 50 50 48 42 36 40 36 32 30 28 26 28 30 33 34 33 32 31 32 32 33 33 29 33 35 35 31 25 26 24 25 24 21 22 24 20 19 17
43 44 45 46 46 46 50 49 49 50 50 47 39 38 39 34 30 28 27 28 27 31 32 30 31 33 34 32 29 31 32 29 28 34 33 32 27 28 26 27 25 23 22 21 23 21 22
43 44 46 45 46 47 49 49 49 49 50 44 49 41 34 37 30 27 27 26 26 34 37 34 34 34 34 35 37 37 35 32 30 33 33 32 29 25 20 24 23 20 23 21 20 23 22
44 44 45 46 47 48 49 48 49 49 50 44 48 39 37 33 32 25 27 30 31 34 34 37 36 34 39 39 36 35 35 34 32 33 32 31 27 27 23 19 10 13 22 22 21 21 20
42 44 46 47 48 49 48 48 49 50 49 51 50 42 38 35 33 29 30 32 38 39 39 38 40 39 39 36 34 31 32 32 34 32 30 29 27 22 23 17 13 5 16 18 22 15 20
45 47 47 49 48 48 47 49 49 50 49 53 52 47 42 33 34 30 33 38 36 38 39 40 39 39 34 35 33 30 28 27 27 32 33 28 29 27 22 17 12 16 23 29 28 17 21
46 48 48 48 47 48 49 49 49 50 49 54 53 51 43 40 38 40 33 37 40 39 39 38 37 38 36 34 30 32 29 25 22 20 28 32 32 28 26 25 22 21 21 30 18 17 27
48 48 47 48 48 49 49 49 49 49 50 54 53 53 48 46 44 46 42 40 40 40 38 39 36 38 36 32 34 32 31 27 25 24 28 26 29 28 28 24 19 24 30 24 28 31 31
48 48 48 48 48 48 48 49 49 49 50 53 51 52 51 47 47 49 48 48 47 43 42 40 39 38 37 38 35 36 31 30 32 27 30 26 28 28 27 24 27 28 30 32 34 33 33

GFSGBSN_sfc_30mbdewp_033.txt.gz
Dewpoint
54 56 60 59 58 57 56 56 56 55 55 55 55 55 54 53 52 52 52 51 51 51 52 51 50 50 49 42 31 47 53 55 39 35 27 22 15 14 12 9 12 17 16 17 30 31 30
52 54 56 59 58 57 57 56 56 55 55 54 54 54 54 53 52 52 51 51 51 51 52 50 49 49 48 33 26 38 39 36 28 31 24 19 15 15 16 13 16 16 16 21 26 28 27
51 53 54 57 58 57 57 56 56 55 55 54 54 53 53 53 52 52 51 51 52 52 50 50 49 48 44 34 30 39 36 32 27 26 23 25 23 21 24 22 20 15 14 18 21 23 27
51 53 54 54 58 57 57 56 56 55 54 54 53 53 53 54 53 52 51 52 52 51 50 49 49 48 38 32 31 31 36 32 33 29 26 29 27 25 25 23 19 12 11 12 16 17 26
50 52 53 54 54 57 56 56 55 55 54 54 53 53 53 54 53 53 52 52 50 50 49 50 50 48 34 34 29 27 29 26 32 32 30 30 30 27 24 21 15 10 12 10 11 13 19
48 51 52 54 54 57 57 56 55 54 54 53 53 52 53 53 53 53 52 50 49 50 50 49 48 46 40 26 27 24 28 28 31 31 31 29 27 25 23 18 10 12 12 10 8 14 18
46 49 51 52 52 53 57 56 55 54 53 53 52 52 54 53 53 52 49 48 44 45 46 37 32 30 26 26 26 23 22 26 29 29 24 27 22 18 15 16 20 15 11 6 10 17 12
45 47 49 50 51 51 55 57 55 54 53 53 52 52 53 52 53 52 50 40 41 46 40 37 32 30 30 28 23 20 21 23 25 22 22 22 19 21 19 16 13 11 8 13 15 17 18
46 46 46 49 50 51 51 57 56 54 53 52 52 53 52 53 53 50 46 40 47 47 43 31 30 29 24 26 19 18 21 20 22 23 23 23 29 24 20 13 11 11 12 14 13 18 19
46 46 47 48 49 50 51 54 56 54 53 52 51 52 52 52 48 44 43 41 42 46 37 24 24 24 24 25 21 21 21 20 24 23 20 25 25 20 19 15 15 15 21 17 18 18 14
46 46 46 47 49 50 51 51 56 55 53 52 51 52 53 51 50 41 47 44 48 51 21 19 21 26 24 21 19 20 26 20 19 20 22 24 22 19 18 21 22 23 22 21 19 15 20
46 46 46 47 49 50 51 51 54 54 53 51 51 52 53 51 49 48 49 55 52 38 21 18 22 20 21 20 17 22 20 21 24 21 20 24 26 25 24 25 24 25 23 23 21 16 15
45 46 46 47 48 49 51 51 54 54 53 51 52 52 52 49 41 50 55 51 33 26 21 17 17 19 19 19 18 18 18 18 15 15 15 19 22 26 26 24 26 23 20 16 17 14 13
44 45 45 46 47 48 50 50 54 53 52 51 51 52 52 49 49 54 54 41 28 19 19 18 18 18 16 18 17 18 17 13 15 18 15 18 19 23 25 24 21 21 17 17 11 8 9
40 42 45 45 47 48 50 50 53 53 51 51 51 51 49 50 52 54 48 34 27 18 19 18 19 17 16 19 19 18 17 12 15 17 18 16 19 25 26 26 22 20 19 23 20 28 18
39 41 44 45 46 47 49 50 52 53 51 51 47 48 45 50 52 51 43 32 26 23 23 19 16 17 16 19 16 17 19 20 23 27 28 21 18 22 26 27 27 25 24 18 18 17 11
39 40 43 44 45 48 49 49 51 52 51 50 45 42 41 50 51 46 36 30 27 26 26 21 17 16 17 17 15 17 19 26 27 28 28 21 18 24 25 23 19 25 21 19 20 21 14
40 40 42 43 44 45 49 50 51 52 50 49 46 38 51 54 39 42 35 30 27 25 32 25 25 20 18 19 19 16 18 21 28 28 24 26 21 21 23 26 27 25 22 22 17 14 18
40 39 44 43 43 44 47 47 51 51 50 45 43 44 55 49 37 39 34 28 27 27 29 26 22 22 21 21 20 18 17 35 34 31 24 28 19 18 22 24 25 20 20 21 19 23 16
41 40 43 43 43 43 45 47 50 51 50 47 41 39 48 49 39 36 32 27 27 29 28 26 21 29 26 23 26 24 25 33 34 32 31 30 22 21 19 19 21 22 19 20 20 18 15
40 43 42 43 43 45 46 47 49 50 49 48 42 35 40 38 39 36 31 28 25 27 30 31 28 28 27 27 28 28 29 32 33 35 31 31 24 22 22 24 22 20 18 20 18 17 14
42 42 43 43 44 45 45 46 49 50 49 47 39 33 37 37 37 34 30 26 23 28 30 29 26 25 25 25 28 27 31 29 29 34 32 31 25 28 28 26 24 22 21 18 17 16 14
42 43 44 44 45 46 45 46 48 50 49 45 46 42 37 38 37 32 31 26 24 30 36 30 27 27 28 33 37 36 35 32 31 33 33 32 28 26 18 23 23 21 24 21 18 17 18
42 43 44 44 46 46 44 45 48 50 49 44 46 41 38 37 36 30 28 27 26 32 31 34 33 31 39 38 36 35 34 32 32 34 34 33 30 31 23 22 12 11 18 17 19 18 16
42 43 43 45 45 44 43 43 48 49 49 49 52 44 37 37 33 28 26 27 27 35 34 36 39 39 39 36 33 32 32 33 31 29 27 29 28 27 26 16 13 11 10 15 16 13 17
43 43 44 45 45 46 46 46 49 49 49 51 55 50 39 38 32 27 26 26 31 36 40 40 41 40 38 38 37 29 26 24 28 32 29 28 29 24 24 23 18 22 21 24 24 16 21
43 43 43 45 45 46 46 48 48 48 49 50 54 54 37 30 29 29 26 28 31 32 34 40 40 39 39 40 35 34 29 27 25 27 32 33 33 29 27 27 25 22 22 27 18 24 27
44 43 44 44 46 47 48 48 48 49 50 50 54 54 44 40 41 42 35 31 35 33 40 39 38 39 37 35 38 35 36 29 28 25 30 28 32 30 32 31 21 23 26 22 30 26 26
42 43 47 47 48 48 48 48 48 49 49 50 52 52 51 44 46 49 49 48 46 43 37 40 35 38 38 35 41 42 36 34 34 26 29 27 29 29 27 26 27 25 24 27 29 30 30

GFSGBSN_sfc_30mbdewp_036.txt.gz
Dewpoint
52 53 54 55 59 58 57 57 56 56 55 55 55 54 54 54 54 53 52 51 52 51 52 52 51 50 49 42 34 48 54 51 40 30 30 24 20 13 11 12 11 11 14 16 32 32 32
50 49 52 54 55 59 58 57 57 56 55 55 55 54 54 54 54 53 52 52 52 52 52 52 50 50 48 32 27 38 40 43 26 26 28 22 14 13 13 12 9 14 18 28 30 25 29
48 51 52 53 54 55 59 58 57 56 56 55 54 54 53 53 54 54 52 52 52 52 52 51 50 48 42 31 32 36 34 29 25 27 22 22 18 19 19 21 18 18 15 22 22 25 30
48 49 51 52 54 54 57 58 57 56 56 55 54 54 53 53 54 54 53 52 52 52 51 50 50 48 39 35 33 31 32 33 31 26 24 26 26 24 24 26 20 17 16 17 21 19 28
48 48 49 52 53 54 54 57 57 56 56 55 54 53 53 52 54 53 53 52 52 51 50 50 49 48 39 34 29 27 27 27 30 30 28 27 28 26 24 23 18 14 13 11 17 16 24
47 48 48 50 52 54 54 56 57 56 55 55 54 53 52 52 53 53 52 52 51 50 50 48 46 42 43 30 24 26 26 25 29 29 29 28 27 25 23 20 19 16 15 16 11 11 15
47 46 48 49 51 53 53 53 57 56 55 54 53 53 52 53 53 53 51 48 46 47 46 34 34 32 26 25 25 24 22 24 28 29 27 28 24 21 21 21 22 19 17 12 11 12 12
48 47 47 46 50 50 52 52 53 56 55 54 53 52 52 53 53 52 51 45 41 45 42 41 26 32 30 30 23 20 20 22 25 25 33 28 19 28 27 22 21 18 15 18 12 12 11
47 48 48 47 47 49 50 52 51 56 56 54 53 52 52 52 53 51 46 40 43 44 40 34 29 26 27 26 22 18 18 20 26 28 28 29 26 29 22 17 18 13 12 18 16 13 10
45 47 48 47 47 47 49 51 51 53 55 54 53 52 52 53 49 46 44 43 42 45 36 28 26 25 27 23 20 18 18 17 32 28 29 33 29 26 20 17 14 13 23 20 16 15 13
43 46 47 47 47 47 48 50 51 51 55 54 52 52 52 51 50 43 46 41 50 52 29 23 24 24 22 21 19 18 21 19 20 21 23 32 33 27 16 21 24 21 23 22 15 14 21
43 43 45 47 47 47 48 49 51 50 54 54 52 52 52 51 49 49 50 55 50 40 25 19 20 22 20 21 17 17 18 21 23 21 20 28 34 35 27 25 24 26 23 20 19 17 22
43 43 44 46 47 47 47 49 51 51 54 54 52 52 52 48 44 45 48 53 37 26 19 19 18 21 19 18 17 16 20 15 16 19 17 17 21 26 26 26 22 19 17 18 24 26 17
41 43 44 46 47 47 47 49 51 51 53 54 51 52 51 48 49 51 54 48 29 21 23 15 16 18 16 17 16 16 15 13 14 15 16 15 22 22 23 20 29 29 13 18 21 27 22
40 42 44 46 46 47 47 48 50 51 53 53 51 50 48 50 52 53 49 40 29 25 20 18 16 16 15 15 15 15 14 14 14 13 16 27 26 28 25 21 21 17 17 20 21 27 20
38 41 42 43 45 46 47 48 50 50 53 52 49 46 45 50 53 51 46 38 31 27 23 18 15 16 14 14 16 16 14 15 12 14 30 34 31 32 25 24 23 22 21 20 16 13 14
39 42 40 40 44 45 46 48 49 50 52 51 47 41 43 51 53 47 40 36 35 28 24 22 16 15 15 15 17 15 15 16 19 22 24 29 32 26 25 22 13 23 20 18 15 21 19
41 40 40 40 40 44 45 46 49 51 52 50 45 36 47 53 43 36 39 35 33 30 24 25 22 16 16 18 17 14 15 20 22 23 23 21 21 20 22 23 24 22 23 20 22 16 19
40 39 38 40 41 43 45 45 48 50 51 48 40 40 52 50 34 35 38 36 31 29 26 26 23 22 19 18 18 17 17 34 31 27 26 28 22 18 17 23 25 22 18 17 21 25 22
39 38 39 40 41 41 45 45 48 50 51 49 39 39 49 49 35 34 37 33 30 30 24 26 25 22 22 19 21 20 20 33 34 32 30 32 23 16 19 18 22 22 22 17 18 23 21
38 39 39 41 41 39 43 44 46 50 51 50 42 37 43 41 42 35 37 32 29 27 26 26 24 20 25 21 20 24 22 33 33 34 30 30 19 18 17 20 23 23 20 18 16 19 19
38 40 40 41 40 44 44 44 46 50 50 46 40 37 41 38 39 37 37 34 27 25 25 28 24 22 26 24 25 24 25 32 28 34 30 31 27 27 26 26 24 23 20 21 19 16 15
40 41 42 42 43 44 43 43 46 47 50 44 43 45 40 38 38 36 37 35 31 27 27 28 27 26 25 29 35 36 35 33 29 34 32 31 32 29 26 25 22 17 22 23 21 18 17
41 41 43 43 43 43 43 43 43 46 49 46 43 44 40 37 36 36 37 34 28 27 31 30 29 28 37 37 37 35 34 34 34 34 34 33 33 32 26 24 13 14 18 15 17 15 14
42 41 42 42 42 43 44 45 45 44 45 48 49 49 43 39 36 35 37 33 28 27 33 33 39 40 39 37 36 34 34 28 30 30 30 32 33 31 26 21 17 17 13 15 15 15 18
41 41 42 43 43 44 45 46 45 44 45 49 49 53 51 41 38 34 31 31 30 38 40 40 41 41 39 39 36 30 28 27 25 29 27 27 31 27 27 24 16 24 21 22 21 18 24
41 42 43 44 45 45 44 44 45 46 44 48 49 52 54 43 39 36 30 32 37 41 41 41 41 40 42 44 37 31 27 27 28 30 32 33 33 29 29 28 28 23 23 25 20 28 27
41 42 43 44 45 45 44 44 44 44 46 49 47 50 53 47 37 38 32 30 34 40 41 41 39 39 40 36 36 36 36 31 26 26 33 32 34 32 34 33 24 23 25 23 32 29 29
42 43 44 45 45 45 46 46 46 46 48 49 45 50 52 53 47 50 49 48 46 46 43 43 38 38 40 37 38 40 38 36 36 27 27 27 31 33 32 31 30 24 25 26 29 29 31

GFSGBSN_sfc_30mbdewp_039.txt.gz
Dewpoint
51 52 53 53 54 54 59 58 57 56 56 55 55 55 54 54 54 54 54 53 52 52 52 52 53 51 49 45 41 42 51 51 41 33 28 29 28 25 15 12 12 13 11 33 41 42 41
49 50 51 51 53 54 54 59 58 57 56 55 55 55 54 54 54 54 54 53 52 52 52 53 52 51 48 35 33 50 47 42 35 29 29 30 26 19 14 14 19 13 13 29 38 39 39
48 49 50 52 52 53 54 55 59 57 56 56 55 54 54 53 53 53 54 54 52 52 53 53 51 49 46 31 34 30 39 34 29 25 26 30 25 24 25 23 26 23 17 28 32 37 36
49 49 49 50 52 52 54 54 55 58 57 56 55 54 54 53 52 53 53 53 52 52 53 51 51 48 40 41 38 35 32 32 27 26 28 26 29 27 24 25 26 18 18 19 20 35 37
48 49 49 49 50 52 53 53 54 57 57 56 55 54 53 52 52 53 53 53 52 53 52 51 49 48 44 43 35 32 30 30 32 30 29 26 29 27 27 23 23 19 14 15 19 32 33
46 48 48 49 49 51 52 54 53 56 57 57 55 54 53 52 52 53 52 52 52 51 50 49 47 43 43 33 33 28 28 27 28 30 29 28 28 27 26 25 18 18 16 16 17 29 30
45 46 48 48 49 50 52 54 53 54 56 56 55 54 53 52 53 53 51 50 46 47 46 42 38 35 29 31 29 26 25 22 27 29 28 35 27 26 27 25 23 23 22 19 18 17 28
44 45 48 48 47 49 51 52 53 52 55 56 56 54 53 52 52 52 51 47 44 43 43 45 43 38 32 33 28 25 24 21 26 31 35 32 30 30 28 25 24 26 25 18 18 13 22
46 46 48 47 47 47 47 51 51 51 52 56 56 54 52 52 52 51 48 44 43 44 43 40 40 41 28 29 27 25 22 22 31 31 31 30 30 30 26 25 23 24 21 19 18 14 11
46 45 44 47 48 47 47 48 50 52 51 55 55 53 52 52 48 49 48 47 47 45 40 34 35 31 25 27 25 26 23 20 28 27 32 30 32 32 29 26 21 19 21 22 23 19 13
43 46 45 45 46 47 47 47 49 52 51 54 55 53 52 50 49 48 47 52 45 48 28 28 28 27 25 25 23 22 23 19 26 29 30 28 29 30 28 27 24 22 24 23 23 20 20
44 44 46 44 46 47 47 47 48 50 51 53 55 53 52 51 51 48 48 48 53 42 29 26 27 22 23 23 22 21 19 20 23 27 29 29 34 34 28 27 25 25 24 24 29 25 19
43 43 43 46 44 47 47 46 47 50 50 51 54 53 51 50 46 50 50 49 41 35 25 21 21 22 22 21 20 20 17 18 19 20 24 26 25 29 33 26 26 27 22 21 19 21 21
41 41 41 43 46 45 45 47 46 49 50 51 54 52 51 49 50 51 52 47 36 27 27 22 22 22 21 21 20 18 19 18 20 18 21 20 25 27 28 29 28 23 25 23 17 21 23
40 40 40 42 42 45 45 46 46 48 50 51 53 51 49 49 50 51 50 39 32 31 22 23 18 20 19 19 19 17 16 15 16 15 14 24 25 34 31 33 26 22 21 25 27 31 26
40 40 40 41 42 44 46 45 46 47 50 52 50 49 48 49 52 49 45 37 37 32 31 27 19 17 17 17 17 17 17 16 18 16 26 31 24 32 30 32 26 23 23 21 22 16 17
40 39 39 39 41 42 45 46 46 48 50 52 49 45 46 49 52 46 38 37 39 36 33 28 20 17 17 18 17 15 17 17 17 28 31 33 27 30 33 30 23 23 21 20 20 23 18
39 38 39 39 40 42 44 46 46 48 50 51 47 40 47 51 42 41 38 38 39 35 37 35 25 24 19 18 19 16 17 27 20 26 25 30 30 29 28 31 25 23 26 27 19 17 22
38 38 38 39 40 42 44 45 47 46 49 47 43 41 49 48 31 36 35 38 39 37 35 32 26 26 24 20 22 21 28 35 33 29 26 30 24 23 20 25 27 22 22 20 24 27 21
38 37 38 39 38 43 42 43 46 45 48 47 44 38 46 47 32 35 33 32 37 39 37 34 28 28 25 23 22 22 31 33 34 33 31 32 26 21 16 17 24 23 25 22 21 20 20
37 36 34 35 41 43 41 42 44 46 47 48 45 37 42 40 40 34 33 31 36 36 36 33 29 26 25 23 21 23 33 33 34 32 31 30 22 20 19 23 25 23 23 24 19 22 18
36 36 34 34 41 39 40 42 41 45 46 45 42 37 43 42 41 40 34 34 34 34 34 30 30 25 25 25 25 23 31 32 31 34 30 31 25 25 25 27 25 22 24 23 22 22 20
37 37 39 40 39 40 41 41 41 45 46 43 42 44 41 41 41 39 33 34 36 35 33 31 28 29 27 30 35 34 35 35 33 31 31 31 30 29 25 24 21 20 21 21 23 24 22
38 39 40 40 40 41 41 41 42 45 45 44 41 43 41 36 41 38 33 32 37 35 34 30 29 30 37 38 37 37 36 37 38 38 35 34 33 30 25 24 17 20 18 17 17 19 19
39 39 39 40 41 41 42 41 42 45 46 45 45 43 46 38 38 37 32 35 37 37 34 34 38 38 40 39 36 32 30 28 31 31 32 37 33 31 23 19 22 19 18 18 17 21 24
39 40 41 41 41 42 42 43 43 46 47 47 44 47 48 43 39 36 31 36 36 38 40 42 43 44 40 39 34 29 26 27 28 26 33 32 35 24 32 20 13 22 20 23 21 23 28
40 42 40 43 43 43 43 43 44 45 45 44 43 46 47 46 43 40 32 34 39 42 42 44 42 41 44 38 32 28 26 29 28 29 27 29 31 25 25 19 24 28 24 25 15 25 30
42 41 42 43 43 44 43 43 45 45 44 43 41 45 48 46 46 43 38 37 42 42 39 44 44 41 42 32 31 33 31 29 30 34 32 28 27 26 33 28 20 24 25 21 32 31 31
41 41 42 42 43 43 44 46 45 44 45 44 40 46 49 46 48 53 50 51 44 45 45 46 42 40 41 38 39 38 35 34 32 27 34 28 33 30 32 30 33 27 30 36 36 36 37

GFSGBSN_sfc_30mbdewp_042.txt.gz
Dewpoint
50 50 52 52 53 53 55 56 59 58 57 56 55 55 54 54 54 53 53 54 54 53 52 53 53 52 48 40 33 45 49 53 41 32 27 24 28 28 22 17 14 12 15 30 42 42 41
50 50 51 51 52 52 54 54 55 59 57 56 55 55 54 54 54 53 53 53 54 53 52 53 53 51 48 19 35 49 43 40 36 32 25 27 28 27 22 20 21 24 25 38 39 39 39
49 50 50 51 52 52 53 53 53 56 58 57 56 55 54 54 53 53 52 53 53 53 53 53 52 49 46 15 37 37 40 34 34 26 20 27 29 27 25 22 26 26 29 37 38 38 31
50 50 50 50 51 52 51 51 54 54 57 58 57 55 54 54 53 52 52 53 53 53 53 53 51 48 33 41 44 41 36 33 31 27 24 28 28 28 24 26 25 22 28 32 35 35 31
47 49 49 50 50 51 51 52 53 53 54 56 57 56 55 53 52 52 52 52 52 53 53 52 49 48 31 44 40 38 35 30 31 28 27 27 29 27 27 25 23 20 15 19 30 32 30
46 47 48 49 49 50 50 52 52 53 54 56 57 56 55 53 52 52 52 52 52 52 50 49 47 40 39 30 36 31 30 30 30 30 29 30 28 26 26 25 21 18 18 17 18 30 32
47 46 47 46 49 49 50 51 53 53 53 55 56 56 55 53 52 52 51 47 45 47 46 38 30 28 32 35 33 31 27 27 30 34 27 35 29 27 28 26 24 25 22 21 24 26 29
48 48 45 46 48 49 49 50 52 53 52 53 56 56 55 53 52 52 50 42 43 41 39 44 43 41 41 39 32 30 25 22 28 29 35 31 28 31 32 27 26 25 24 23 22 21 28
47 47 47 46 48 49 48 48 51 51 51 52 55 56 54 52 52 50 48 44 44 42 40 42 44 43 40 40 30 29 24 28 30 31 30 26 28 31 30 27 24 24 24 23 21 20 16
46 46 47 46 45 48 49 48 48 51 51 51 53 56 53 52 46 47 47 48 49 45 37 32 36 38 33 24 24 29 26 30 30 28 31 29 31 31 29 28 27 22 24 25 21 22 17
45 44 45 46 45 44 48 47 48 49 51 51 52 55 52 50 48 46 48 48 47 48 13 30 37 35 27 25 24 23 26 24 27 30 30 24 29 28 27 27 27 24 24 24 23 23 21
46 45 44 46 47 44 45 47 47 46 50 51 51 54 52 51 50 48 48 50 52 39 20 29 31 24 22 24 25 22 21 22 29 30 30 27 34 31 27 28 27 27 26 27 30 26 18
44 46 44 44 45 46 45 43 47 46 48 50 51 54 51 50 42 51 51 49 39 32 30 26 24 23 22 23 24 22 20 18 17 23 25 26 28 31 31 27 27 26 24 20 18 18 17
41 43 46 42 43 45 46 44 45 46 47 49 51 53 52 49 49 50 51 45 33 31 30 29 25 23 21 22 22 21 18 17 20 21 24 22 21 27 31 29 27 27 24 19 15 16 20
39 41 44 43 43 43 45 46 42 45 47 48 51 51 51 51 50 49 48 37 30 34 26 23 22 22 21 22 21 21 19 17 18 19 17 23 26 33 32 32 29 25 22 26 26 30 24
40 42 46 43 42 42 44 45 44 45 46 48 47 48 48 50 49 46 44 35 36 37 34 30 22 22 20 20 20 20 18 18 18 19 21 26 25 29 31 31 29 26 24 21 24 15 18
41 41 45 43 41 40 42 43 46 42 46 48 46 42 48 51 49 42 36 35 37 35 38 34 29 22 20 19 19 18 18 18 19 21 26 31 24 24 31 25 22 24 21 21 23 22 17
40 41 43 43 42 41 42 43 42 43 45 45 44 37 49 51 40 38 37 37 37 35 37 37 36 30 22 20 18 18 17 18 30 30 25 30 28 22 22 28 31 29 25 24 18 16 23
40 41 42 42 41 40 41 42 41 44 45 43 40 40 49 47 35 32 36 37 36 34 36 36 33 32 26 22 22 24 25 34 32 28 26 31 28 23 23 25 29 27 24 26 28 26 20
39 40 41 42 41 40 41 41 41 44 44 43 39 36 44 45 39 31 32 34 36 35 36 39 38 37 32 24 26 24 29 32 35 31 33 29 26 22 17 19 24 24 25 27 23 20 21
40 41 41 40 39 41 41 41 41 44 46 43 40 34 38 36 38 32 31 33 34 33 37 37 34 35 35 25 23 29 33 33 34 31 32 27 23 22 21 23 25 24 24 25 22 22 19
41 42 40 39 39 40 41 42 43 43 46 41 37 38 40 39 38 36 31 31 30 30 30 29 34 34 32 26 23 27 30 31 26 32 28 31 21 24 21 27 24 23 23 23 23 22 24
41 41 39 39 39 40 39 42 43 44 46 40 41 43 41 35 38 37 35 31 29 29 31 31 34 33 31 29 30 29 32 31 30 27 29 29 27 25 19 24 22 20 21 21 22 24 23
40 39 39 38 38 37 41 43 43 43 46 43 40 42 41 35 39 38 35 33 31 30 27 33 33 34 34 39 37 36 37 39 37 36 35 31 30 28 23 22 20 23 23 22 21 21 22
40 39 37 37 37 38 41 42 43 43 43 44 45 41 43 34 37 40 37 34 31 32 36 30 36 35 40 39 34 32 32 32 33 32 34 35 32 28 24 21 23 22 17 18 18 23 25
38 38 37 37 38 40 40 41 41 42 42 43 43 47 44 41 37 38 39 35 32 35 34 38 43 45 42 38 31 27 28 29 28 26 33 34 33 29 29 21 19 21 22 24 25 23 29
38 38 38 39 40 40 40 41 41 42 41 43 42 46 43 41 44 40 37 36 34 34 38 43 41 41 42 33 30 28 26 29 26 26 25 29 30 28 26 22 17 24 24 26 14 17 30
39 39 39 40 40 40 40 41 42 42 42 43 42 47 42 40 44 47 38 34 34 38 38 42 41 42 40 31 30 31 25 29 29 30 27 25 28 28 28 20 18 30 25 20 26 33 33
39 40 41 42 41 41 41 41 42 42 42 44 40 46 47 42 44 46 47 48 44 40 43 45 39 39 41 35 37 36 34 32 31 29 35 26 25 25 28 25 32 32 31 34 36 36 39

GFSGBSN_sfc_30mbdewp_045.txt.gz
Dewpoint
50 50 51 52 53 54 53 54 55 59 58 57 56 55 55 55 55 54 53 53 53 54 54 53 53 53 48 36 21 41 51 56 47 34 26 22 27 27 23 21 16 13 14 33 35 42 41
50 51 51 51 52 51 51 53 55 55 58 58 57 55 55 55 54 54 53 53 53 53 53 53 53 52 46 18 30 46 43 41 36 32 27 25 28 28 26 22 22 24 36 41 41 40 40
48 50 50 51 51 52 52 53 54 54 54 57 58 56 55 55 54 54 53 52 52 53 53 53 53 49 44 18 42 37 38 35 35 32 21 27 29 27 26 22 26 26 35 38 38 36 32
47 49 50 50 51 51 52 51 51 53 53 55 58 57 56 55 54 53 52 51 52 53 53 53 51 48 32 39 43 44 40 35 35 33 25 27 29 27 27 26 26 21 32 31 36 36 32
48 47 49 49 50 50 51 51 51 52 53 53 55 57 56 55 54 53 51 51 52 53 53 52 48 48 27 40 38 40 38 31 32 30 27 27 29 28 28 25 23 20 21 26 33 35 32
46 48 48 48 49 50 49 50 51 51 52 53 54 56 57 55 53 52 51 51 52 52 50 50 47 36 32 29 35 34 36 32 29 30 29 31 29 27 28 25 20 21 18 22 30 30 33
46 48 47 48 49 49 50 49 50 51 52 53 54 55 57 55 53 52 50 46 41 45 45 36 27 22 25 37 36 32 30 29 32 31 27 35 29 25 27 28 25 25 23 22 23 24 30
47 47 47 48 47 48 48 49 49 51 52 52 52 55 56 55 53 52 50 41 40 42 35 41 41 40 40 41 39 31 27 24 29 27 35 30 27 29 31 30 27 25 22 21 22 23 30
48 46 46 47 48 47 47 48 49 49 50 52 51 54 56 55 52 50 46 43 44 46 33 38 43 42 40 42 37 32 26 28 28 30 31 27 26 31 30 27 25 24 23 22 22 23 27
45 47 46 45 47 47 47 48 50 47 49 51 50 51 56 52 48 47 47 48 48 46 33 30 40 40 40 36 27 30 26 29 30 25 31 28 30 31 29 27 27 23 25 24 24 23 18
41 44 47 47 46 46 46 46 49 49 47 49 51 51 55 51 45 45 48 48 48 47 5 20 37 37 33 24 25 26 26 28 26 29 30 23 28 28 27 26 28 24 26 25 24 23 21
42 41 45 48 46 45 46 46 47 48 48 48 50 51 54 51 50 47 48 51 50 35 7 25 34 33 23 23 25 22 24 25 30 31 30 26 34 30 27 27 28 27 25 26 29 25 19
42 41 43 44 48 45 45 46 45 47 47 47 48 51 52 51 45 50 50 49 40 28 24 27 29 26 21 20 22 23 20 20 23 23 24 26 27 31 33 27 28 26 24 20 17 19 17
43 42 41 41 44 47 45 45 45 45 47 46 47 50 52 51 50 48 50 44 32 30 27 33 26 24 19 22 22 22 20 18 20 23 25 22 19 27 30 28 25 26 24 20 14 15 16
44 43 42 41 44 47 44 45 46 43 46 47 47 49 49 52 51 46 47 37 30 31 32 21 24 21 21 22 21 22 20 18 19 20 18 21 21 32 32 31 28 26 23 25 25 29 23
44 43 42 41 42 44 45 43 45 45 44 46 45 44 45 51 51 45 41 35 34 34 37 34 23 23 19 21 21 21 20 20 18 20 21 24 19 29 31 32 30 27 26 21 24 15 14
45 44 43 41 41 43 45 43 44 46 45 46 42 39 43 51 50 41 33 34 36 36 36 36 33 28 22 21 21 20 20 20 21 21 22 28 21 22 30 27 23 24 23 22 23 21 15
45 44 43 42 40 41 44 44 43 45 44 45 40 33 48 50 41 39 32 36 36 34 37 37 37 36 32 23 21 20 19 19 21 26 21 28 23 18 21 28 30 26 24 22 18 17 24
46 44 43 42 41 43 44 43 43 43 45 43 35 37 49 45 35 35 35 32 36 34 34 35 35 35 33 25 20 21 20 28 34 27 24 30 25 18 19 24 30 25 27 29 27 25 20
46 44 43 41 41 44 44 43 42 42 45 43 36 32 41 43 38 34 33 33 34 36 35 36 38 38 34 29 26 23 26 32 34 31 30 29 28 20 17 18 24 24 25 26 26 22 21
46 44 42 41 42 44 43 42 42 41 42 44 37 31 37 36 37 37 34 33 34 32 36 33 33 36 35 31 25 27 32 33 33 32 32 27 22 24 23 21 24 23 24 27 23 23 20
46 44 42 41 43 44 42 42 42 41 41 41 33 35 38 36 36 35 34 31 32 34 34 33 31 34 30 33 30 26 31 31 29 31 30 29 23 22 22 26 25 24 24 24 25 23 23
45 44 42 42 42 42 42 41 41 41 42 39 37 41 39 35 35 33 31 31 31 33 34 34 33 35 35 35 35 32 33 32 30 29 28 27 25 22 19 24 22 21 23 23 23 24 23
44 43 42 41 42 42 41 40 41 41 40 42 37 41 38 31 35 33 32 33 31 32 30 32 31 30 36 38 37 37 37 37 35 34 32 28 26 25 19 22 16 21 26 23 22 22 22
44 43 42 41 42 41 41 40 41 41 41 40 40 41 40 34 35 35 34 33 32 32 31 30 32 29 35 37 34 33 32 32 30 35 36 33 29 25 21 21 22 23 22 21 18 21 25
42 42 42 41 40 40 40 40 41 42 40 41 43 43 42 39 35 37 36 35 33 31 31 32 34 38 41 37 33 29 29 31 29 28 34 32 32 25 24 22 22 24 24 23 25 19 27
42 42 41 40 40 40 40 41 41 42 42 42 42 45 43 37 41 39 37 36 35 32 31 33 36 41 42 35 31 28 27 31 27 27 27 31 30 29 26 24 24 24 25 25 15 14 28
42 40 40 39 39 38 38 41 43 42 43 42 41 45 41 38 40 44 44 39 38 34 32 40 39 41 38 35 32 29 28 29 28 29 27 28 30 29 26 24 25 26 26 19 22 32 32
40 39 39 38 38 39 41 41 41 42 43 43 39 44 46 40 41 43 43 42 43 43 35 43 38 40 39 36 35 34 28 31 30 25 33 26 29 29 29 28 29 34 29 33 33 32 35

GFSGBSN_sfc_30mbdewp_048.txt.gz
Dewpoint
50 50 51 50 50 51 52 53 54 55 55 58 58 57 56 55 55 55 54 53 52 53 53 53 53 53 48 32 18 39 55 55 48 38 24 25 24 26 23 23 19 15 15 29 36 42 41
49 49 50 50 51 50 49 51 52 53 54 55 58 58 56 55 55 54 54 53 52 52 53 53 53 52 44 17 24 44 47 39 33 30 27 26 28 28 26 25 22 32 39 39 41 40 40
49 49 49 49 50 50 51 51 52 52 53 54 55 57 57 56 55 55 54 53 52 52 53 53 53 49 43 18 44 38 38 35 35 32 24 26 29 27 26 24 26 27 35 38 39 38 36
48 48 48 49 49 50 50 51 51 51 51 53 54 55 57 57 56 54 53 52 51 52 53 53 51 48 30 36 42 42 42 39 36 33 27 24 29 27 27 26 26 26 32 32 37 36 33
48 48 48 47 49 49 49 49 50 51 51 52 53 53 54 56 56 54 53 52 51 52 53 52 48 47 24 36 32 35 40 33 33 32 28 26 29 28 28 25 22 20 20 26 32 35 33
49 47 48 47 47 47 48 49 48 49 50 50 51 53 54 55 56 54 52 51 51 51 51 50 48 38 26 28 35 36 39 34 30 30 29 32 29 27 28 24 19 21 20 20 27 29 33
45 49 47 48 47 48 47 48 48 47 49 51 51 53 54 55 56 53 50 45 37 43 46 39 32 22 21 37 41 32 32 31 33 30 27 34 29 25 26 28 25 24 23 21 24 26 29
45 45 46 48 47 48 48 47 48 49 48 50 51 52 53 56 55 52 50 39 38 43 39 40 40 38 37 40 38 35 29 26 28 25 33 30 28 28 29 31 29 25 23 22 23 24 26
44 44 45 46 48 46 47 48 48 48 48 48 50 51 51 56 53 50 47 41 46 47 38 33 40 40 39 41 35 33 26 27 28 27 31 27 26 31 31 28 25 24 23 22 22 24 27
43 43 42 44 46 48 46 47 47 47 48 45 48 50 50 54 50 47 43 48 48 47 29 27 37 40 42 41 29 36 27 28 30 24 31 29 29 29 30 27 26 23 25 24 23 22 19
44 43 43 43 45 48 47 45 47 46 48 47 46 49 50 53 46 46 47 47 49 46 7 18 38 40 40 27 26 28 27 30 24 27 29 24 28 29 27 27 27 24 26 25 25 23 22
45 44 44 42 42 44 47 45 45 46 47 48 46 48 50 52 50 48 49 50 48 35 10 16 35 34 30 25 25 25 25 29 31 31 31 26 33 30 27 28 28 27 26 26 28 24 19
45 45 44 43 42 43 46 47 45 45 46 48 47 47 50 51 47 49 49 48 38 29 22 23 32 28 23 22 22 22 22 24 22 21 22 26 27 30 32 28 28 26 23 19 17 18 17
44 45 45 44 43 43 44 48 45 45 45 46 47 46 49 50 50 48 47 43 31 30 25 30 27 26 19 22 21 23 20 20 21 24 24 20 18 26 30 27 24 25 23 20 15 15 15
45 44 45 45 44 43 44 46 47 45 45 46 47 45 46 47 51 47 43 35 30 30 32 24 24 23 20 21 22 21 20 19 20 24 18 22 21 30 31 31 27 26 23 25 24 28 24
45 45 45 45 44 43 42 44 46 45 45 45 45 42 41 48 52 46 39 33 33 32 37 36 20 23 20 20 20 21 20 21 19 21 22 22 18 30 30 32 30 26 27 22 23 17 15
45 45 45 45 45 43 42 43 45 46 44 45 43 36 39 49 51 44 34 33 34 36 36 34 35 32 23 21 19 21 20 21 22 21 22 26 19 21 30 26 24 26 24 23 23 20 15
45 45 45 45 45 44 42 42 45 45 44 43 40 31 43 50 39 39 34 34 35 36 36 35 38 36 33 24 21 20 20 19 22 23 19 26 22 16 18 27 29 26 24 23 20 18 24
46 45 45 45 45 44 43 43 44 46 43 41 36 33 47 44 31 32 35 34 34 34 34 35 35 36 36 27 21 22 22 23 26 23 22 27 21 15 16 23 29 27 27 27 26 24 21
46 45 45 46 45 44 42 43 44 45 43 41 36 28 40 41 33 32 32 33 31 35 35 35 36 38 34 31 28 22 22 29 34 27 29 27 25 16 14 15 22 25 25 28 26 23 23
44 45 45 46 45 44 42 43 44 44 45 42 38 28 36 32 33 33 32 32 31 29 34 35 34 35 35 29 28 25 30 33 33 34 31 26 20 24 22 21 23 23 25 26 25 24 22
44 44 45 46 45 44 42 42 43 43 44 40 34 33 37 34 31 33 33 31 31 31 34 31 32 33 34 35 31 27 32 32 29 32 30 29 23 22 22 25 25 24 24 27 25 24 24
44 44 46 46 45 44 42 42 43 42 43 39 39 39 38 32 33 30 30 30 31 32 32 35 32 32 32 33 33 32 33 33 32 31 29 27 25 22 20 25 23 21 23 23 23 25 24
44 44 46 46 45 44 43 43 42 42 42 40 39 37 35 30 33 31 29 32 31 32 30 32 35 33 33 38 37 37 37 36 34 34 33 27 24 23 20 22 18 21 26 25 24 24 24
44 44 44 45 44 43 43 43 41 40 41 38 42 38 36 30 34 33 32 31 32 32 32 32 33 34 33 32 33 33 32 31 32 36 34 33 26 23 20 20 21 21 22 22 20 18 24
43 44 46 44 44 43 44 43 41 42 41 38 40 42 40 37 31 34 34 32 30 31 32 33 34 34 35 34 29 26 30 29 28 30 33 31 29 23 23 19 17 20 24 24 22 17 26
42 45 45 44 44 43 44 42 41 42 42 38 37 43 41 36 39 37 34 32 33 32 31 32 33 36 38 30 31 27 28 32 27 27 30 30 28 22 22 21 24 27 24 24 17 17 27
45 44 44 43 43 42 42 41 40 41 42 39 36 41 41 37 39 43 42 36 35 33 31 34 32 36 39 32 32 32 29 30 29 29 30 29 28 28 26 25 25 26 25 20 22 27 29
43 43 42 43 42 42 41 41 41 41 41 40 35 39 41 41 40 42 41 41 40 39 34 38 33 37 35 37 35 32 29 30 29 27 31 28 30 28 29 27 30 29 26 28 29 30 32

GFSGBSN_sfc_30mbdewp_051.txt.gz
Dewpoint
50 48 49 48 49 49 49 48 50 52 53 53 54 56 58 57 56 56 55 54 53 52 52 53 53 53 47 27 19 44 58 55 47 39 24 23 22 25 23 24 21 17 17 27 31 40 42
48 49 50 47 47 48 49 50 50 52 52 52 53 54 57 58 57 56 55 54 53 52 52 53 53 52 41 15 29 47 49 41 36 30 25 26 27 28 26 26 22 24 39 39 41 41 41
48 48 48 50 47 47 48 49 49 50 51 51 52 54 55 56 57 57 56 54 53 52 52 53 53 49 41 21 41 39 38 35 33 30 24 25 28 28 27 25 26 28 35 38 39 38 36
50 48 48 49 49 48 48 47 49 48 50 51 51 52 53 54 55 56 56 54 53 52 52 53 52 48 29 35 41 42 42 39 37 33 25 25 30 28 27 28 26 28 31 30 36 37 34
46 48 50 48 48 48 48 47 48 48 49 50 51 50 52 53 53 55 56 54 52 52 53 52 48 46 24 32 27 32 38 33 35 34 31 27 29 29 29 26 23 22 21 26 32 36 32
43 45 47 49 48 48 47 48 48 47 48 48 49 50 51 53 53 55 54 52 51 51 51 51 47 37 32 23 34 37 41 34 31 30 29 32 30 27 29 25 19 21 20 21 24 31 34
41 42 44 47 48 48 45 47 48 47 48 48 48 50 51 53 53 55 51 47 36 41 47 39 36 30 18 33 41 35 35 33 32 30 28 34 29 25 26 27 25 24 23 20 22 28 26
44 44 45 45 46 47 49 44 48 47 46 47 47 48 51 51 55 53 50 45 38 44 40 42 41 39 37 39 37 37 32 28 28 24 32 30 28 29 29 30 28 26 24 23 24 25 26
46 45 45 44 44 44 47 48 47 47 46 46 46 47 48 50 54 51 49 46 46 48 42 38 40 39 38 38 34 34 29 28 26 26 30 27 26 31 30 29 27 25 24 22 22 25 27
46 46 45 45 44 43 45 48 47 46 47 45 45 44 48 50 50 48 46 48 49 48 33 25 34 38 41 39 31 37 28 29 30 24 30 29 30 29 30 28 27 24 25 25 23 22 19
44 46 46 45 44 44 43 45 48 46 46 45 46 44 48 51 47 45 46 49 49 46 14 21 38 41 42 31 27 32 28 29 25 27 28 24 28 29 28 28 28 24 26 26 25 24 23
45 44 45 46 45 44 43 44 47 48 45 46 45 46 46 49 50 49 50 50 48 36 18 15 36 36 36 32 25 27 26 31 31 30 31 26 32 30 28 28 28 28 27 26 27 25 21
45 45 45 45 45 45 44 43 45 46 46 46 45 47 46 49 45 49 50 47 37 30 26 18 33 32 28 25 23 25 24 26 24 23 25 27 28 31 31 28 28 27 24 20 19 21 19
46 45 45 45 45 45 45 44 44 45 46 46 45 47 46 46 50 48 48 41 30 29 26 28 27 28 23 23 23 22 23 23 24 21 22 19 16 27 31 28 25 26 24 20 16 16 17
46 46 45 45 45 45 45 44 43 45 46 45 45 46 45 46 49 50 44 34 27 31 31 26 24 24 23 21 22 22 22 23 23 25 18 22 20 27 31 31 27 26 24 26 24 28 24
46 46 46 45 45 45 45 45 44 45 47 45 42 43 41 45 49 47 40 32 34 32 35 36 26 24 22 19 21 21 21 22 21 25 24 24 18 29 30 32 31 27 28 23 24 18 17
45 45 46 46 45 45 45 45 44 45 46 45 41 37 38 45 48 42 32 30 33 35 36 33 35 34 25 21 21 22 21 21 21 22 23 25 20 22 30 28 26 27 25 25 24 22 17
42 43 44 46 46 45 45 45 44 45 45 45 39 30 40 45 36 35 31 33 33 33 36 35 37 37 34 25 21 21 20 20 23 23 21 26 22 18 21 27 28 27 26 25 22 20 24
42 42 42 44 46 46 45 46 44 45 45 42 35 35 42 41 29 30 32 32 33 34 34 35 34 36 37 32 21 22 22 24 25 23 22 27 21 16 16 23 30 27 26 26 26 25 22
42 43 42 43 45 46 46 46 44 44 44 42 36 30 38 38 32 27 30 31 32 33 33 35 36 37 34 31 30 24 24 26 27 24 27 25 23 18 16 16 22 25 26 28 25 23 23
42 43 43 42 44 46 46 46 44 44 44 41 37 31 35 30 31 28 29 29 30 30 32 35 35 33 34 28 28 26 29 32 34 34 29 24 19 22 19 18 22 21 23 28 26 25 23
42 42 43 43 43 46 47 45 44 43 44 38 33 31 32 32 31 30 29 28 29 30 29 30 31 34 33 31 31 29 31 30 30 34 30 29 21 24 21 24 23 21 24 26 27 25 25
42 42 43 43 44 45 47 45 44 44 44 38 39 36 30 32 31 28 28 28 30 32 30 31 32 32 33 34 33 35 35 34 32 31 31 28 25 23 20 25 23 22 24 25 26 27 26
43 43 43 43 44 46 46 45 44 44 44 40 39 36 32 27 32 29 26 30 30 31 29 32 33 30 32 36 37 37 36 36 36 35 33 29 26 25 21 23 19 22 26 25 24 24 25
44 42 43 44 44 46 45 44 44 43 42 41 39 36 33 26 31 31 29 27 31 33 31 30 35 35 35 32 33 28 27 32 33 35 34 31 27 23 21 21 22 21 22 23 21 19 23
40 41 43 43 44 46 44 44 44 43 42 42 39 41 37 28 30 33 31 29 29 31 32 33 35 36 36 33 28 27 22 29 29 31 33 31 29 26 23 20 19 22 23 25 22 18 23
42 43 43 44 45 45 44 43 43 43 43 40 41 42 38 35 38 36 32 31 31 32 31 33 32 33 34 30 29 26 25 32 31 29 31 28 27 24 23 21 22 25 25 24 19 21 24
44 43 42 44 45 44 44 43 43 43 42 39 40 43 38 37 36 40 41 34 33 32 29 33 33 33 36 29 29 30 29 30 30 32 31 28 26 24 24 22 21 28 24 21 26 26 28
43 43 45 45 44 44 43 42 43 42 42 39 37 42 41 37 39 43 43 42 39 34 32 35 30 32 34 31 31 30 30 31 31 27 31 29 29 26 26 25 32 28 27 28 28 27 30

GFSGBSN_sfc_30mbdewp_054.txt.gz
Dewpoint
48 49 49 49 49 48 49 50 49 49 50 51 51 52 54 56 58 57 56 55 55 54 53 52 53 54 46 29 18 39 56 57 46 37 24 18 17 21 20 21 23 21 21 30 27 33 35
51 48 49 48 48 48 47 49 50 48 49 51 51 51 53 55 56 56 57 56 55 54 53 53 53 53 41 24 25 45 46 42 33 31 21 21 25 27 25 23 23 24 32 38 36 37 40
46 49 51 49 47 48 48 48 48 48 47 49 50 51 52 54 54 54 56 56 55 55 54 53 53 48 41 30 33 42 38 33 33 27 20 23 27 28 27 23 27 25 31 36 37 38 37
45 46 47 51 49 48 47 48 47 47 48 48 49 50 49 49 51 53 54 55 55 54 53 53 53 47 34 33 33 38 37 35 36 33 26 27 29 29 28 28 25 24 31 20 35 37 34
43 44 45 47 49 50 48 47 46 47 47 48 48 48 49 49 51 53 54 55 55 53 53 53 48 45 30 34 31 28 38 34 36 36 32 26 30 29 29 21 17 22 18 20 27 32 31
44 43 44 45 45 48 50 47 46 46 46 46 47 47 49 49 51 53 55 54 52 51 51 50 47 41 34 21 28 35 32 31 33 33 31 30 30 25 23 19 9 15 17 17 23 27 32
46 45 44 45 45 45 46 50 47 46 46 45 46 46 48 49 51 54 53 49 43 42 47 34 36 33 20 29 40 36 38 34 32 30 25 31 25 21 18 23 23 21 20 16 21 27 25
44 46 46 45 45 45 43 46 50 47 47 46 46 46 47 48 51 54 52 45 44 45 36 38 39 38 38 35 34 35 35 31 30 25 29 29 22 25 28 28 28 25 20 17 22 26 25
43 44 46 46 46 45 44 44 46 48 47 47 45 46 46 45 52 52 48 45 47 45 41 36 39 35 34 37 31 28 31 28 27 25 27 22 25 30 28 27 27 25 21 19 19 23 23
45 44 44 46 47 46 46 45 43 44 48 47 46 45 46 45 47 47 45 47 48 48 33 23 30 33 36 33 31 29 32 26 27 23 23 24 26 28 27 26 25 20 24 24 23 21 16
46 45 45 44 45 46 46 45 44 44 46 48 46 45 45 47 49 47 46 51 50 47 6 21 34 38 37 26 25 29 30 29 23 25 27 23 27 28 26 26 27 22 27 25 24 21 21
46 46 46 45 45 45 46 46 45 44 45 46 47 45 46 45 48 48 49 52 48 32 15 16 35 36 35 32 26 28 27 30 26 25 27 22 29 28 25 28 28 28 27 26 26 23 18
47 46 46 46 46 45 46 46 45 44 44 47 48 45 46 43 41 47 51 48 32 18 18 11 30 33 29 26 24 25 24 26 22 20 21 23 24 27 29 25 29 27 24 20 20 19 18
47 47 47 46 46 46 46 46 45 45 45 46 47 45 45 44 44 51 48 42 18 8 13 25 28 31 26 22 22 24 21 22 23 20 17 19 17 23 27 24 23 25 23 21 17 18 17
47 47 47 47 47 46 46 46 46 45 45 46 45 46 44 46 44 50 45 31 12 16 21 22 24 30 28 21 20 23 21 19 23 23 16 17 15 24 28 29 26 26 23 25 24 28 23
47 46 46 47 47 46 46 46 46 45 45 45 43 42 41 46 46 45 39 28 18 19 27 30 15 26 27 21 22 21 22 22 21 23 19 21 16 26 30 31 30 27 26 22 23 19 17
46 46 46 46 46 46 46 46 46 46 45 45 41 36 38 46 44 39 31 27 21 28 31 31 28 25 25 21 19 21 21 23 24 24 21 21 19 26 30 28 23 27 25 25 23 22 17
42 47 47 46 46 46 46 46 46 46 45 44 38 32 40 43 34 34 31 29 22 25 34 35 35 34 33 25 20 17 19 19 23 23 23 22 21 19 21 27 29 26 24 25 22 22 24
41 41 41 44 43 44 46 46 46 46 45 42 35 36 42 39 28 28 31 27 26 26 30 32 33 34 37 34 24 22 22 24 24 24 22 26 21 18 19 24 28 23 24 23 24 26 19
41 41 41 42 42 43 44 46 47 46 46 41 35 30 37 39 26 26 27 28 24 28 25 33 32 35 34 32 33 28 23 28 28 24 28 27 19 18 16 15 17 22 23 23 24 21 18
42 42 42 42 42 42 43 45 47 46 46 40 36 32 34 29 29 23 26 23 23 24 29 31 32 32 32 30 28 29 29 31 32 31 26 26 20 20 17 16 14 15 15 20 21 21 18
43 43 42 42 42 42 43 44 46 46 46 39 32 31 34 29 30 26 25 26 23 24 24 29 27 31 32 29 28 32 31 30 29 35 29 29 21 24 21 20 19 16 17 17 20 19 22
44 44 43 42 42 43 43 43 44 46 45 38 37 33 30 27 28 27 25 25 25 25 23 23 29 29 31 31 32 33 35 34 31 32 33 31 24 23 19 23 22 23 24 21 21 25 24
43 43 43 43 42 43 43 43 44 46 44 39 36 35 31 24 27 27 24 22 22 24 26 25 26 30 32 37 36 37 36 34 34 34 34 32 30 28 21 25 22 20 26 23 22 23 24
42 42 42 44 42 43 43 43 45 45 44 40 37 34 29 26 26 27 25 23 22 24 27 25 29 29 36 30 26 24 28 30 28 32 36 35 31 28 27 23 21 23 24 25 24 22 24
42 42 44 43 42 43 43 43 46 45 44 41 38 37 34 27 25 26 28 24 23 24 27 27 30 38 35 35 31 23 10 17 24 32 34 34 34 31 27 23 22 21 24 27 26 21 23
43 43 43 43 43 43 43 44 45 44 44 42 40 40 36 28 24 27 31 27 25 24 29 29 34 35 36 34 32 27 21 25 22 27 32 32 32 30 29 27 26 27 26 26 21 21 26
43 43 43 43 43 43 43 45 44 44 43 41 41 42 37 31 30 31 32 31 27 27 29 29 32 34 34 31 30 30 30 29 28 27 32 30 30 30 30 29 26 28 26 22 25 32 30
43 43 43 43 43 43 45 44 44 44 42 41 39 43 42 37 38 41 41 42 42 29 29 33 26 24 33 28 30 26 35 36 27 26 33 30 31 30 29 27 32 30 27 29 33 29 32

GFSGBSN_sfc_30mbdewp_057.txt.gz
Dewpoint
50 51 49 49 49 49 49 48 50 50 49 49 50 50 50 52 54 56 56 56 57 56 55 55 54 53 47 33 26 42 52 54 38 34 27 18 18 19 17 16 18 17 15 18 24 23 27
47 48 49 51 49 48 47 49 48 49 48 48 49 50 50 51 53 55 55 55 56 56 55 55 54 53 42 29 23 30 41 44 35 32 24 17 14 19 22 19 18 20 20 25 28 24 29
45 46 47 48 51 50 48 47 48 47 46 47 47 49 50 50 50 52 52 53 54 55 55 55 54 49 38 32 29 30 38 34 32 27 19 17 25 25 24 21 21 21 21 27 32 28 29
44 45 45 47 47 49 51 48 47 47 46 47 47 47 48 49 48 49 51 53 54 55 55 53 53 45 37 31 29 32 34 32 30 26 24 23 26 28 25 23 21 19 20 21 39 39 29
45 44 44 45 46 47 48 49 49 47 46 46 46 46 47 48 48 49 52 52 54 55 53 52 49 44 32 34 28 26 32 32 31 29 29 26 27 26 24 19 15 16 16 23 30 32 29
44 47 46 46 46 46 46 46 49 50 47 45 46 46 47 47 48 50 52 53 53 52 51 49 45 39 35 25 21 19 26 34 31 30 28 28 26 24 21 15 11 10 17 17 26 32 24
42 44 45 48 47 46 46 45 45 48 49 46 46 45 46 47 48 50 52 46 44 45 44 30 29 23 23 24 32 24 24 34 30 30 25 26 22 18 15 17 18 17 16 15 28 33 26
44 44 43 44 46 47 45 45 44 47 49 48 46 46 46 47 47 49 53 38 35 44 30 31 34 32 33 33 30 23 31 29 28 25 24 24 22 20 22 23 20 17 16 14 16 21 22
45 44 44 44 44 44 47 46 46 45 47 48 48 46 46 46 45 47 46 39 44 46 35 23 25 27 28 30 30 24 30 27 26 25 22 22 21 23 24 22 21 20 18 16 16 22 22
46 46 46 46 45 45 45 47 46 46 45 47 48 47 46 46 43 40 40 42 42 48 28 10 29 30 29 28 28 26 27 26 24 23 22 22 21 24 23 23 22 19 20 19 21 18 14
46 46 47 46 46 46 45 46 47 46 45 44 47 48 46 46 43 41 39 44 49 48 2 14 24 33 29 27 16 23 26 25 22 22 22 19 20 24 23 22 23 20 25 21 20 18 18
47 47 47 47 47 46 46 46 46 47 46 45 47 47 46 45 43 44 48 49 49 28 4 12 30 31 32 28 18 19 23 24 22 22 21 20 22 23 22 24 25 23 24 23 23 21 17
46 47 47 47 47 47 47 46 46 46 46 45 46 46 46 42 40 41 47 49 25 9 6 6 23 29 29 27 23 22 22 20 18 19 19 20 22 23 25 23 25 25 21 20 22 17 16
47 47 47 47 47 47 47 46 46 46 46 45 46 47 46 44 42 44 47 40 14 5 6 19 18 28 26 24 23 23 22 19 21 20 19 17 15 21 24 21 21 24 21 21 20 20 19
47 47 47 47 47 47 47 47 46 46 46 46 46 42 44 45 44 45 40 31 18 8 2 6 19 25 25 22 22 21 20 18 20 20 17 15 15 18 20 21 19 20 22 22 22 25 22
47 47 47 47 47 47 47 47 47 46 46 45 41 38 37 45 45 42 35 31 22 12 5 12 8 22 21 21 18 19 20 19 19 19 19 17 15 17 20 22 23 23 26 22 22 22 20
47 47 47 47 47 47 47 47 47 46 46 45 41 37 35 41 45 39 29 28 28 16 9 6 13 12 20 23 18 19 20 19 20 19 20 18 18 19 25 24 21 24 24 23 22 21 23
46 47 47 47 47 47 47 47 47 47 46 45 40 32 36 44 34 35 29 28 28 25 21 15 22 25 9 21 21 19 19 19 23 21 21 20 19 20 22 20 21 25 23 23 21 22 24
46 45 44 43 46 47 47 47 47 47 46 43 36 35 39 41 29 31 27 25 20 25 20 18 24 26 27 26 24 21 20 23 23 23 21 21 18 17 18 22 24 21 25 24 24 24 27
42 42 42 43 43 44 47 47 47 47 47 43 36 30 37 40 33 28 23 20 18 27 26 21 25 24 24 26 29 25 21 27 27 25 26 26 19 19 18 17 19 19 21 22 22 23 22
42 42 42 42 42 42 43 48 47 47 47 43 36 32 35 29 32 29 24 18 15 19 26 26 23 24 24 24 26 29 27 29 30 28 27 25 20 19 18 17 16 15 18 19 19 19 19
42 42 42 42 42 42 43 43 46 46 47 41 32 29 32 29 32 28 25 19 14 17 17 23 26 27 23 21 25 27 29 29 27 29 27 25 23 21 17 18 16 14 13 13 14 15 16
43 43 43 43 43 42 42 42 42 43 47 40 38 31 29 27 31 28 26 21 16 17 17 17 22 24 25 24 33 35 35 34 32 31 28 26 25 21 21 19 17 18 16 15 15 16 16
44 44 44 44 43 43 43 42 42 42 45 40 39 30 32 25 32 27 24 21 17 15 17 18 19 23 29 33 35 33 35 31 35 32 31 31 28 25 24 25 22 21 20 20 18 18 17
43 43 45 45 45 44 43 43 42 43 43 42 38 32 30 28 28 24 22 22 19 19 22 18 21 22 34 33 29 25 23 28 27 32 30 32 32 28 27 24 21 18 22 22 19 18 18
43 43 42 43 44 44 43 43 42 43 43 43 39 35 32 28 24 23 23 22 20 21 21 24 22 27 32 32 27 17 7 10 12 26 30 30 32 33 30 25 20 21 22 23 22 21 22
42 43 42 42 43 43 43 43 42 43 43 43 41 39 34 28 25 26 28 24 23 21 22 24 23 31 34 32 28 21 12 8 8 16 32 34 34 34 32 27 23 22 22 22 23 23 22
43 43 42 43 43 43 43 42 43 43 44 43 41 40 35 30 28 28 29 31 25 23 23 25 25 30 33 32 28 22 20 18 18 21 28 33 31 34 33 29 27 29 27 23 26 27 26
43 43 44 43 42 43 42 42 43 44 44 44 40 40 39 36 36 39 42 43 38 28 23 27 28 29 29 27 26 25 25 28 23 22 20 27 31 31 29 28 31 32 29 29 28 27 30

GFSGBSN_sfc_30mbdewp_060.txt.gz
Dewpoint
47 47 48 50 51 50 48 49 49 47 49 48 47 49 50 50 49 52 55 55 55 55 56 56 56 55 49 36 33 47 50 47 36 32 29 22 17 17 18 17 15 15 16 13 16 20 18
46 47 47 48 49 49 51 49 49 48 47 46 47 47 49 50 50 49 53 53 53 53 55 56 56 55 48 36 33 34 37 45 34 31 28 23 17 15 16 17 18 17 17 17 31 33 32
45 45 46 47 49 48 49 51 50 48 47 46 45 46 46 48 50 49 49 51 52 52 54 56 55 52 45 40 34 30 31 38 34 31 26 21 18 15 23 21 21 19 17 20 31 30 32
46 45 45 46 47 47 49 49 50 50 48 47 45 46 45 46 47 49 48 49 51 53 54 56 54 49 38 34 34 32 31 31 31 28 24 21 18 23 23 25 22 19 17 17 33 30 28
44 46 48 47 47 47 48 48 49 49 49 49 46 45 45 45 46 48 48 50 52 52 55 55 50 47 32 32 34 31 27 27 28 26 23 23 24 25 24 22 19 15 14 15 30 34 34
43 44 45 46 48 47 47 48 47 48 49 49 49 46 46 45 46 47 48 49 49 53 52 50 46 37 35 22 25 28 25 27 28 27 24 25 24 22 22 20 14 13 12 16 22 32 33
42 43 44 45 46 46 48 47 47 46 48 48 49 48 46 46 46 47 46 46 42 48 48 38 30 27 22 28 26 20 22 25 30 27 23 24 22 19 19 19 18 18 16 15 26 26 25
44 44 44 44 45 45 44 46 47 47 45 49 49 49 47 46 47 46 44 43 27 42 35 29 36 35 33 30 30 28 18 26 29 24 25 23 23 21 20 19 21 19 12 11 17 25 26
46 46 46 45 45 45 44 44 44 48 47 46 48 48 48 46 47 44 41 42 40 41 36 25 19 16 18 27 29 27 20 25 27 24 24 22 21 24 19 20 20 17 16 14 17 26 23
46 46 47 46 46 46 46 46 46 46 47 47 47 47 48 46 43 40 37 41 41 43 33 10 8 20 15 19 23 28 24 25 24 22 22 22 22 22 22 22 19 20 19 18 16 20 14
47 47 47 47 47 47 47 47 46 46 47 47 47 48 47 46 40 42 45 46 42 47 4 4 11 28 25 20 21 23 26 25 24 22 22 22 21 20 22 19 21 20 23 23 21 17 17
47 47 47 48 47 47 47 47 47 46 47 47 47 47 47 46 44 42 44 46 48 32 7 8 28 26 25 24 22 22 24 24 25 23 22 21 21 19 19 23 21 22 21 22 22 18 18
47 47 47 47 47 48 47 48 47 46 47 47 47 47 45 43 41 40 48 46 30 15 1 1 23 27 24 25 23 22 22 21 21 20 20 20 19 19 21 20 23 23 21 20 24 22 20
47 47 48 47 47 47 48 48 48 47 47 47 47 47 44 39 44 44 45 40 20 11 11 10 11 23 25 26 25 24 19 19 23 19 20 19 18 18 22 22 21 22 21 21 20 26 26
46 46 47 48 48 47 47 48 48 47 47 47 46 43 42 41 42 45 41 30 21 13 9 9 10 14 23 25 24 24 19 20 20 21 18 19 18 18 22 22 21 19 23 22 22 31 29
46 46 47 47 47 48 47 47 48 48 47 47 44 38 39 40 45 43 35 28 23 17 13 11 6 14 19 24 22 22 20 21 20 21 21 20 18 21 18 21 21 19 18 23 22 24 22
46 46 47 47 47 47 48 48 48 48 47 47 43 37 37 41 45 40 29 27 26 19 18 17 14 9 8 15 21 19 21 22 22 19 20 22 22 19 17 18 17 18 19 25 25 23 21
45 46 46 46 47 47 48 48 48 48 47 46 40 32 39 42 35 35 29 29 26 20 17 21 21 15 14 13 23 27 18 21 22 20 20 22 21 19 19 20 21 20 22 22 24 22 26
45 46 47 47 47 46 47 48 48 47 47 44 36 36 38 40 28 30 31 27 27 24 18 15 20 18 19 19 24 22 27 21 24 22 22 23 21 19 18 22 22 20 22 26 24 23 25
45 44 43 44 47 45 44 46 48 48 48 44 37 31 37 39 32 29 28 27 26 25 21 17 21 19 19 26 29 28 26 23 26 24 25 27 22 21 21 26 22 20 20 24 28 27 26
43 43 43 43 43 44 44 44 48 48 48 44 37 32 33 30 31 29 26 22 23 21 22 20 18 20 20 29 30 30 29 30 26 26 25 26 25 24 21 19 20 20 19 18 17 28 29
42 42 42 42 42 42 43 44 44 48 48 42 32 34 31 27 30 29 27 24 22 21 17 16 18 22 22 28 30 31 33 35 32 27 26 27 24 24 23 20 19 20 21 17 17 17 18
41 42 42 42 42 42 43 43 44 46 47 41 39 36 31 28 30 29 28 26 24 23 19 15 15 22 23 27 33 43 44 40 32 27 28 28 26 25 23 23 20 18 19 17 16 18 17
42 43 43 43 43 43 43 43 43 44 47 40 38 35 34 29 28 31 26 26 24 23 20 16 16 19 22 29 43 41 40 38 37 32 33 31 28 27 26 25 20 22 23 19 17 17 16
44 44 44 44 44 44 43 43 43 43 45 43 41 36 32 32 27 28 27 24 26 25 22 19 17 18 21 37 33 36 35 35 31 33 32 32 32 34 28 25 24 23 22 21 19 19 19
44 44 44 44 44 44 44 44 43 43 42 43 42 40 35 30 29 27 25 25 24 24 23 22 21 23 26 32 34 30 28 23 29 25 34 35 34 33 31 26 23 27 26 22 23 20 22
43 44 43 43 43 44 44 44 43 43 43 42 40 43 39 32 32 28 26 27 26 25 24 24 22 29 36 30 28 26 22 18 13 20 28 33 35 33 32 32 29 26 26 25 21 23 26
43 42 43 43 43 44 45 45 44 43 43 41 39 43 41 35 32 36 35 33 28 26 24 24 24 29 37 33 30 27 25 19 12 11 30 32 31 32 32 32 30 29 25 22 26 28 29
43 42 42 43 43 43 44 44 44 43 43 42 39 42 44 39 38 41 41 42 36 38 32 26 27 34 35 34 27 27 25 23 18 20 16 24 30 31 34 31 33 34 30 32 34 35 34

GFSGBSN_sfc_30mbdewp_063.txt.gz
Dewpoint
47 47 48 48 48 49 50 51 51 49 46 46 46 46 47 49 49 51 50 50 52 53 53 54 55 56 52 44 39 45 46 45 38 32 30 26 23 21 17 19 19 18 18 17 23 27 29
46 46 47 48 47 48 48 49 51 51 50 47 46 45 46 46 48 50 50 50 49 50 52 53 55 56 51 38 40 42 44 43 35 30 29 29 25 21 17 17 21 19 21 18 24 28 30
49 48 47 47 47 48 48 49 50 49 50 50 48 46 45 45 46 47 49 49 49 50 52 53 55 54 49 40 37 37 37 38 42 35 31 30 27 21 18 21 25 25 22 21 24 27 26
44 45 47 49 48 48 48 48 49 49 49 50 50 48 46 45 45 45 47 49 49 49 51 53 55 52 43 41 41 41 38 37 36 38 33 31 26 20 23 24 24 24 21 18 20 29 30
44 44 45 46 46 48 48 48 49 49 49 49 48 49 48 46 46 45 46 48 48 48 51 53 52 49 41 38 36 35 33 32 31 33 31 26 22 23 25 23 23 23 19 17 22 31 31
43 43 45 45 46 46 47 48 49 49 48 49 49 48 49 47 47 46 46 46 46 48 51 52 50 43 44 31 30 32 34 30 28 28 27 23 23 23 23 23 19 20 19 17 23 30 32
42 44 43 45 45 46 44 46 47 49 49 47 49 49 49 49 47 47 46 43 42 47 49 44 42 33 28 29 32 25 30 26 26 28 26 24 22 21 22 22 22 22 19 18 22 29 31
44 45 45 44 45 45 44 44 45 46 48 48 47 49 49 48 47 47 45 40 42 41 39 43 45 42 40 38 32 31 25 23 24 24 27 24 22 24 23 22 22 22 20 16 20 27 26
46 46 46 46 46 46 46 46 46 46 45 48 48 48 48 48 47 45 41 40 41 39 39 34 34 29 26 30 33 31 28 22 23 27 27 24 23 25 24 22 21 21 19 18 18 24 24
46 46 47 46 46 46 46 46 46 46 46 46 48 47 47 47 43 41 39 44 45 42 36 26 16 24 23 16 24 29 29 19 24 28 28 25 26 25 24 23 21 19 21 22 21 21 19
46 46 47 47 47 47 48 48 48 47 47 47 47 48 47 47 43 41 42 44 44 46 -15 5 9 20 18 15 19 24 27 25 20 26 26 24 24 25 23 23 23 20 23 23 24 23 20
45 46 46 47 47 48 48 48 48 48 47 47 47 47 46 45 45 43 44 43 47 35 16 10 24 24 19 14 14 22 23 25 26 24 24 24 24 24 23 22 23 23 22 24 23 23 20
46 46 46 47 47 48 48 48 48 48 48 47 47 46 46 42 39 43 46 44 34 23 -1 -3 26 25 25 20 14 16 22 21 22 23 23 24 23 23 23 20 23 23 22 21 21 22 20
46 46 46 47 47 48 48 48 48 48 48 48 47 47 46 43 41 43 44 39 26 14 10 9 17 22 26 24 23 22 20 22 22 23 23 22 21 22 22 20 21 23 22 22 19 21 23
46 46 46 46 47 47 48 48 48 48 48 47 47 46 44 44 42 43 40 29 23 18 13 11 7 9 22 25 26 24 23 22 22 23 21 21 21 22 20 22 22 23 21 24 24 31 27
45 46 47 47 47 47 48 48 48 48 48 47 45 43 41 43 44 41 35 28 28 24 20 16 9 13 13 23 25 25 25 24 24 22 24 23 20 22 22 20 23 22 23 23 26 23 23
44 45 46 46 46 47 47 48 48 48 48 47 44 37 40 43 44 38 28 27 25 29 24 18 14 13 16 17 18 22 26 25 24 22 23 23 22 22 22 21 19 22 20 20 24 27 23
44 44 45 45 46 46 47 47 48 48 48 46 41 32 39 42 34 33 29 29 27 22 25 25 21 18 18 21 20 19 26 31 28 23 21 22 23 20 22 23 22 22 21 21 20 24 28
44 44 44 45 45 46 46 47 48 48 48 44 37 36 41 39 27 29 29 30 28 27 25 22 21 19 20 20 20 22 30 28 31 27 23 22 20 19 21 21 22 20 20 22 23 26 26
43 43 44 45 45 46 47 47 47 48 48 45 36 30 37 39 33 26 27 28 27 29 28 27 23 23 21 20 21 23 30 34 37 31 27 23 21 19 19 22 24 20 21 22 24 26 26
43 44 44 45 46 45 44 45 47 47 48 44 36 32 34 30 31 30 26 26 26 27 26 26 25 25 21 19 21 25 32 36 37 36 27 26 19 21 23 22 25 25 24 22 22 27 27
43 44 45 45 44 43 44 45 46 47 49 43 31 33 34 27 32 32 29 26 25 26 24 25 24 21 22 21 19 26 36 37 38 40 38 30 24 23 21 24 24 23 24 24 23 21 30
44 42 42 42 43 43 43 43 44 44 44 42 40 37 32 29 31 31 29 28 28 27 26 25 24 22 22 22 26 38 42 43 42 40 38 37 26 24 22 24 23 22 23 22 24 25 22
42 42 42 42 42 42 42 43 43 44 44 43 40 36 33 30 28 30 29 29 28 27 25 23 24 20 21 40 42 41 39 39 38 40 43 38 29 28 24 24 19 23 24 24 24 23 20
42 42 42 42 42 42 43 42 43 43 44 43 41 37 33 31 29 28 30 28 29 28 27 27 26 25 20 18 27 32 34 35 34 39 39 40 35 30 25 25 24 24 23 24 22 22 21
42 43 43 43 44 44 44 44 43 43 43 42 41 41 36 31 31 27 28 29 27 27 26 27 28 28 25 22 26 23 27 32 32 32 40 39 37 31 33 27 22 26 28 30 27 20 24
43 44 44 44 44 44 45 45 45 43 43 42 40 42 40 34 32 30 27 29 30 27 27 28 27 26 34 25 21 24 26 31 29 29 30 33 34 32 32 31 32 32 28 29 24 23 26
45 44 44 43 43 44 44 44 44 45 43 43 40 42 40 35 33 32 34 32 30 29 27 28 27 27 30 28 24 26 26 27 26 27 30 27 28 30 33 32 30 35 32 25 29 31 31
43 42 43 43 43 44 44 44 44 44 44 43 39 41 43 40 38 39 38 39 39 36 35 31 26 25 35 30 32 30 26 26 22 18 26 26 26 25 26 29 35 38 37 36 40 37 35

GFSGBSN_sfc_30mbdewp_066.txt.gz
Dewpoint
47 46 47 47 47 48 48 48 50 51 50 50 48 46 46 46 46 47 48 50 50 50 49 50 52 55 53 45 40 42 45 46 39 31 24 23 23 22 20 17 18 18 20 21 21 26 34
49 50 49 48 47 47 46 47 49 50 49 49 50 49 48 46 46 46 46 48 49 49 50 49 52 54 51 36 35 39 46 42 33 28 28 28 24 24 21 18 18 22 25 24 23 26 31
45 46 46 49 50 49 48 49 50 49 50 50 50 50 49 48 47 46 46 47 48 48 49 49 51 53 47 40 42 37 37 39 41 33 29 30 28 27 22 20 24 24 22 23 21 24 27
44 45 45 46 47 48 48 50 49 49 49 49 50 50 48 49 48 47 47 47 47 48 48 49 51 52 41 43 44 43 43 40 38 38 33 33 32 28 23 23 23 22 23 19 20 24 27
44 44 45 46 46 47 47 48 49 49 49 49 49 50 49 48 49 48 47 47 48 47 48 50 51 48 36 44 41 40 38 32 34 35 37 35 32 27 23 22 20 23 16 19 21 26 28
43 43 44 45 46 46 46 46 47 48 49 49 48 49 49 49 48 48 47 47 45 47 48 51 51 43 40 23 32 33 35 32 30 30 30 30 23 21 23 22 16 15 20 20 18 25 31
43 41 43 45 46 46 45 45 46 46 48 48 49 48 48 49 49 48 47 41 35 43 47 43 43 37 27 33 36 31 32 31 29 28 25 25 21 18 21 22 22 22 22 21 21 25 29
42 41 42 44 45 46 47 46 47 47 46 46 47 48 48 48 48 48 46 39 39 38 32 37 43 44 42 40 38 35 31 27 25 23 27 25 22 22 23 23 23 22 21 20 20 25 30
42 41 43 44 45 46 46 47 47 47 47 47 47 48 47 48 48 45 43 39 39 41 36 34 35 36 39 40 39 35 30 26 23 23 24 25 25 25 23 23 22 22 21 21 19 20 25
41 42 44 45 45 46 47 47 47 47 47 47 47 47 47 47 42 42 40 43 43 44 22 20 28 25 28 27 27 28 25 25 23 21 24 27 27 26 24 23 23 22 23 22 22 22 20
41 43 45 45 46 47 47 48 48 48 47 48 48 47 47 46 41 40 42 42 44 44 -32 -6 19 26 27 18 15 20 25 28 20 22 25 27 26 25 24 24 25 23 25 22 23 23 22
43 44 44 46 46 47 47 48 48 47 48 48 48 47 47 45 45 44 43 45 46 33 -3 6 17 19 20 17 17 24 25 27 25 21 26 27 28 26 26 26 26 25 23 24 25 24 19
43 44 45 46 46 47 47 48 48 48 48 48 48 47 46 43 38 42 42 43 33 21 7 -3 22 22 17 15 11 15 19 19 23 18 17 24 25 25 24 22 23 23 22 18 18 19 19
42 44 44 45 46 47 47 47 47 48 48 48 47 48 46 44 42 41 41 37 25 14 5 10 14 13 24 18 14 13 17 17 21 23 22 19 20 24 25 23 21 22 22 20 17 18 20
42 43 44 45 46 47 47 47 48 49 48 47 47 46 45 44 44 42 37 28 25 20 16 7 7 6 6 20 25 16 17 18 21 23 21 22 22 24 24 24 22 23 21 24 22 31 27
41 43 43 44 46 47 47 47 48 48 48 47 45 43 41 43 44 40 33 28 28 27 23 21 14 12 13 17 23 26 24 25 22 23 24 23 21 24 23 23 23 22 25 22 27 21 21
41 43 43 44 45 46 47 47 48 48 48 48 44 38 40 44 43 37 27 26 25 28 27 26 20 19 18 18 21 20 27 26 29 23 24 23 23 22 24 22 20 21 21 22 24 28 25
41 42 43 43 44 45 46 47 47 48 49 47 42 32 41 43 31 30 28 27 29 26 26 24 25 23 21 19 19 21 21 21 31 31 26 24 22 20 21 24 23 21 21 22 20 23 27
41 42 43 44 44 45 46 46 47 48 48 45 37 36 41 39 25 26 27 27 28 27 26 24 23 22 21 21 17 22 23 27 36 35 32 28 22 20 20 22 22 22 22 23 23 24 21
41 42 43 44 44 45 46 47 47 47 48 46 34 30 37 37 31 26 25 25 25 28 28 28 27 26 23 20 21 19 21 27 36 33 37 35 29 21 19 19 21 20 21 22 22 22 20
41 42 43 43 44 44 45 45 46 47 47 45 35 32 35 29 30 30 27 25 25 25 28 28 26 26 27 23 19 18 24 36 36 40 38 38 30 25 21 21 21 23 24 21 21 23 22
41 42 42 43 44 44 45 45 46 47 47 43 31 33 36 29 31 31 29 26 24 26 27 26 25 23 23 25 23 21 22 31 33 38 37 40 33 28 24 23 21 19 21 25 24 23 25
41 42 43 43 44 44 45 45 46 46 46 41 40 37 32 30 30 31 28 27 26 26 27 27 26 25 25 25 25 25 35 40 40 37 38 37 37 34 28 26 22 22 23 25 24 25 26
42 43 43 44 44 44 44 44 44 44 45 42 42 37 34 29 27 29 29 29 27 28 26 25 25 26 26 27 34 41 40 38 39 40 40 35 35 35 32 26 22 24 26 25 24 23 23
43 42 43 44 43 42 43 43 43 44 43 41 42 40 35 29 30 27 28 29 30 28 28 28 29 29 27 24 23 25 25 26 32 37 42 38 35 31 31 25 26 27 25 24 23 23 25
42 41 41 42 42 42 42 42 43 43 43 41 42 42 39 32 31 29 27 29 28 29 29 28 29 30 29 26 22 15 15 25 27 34 40 38 37 30 30 29 22 25 26 28 29 24 26
42 42 42 42 42 42 42 42 42 42 43 42 41 41 37 31 33 32 27 28 29 29 27 28 28 27 29 26 23 21 17 25 23 28 31 32 32 30 30 30 31 34 35 31 23 24 32
44 44 44 44 44 43 43 43 43 43 43 42 39 42 37 32 35 35 31 30 30 28 26 28 28 28 29 25 24 22 23 26 27 29 30 29 29 29 31 29 26 36 34 29 33 35 34
45 45 44 44 44 44 44 44 44 44 44 43 38 42 40 36 36 40 37 33 31 31 30 31 29 27 28 27 27 27 24 27 25 22 27 26 28 30 30 24 32 36 38 41 41 39 39

GFSGBSN_sfc_30mbdewp_069.txt.gz
Dewpoint
49 50 49 49 48 48 47 47 49 50 50 49 49 50 50 49 48 48 47 47 48 48 48 48 49 52 52 44 35 41 48 48 43 29 23 22 23 23 21 19 18 18 17 22 23 24 28
45 46 47 47 49 50 49 49 49 50 50 51 50 50 50 50 50 49 49 48 48 48 49 48 48 50 48 31 36 38 45 44 31 29 27 25 19 23 21 21 18 19 23 23 24 23 38
44 45 45 46 47 48 48 48 49 50 49 49 50 50 50 49 49 50 49 49 49 49 48 48 48 49 45 37 41 40 40 39 38 30 27 29 27 24 25 23 24 24 20 21 21 22 26
44 44 45 46 47 47 47 49 48 47 48 50 50 50 50 50 49 48 49 48 48 48 48 48 49 51 40 43 44 44 43 38 39 35 34 34 31 28 26 26 23 20 21 18 20 23 24
44 44 44 45 46 47 47 47 47 47 47 48 49 49 48 49 49 49 49 49 48 47 48 48 49 48 37 43 40 41 41 33 28 35 36 37 32 30 27 23 20 23 13 17 17 23 28
43 43 43 42 45 47 47 47 47 47 47 48 49 49 49 48 48 49 49 47 45 48 47 49 50 38 35 19 31 35 40 36 27 31 33 34 30 25 24 21 13 16 17 21 20 21 28
43 42 42 42 42 44 45 46 47 47 47 47 47 48 48 48 48 48 48 41 33 41 42 36 40 36 33 34 39 34 35 32 29 29 26 28 26 22 23 22 21 21 20 20 20 22 24
43 43 40 40 42 43 45 46 48 48 48 48 48 47 48 48 47 48 46 39 37 39 37 38 35 40 42 42 39 34 33 29 27 25 27 25 23 23 22 22 22 22 21 20 21 22 26
43 42 41 40 41 44 45 46 47 48 48 48 48 47 48 48 47 45 43 40 40 41 38 37 33 29 26 38 36 33 33 28 24 25 25 24 25 25 22 21 20 22 21 20 20 22 26
42 42 41 40 42 44 45 46 47 47 48 48 48 48 47 48 39 42 40 42 41 43 30 16 27 25 27 34 35 34 30 26 24 22 24 25 26 26 23 21 22 19 23 22 22 22 19
41 41 41 41 43 45 46 47 47 48 48 48 48 47 47 47 39 38 41 41 43 42 -28 -7 22 27 29 24 15 23 29 25 23 22 24 23 26 25 25 24 24 22 24 24 24 23 22
41 39 40 42 44 45 47 47 47 48 48 48 48 48 47 46 46 44 44 42 45 31 -6 -6 18 24 25 22 16 25 25 26 22 22 24 23 28 27 26 27 26 25 25 24 26 24 19
40 40 40 40 43 44 46 47 47 47 47 47 47 48 47 44 37 42 41 41 32 23 11 -3 19 21 20 18 16 20 20 20 19 19 20 20 24 26 26 25 26 26 23 20 19 18 17
39 39 40 40 43 44 45 47 47 47 47 47 47 47 47 45 43 41 39 35 24 20 12 9 10 12 19 16 14 13 19 14 23 22 20 17 16 21 26 24 22 23 22 20 17 17 17
38 39 40 41 43 43 45 46 47 47 47 47 47 46 45 45 43 42 34 27 23 25 20 21 15 4 10 21 25 15 16 16 12 22 19 18 17 23 22 25 24 23 22 23 21 29 25
38 38 40 41 42 43 44 45 46 47 47 47 45 44 41 44 43 40 31 27 27 29 27 26 16 18 16 18 23 25 25 26 19 15 24 24 21 24 24 25 24 23 25 22 26 19 20
38 39 40 41 42 43 44 45 46 47 47 47 44 38 41 44 42 34 24 26 27 30 29 26 25 21 21 19 19 20 26 25 29 30 22 22 23 23 24 23 22 23 21 23 24 24 20
40 40 41 41 42 43 44 44 45 46 47 46 43 32 43 44 32 30 23 25 27 26 28 26 26 25 23 21 18 20 21 21 34 36 30 25 23 20 21 23 24 23 21 22 20 22 27
40 40 40 41 42 42 43 43 44 45 46 45 37 35 43 40 26 25 24 24 27 26 25 25 24 26 22 19 14 19 23 25 35 33 30 33 27 21 21 22 23 21 22 23 25 24 22
40 40 40 41 41 42 43 44 44 46 46 45 33 30 35 38 32 26 24 22 25 27 27 28 28 27 26 22 22 20 21 22 29 37 39 38 32 31 24 21 21 20 21 22 22 20 21
39 40 40 40 41 42 43 43 45 46 47 44 34 31 34 29 30 27 25 24 22 25 25 29 26 25 25 24 23 19 18 18 29 39 38 39 32 34 34 32 27 22 21 21 21 22 20
39 40 40 40 42 42 43 44 44 46 46 42 31 32 36 31 33 29 28 25 24 24 24 25 26 27 25 23 24 20 20 22 27 36 34 39 33 36 33 31 26 23 21 23 23 23 23
40 40 41 41 41 42 43 43 44 45 46 39 39 37 35 33 32 30 27 26 26 26 27 25 27 26 26 26 26 27 27 26 25 36 34 36 34 32 29 32 31 26 24 22 21 25 24
41 41 41 41 42 43 43 44 44 45 45 42 41 37 34 29 29 29 30 28 26 28 25 27 28 28 28 29 29 33 33 33 39 38 37 36 33 33 29 29 25 30 29 25 23 23 26
42 43 43 43 43 44 44 44 44 45 46 43 42 39 34 30 31 28 29 29 29 27 28 26 26 27 29 27 25 23 27 30 30 34 36 37 34 30 25 24 26 23 28 26 24 24 26
42 42 43 43 43 43 44 44 45 44 46 44 41 42 39 33 31 30 28 30 29 27 27 29 31 32 29 27 25 21 16 22 27 33 40 39 35 30 30 25 19 15 26 25 29 25 27
42 42 42 42 42 42 44 44 44 44 44 43 40 42 37 32 34 32 29 29 30 29 28 29 29 29 31 26 25 23 21 22 20 28 30 32 32 31 30 28 28 32 31 35 31 28 33
43 43 43 43 42 42 42 42 42 42 42 42 40 41 37 32 34 35 32 29 29 30 26 28 28 29 29 24 24 23 22 23 21 27 28 28 28 28 30 28 23 35 38 37 37 38 38
45 44 44 44 44 43 43 42 42 42 42 41 39 42 42 36 35 39 39 39 31 30 29 31 26 28 29 26 26 25 22 25 26 22 31 26 29 26 29 27 30 32 32 35 41 41 39

GFSGBSN_sfc_30mbdewp_075.txt.gz
Dewpoint
44 45 44 45 46 47 47 48 49 49 50 50 50 50 49 48 47 48 50 50 49 49 49 49 49 49 48 28 11 38 45 51 50 34 26 25 26 26 23 21 19 20 19 19 20 21 24
42 42 45 45 46 46 46 46 47 48 49 49 49 50 49 49 47 47 49 49 49 50 49 49 49 48 46 8 25 40 39 42 34 29 27 25 21 25 23 21 19 20 19 19 23 22 23
45 44 45 46 46 46 46 46 46 47 48 48 48 49 49 48 49 49 49 49 48 48 48 48 49 47 41 12 31 38 39 34 37 30 27 26 24 22 23 20 22 22 21 21 20 19 20
43 44 44 44 45 46 45 46 47 47 47 46 46 48 49 48 49 50 49 49 48 47 47 47 48 46 34 40 42 42 41 37 37 35 34 33 29 26 25 26 24 22 21 16 16 24 29
45 43 44 44 43 43 44 44 46 47 47 48 48 49 49 48 48 47 48 48 47 47 48 49 46 44 25 36 36 37 40 30 33 33 33 33 32 29 26 23 20 21 12 14 14 20 30
44 43 43 44 43 43 43 43 44 46 48 48 49 49 49 49 48 48 49 44 44 47 46 47 46 37 26 9 28 38 42 38 29 32 33 33 32 30 26 23 15 15 17 18 14 22 26
41 41 40 41 42 42 42 42 42 46 47 48 48 48 49 49 48 49 45 40 35 34 37 37 37 25 26 39 41 37 39 36 31 28 29 34 28 28 27 24 19 18 18 14 19 22 21
44 44 43 39 40 41 41 42 42 45 47 47 48 48 48 49 48 48 43 37 38 39 34 37 37 35 36 39 35 32 33 30 27 20 28 28 28 29 28 26 24 20 19 18 19 22 22
42 42 41 41 38 39 41 40 41 45 46 47 48 48 48 48 48 42 40 38 41 39 36 34 35 34 31 32 29 25 32 31 26 24 25 24 25 28 27 26 24 23 21 19 16 21 21
40 41 41 40 40 40 39 39 43 44 45 47 48 48 48 48 40 41 40 43 40 42 30 22 31 34 30 31 29 26 22 21 28 24 25 24 25 27 24 23 25 22 23 22 20 19 11
40 41 42 42 38 40 40 40 43 43 45 47 48 48 48 47 39 36 36 43 40 44 -2 6 27 27 29 17 18 27 27 21 10 25 25 23 25 25 24 23 23 20 22 21 20 19 19
39 40 42 41 40 40 38 42 41 41 44 45 47 48 46 45 46 43 44 43 42 29 7 9 24 27 25 23 23 31 28 27 20 21 27 23 28 26 22 25 23 24 23 25 27 24 21
38 39 41 40 41 41 39 39 40 41 44 45 47 47 46 45 39 41 40 36 26 21 19 14 16 27 26 25 23 25 27 21 16 10 17 24 23 27 26 23 25 24 23 19 21 21 18
39 38 39 41 41 40 36 39 40 42 44 45 46 47 46 45 41 41 36 30 20 19 21 23 22 22 20 21 20 21 23 20 20 20 9 13 17 23 26 25 25 25 23 21 13 18 19
37 38 38 41 40 39 39 40 40 42 43 45 46 45 44 46 42 42 32 21 18 21 25 26 24 19 19 20 23 19 19 20 18 18 11 12 13 20 25 25 26 26 24 25 22 26 23
35 36 37 39 39 40 40 40 39 40 42 44 42 42 40 46 43 40 29 19 23 29 29 28 23 23 19 19 18 23 25 31 31 24 24 22 16 22 22 25 26 25 27 23 24 18 16
36 36 37 38 39 39 40 39 39 40 41 44 41 36 41 45 44 35 25 24 20 19 23 27 25 23 23 21 19 21 25 29 32 34 26 24 23 21 25 22 21 24 23 25 24 24 17
36 37 36 36 36 39 39 38 38 40 41 42 38 31 43 44 33 31 27 26 23 21 25 27 27 26 24 21 16 16 24 25 23 29 31 32 23 16 17 22 24 24 23 24 22 21 27
35 35 35 36 36 37 39 38 38 40 41 39 35 34 44 42 27 28 31 28 24 22 25 26 24 27 26 22 17 19 21 26 25 20 16 31 30 21 19 21 27 25 24 24 25 24 21
35 36 35 35 36 37 39 38 39 40 40 40 33 28 34 38 35 30 29 25 23 24 24 27 27 27 26 23 23 20 20 20 23 21 24 34 33 33 24 29 33 32 32 32 28 22 21
38 38 38 38 38 37 38 38 39 39 41 40 33 29 33 28 30 31 28 26 23 22 24 27 24 25 24 22 23 20 19 20 22 25 33 28 23 26 30 26 28 29 31 30 30 28 23
39 39 39 39 39 39 39 39 39 40 41 38 31 30 35 32 31 31 31 28 24 23 25 23 25 25 25 22 20 17 21 21 19 24 24 26 29 32 28 28 24 26 30 25 29 29 26
41 42 41 41 40 40 39 39 40 40 40 36 37 37 36 33 30 31 29 28 26 24 24 24 24 23 23 27 28 27 27 27 25 25 24 25 33 31 25 31 31 23 21 27 25 27 27
43 43 43 42 42 42 41 40 40 40 40 37 37 36 32 27 30 31 31 28 26 26 23 25 25 27 29 31 32 30 30 29 29 28 28 25 25 33 27 29 20 19 28 30 28 27 26
42 42 43 43 43 43 43 42 41 41 41 39 39 36 33 27 31 31 29 29 27 27 26 25 28 28 30 29 30 27 25 29 28 28 29 28 27 29 27 25 23 20 17 20 24 21 36
43 43 43 43 42 43 42 43 42 41 41 41 40 41 37 31 29 31 30 30 28 29 29 28 31 34 35 32 29 22 20 22 22 27 32 31 32 31 28 24 18 18 26 35 29 23 36
44 44 44 44 43 42 42 42 43 42 41 40 40 42 38 31 32 33 30 31 30 30 29 30 32 34 35 30 25 23 20 23 18 24 26 28 31 28 27 25 26 29 30 37 25 23 34
42 42 43 43 44 43 42 41 43 42 43 42 39 43 39 32 36 34 33 34 33 32 29 31 31 32 31 27 27 25 23 24 21 23 29 26 24 24 26 24 21 31 34 28 29 35 34
43 43 43 43 44 43 42 41 42 44 42 42 39 43 42 36 36 40 39 38 34 34 32 33 29 31 31 28 27 25 23 25 23 19 30 26 30 28 29 27 30 34 32 31 35 34 34

GFSGBSN_sfc_30mbdewp_078.txt.gz
Dewpoint
44 43 43 45 46 46 45 46 47 48 48 49 48 48 48 48 49 49 49 50 49 48 48 48 48 49 43 24 3 26 43 51 46 37 27 26 22 19 18 17 18 20 14 17 19 19 19
43 43 44 45 45 46 45 47 47 47 48 48 49 49 48 48 47 48 50 50 50 49 48 47 47 49 39 23 8 30 37 39 36 34 28 27 26 24 20 18 18 18 18 16 16 16 19
44 42 43 45 45 45 46 45 46 47 48 47 48 48 48 47 47 46 48 48 48 48 48 47 46 45 39 25 16 31 34 27 36 30 30 30 28 21 18 18 21 18 17 15 15 16 15
45 46 44 44 45 44 44 44 44 45 47 48 48 48 49 49 49 48 48 48 48 47 47 48 47 43 34 30 32 33 29 20 18 32 31 28 28 26 23 22 22 19 18 15 15 14 15
45 45 45 43 45 45 45 44 43 44 45 47 48 49 49 50 50 49 49 48 47 45 48 49 45 41 25 31 33 29 28 21 14 22 34 32 30 23 23 19 17 19 14 15 14 17 21
40 42 44 45 43 44 43 42 43 43 45 47 48 49 49 49 49 49 48 46 41 47 45 44 42 36 28 19 21 35 39 33 25 20 24 31 28 25 24 18 14 15 16 16 14 14 17
44 42 41 42 42 41 41 42 42 44 44 47 47 48 49 49 49 49 44 33 27 31 33 31 32 31 30 36 38 35 40 38 29 18 15 26 24 22 21 21 19 17 17 15 14 15 18
41 42 43 43 43 41 42 42 43 42 44 46 47 48 48 48 49 47 40 33 37 37 33 34 32 30 31 35 32 32 35 33 29 18 19 27 22 20 23 24 23 20 16 15 15 18 18
42 42 41 41 39 41 40 40 42 41 45 46 46 47 48 48 48 41 40 35 39 37 33 30 31 31 31 29 28 27 33 26 27 25 18 22 20 22 25 26 23 21 18 17 16 17 18
40 41 41 40 40 41 39 38 41 40 43 44 46 47 48 47 44 37 37 42 40 40 31 20 27 30 32 26 24 25 24 26 23 22 22 20 20 23 25 23 22 17 19 20 20 18 14
40 41 41 42 42 41 40 40 38 42 42 43 46 46 47 47 42 38 37 41 40 41 4 9 22 28 26 23 16 25 23 17 13 19 26 21 20 17 21 23 21 19 18 20 19 18 17
39 40 40 40 41 41 40 40 39 41 41 42 44 45 47 44 44 42 41 40 38 28 3 8 24 26 24 23 18 29 22 17 17 10 24 25 25 22 20 24 24 23 21 21 21 19 17
38 38 38 39 40 41 41 40 39 39 40 41 44 45 46 44 39 41 40 32 24 12 14 12 19 20 20 21 24 25 25 21 15 14 13 20 23 24 25 19 22 21 20 18 19 19 16
38 38 39 40 39 40 41 40 37 39 41 41 44 45 44 43 43 42 37 25 16 11 17 21 22 21 19 21 22 21 27 20 20 17 15 12 15 22 25 22 22 22 22 18 14 16 17
35 38 37 38 38 39 42 39 39 41 41 42 43 40 43 43 45 43 34 22 11 15 21 25 22 18 19 20 22 20 23 22 18 17 11 6 9 19 20 24 23 25 23 23 18 22 19
35 35 39 37 38 38 40 39 39 40 40 41 39 39 37 42 46 40 31 21 18 26 27 27 22 22 19 19 19 21 24 28 28 29 16 21 11 14 20 22 23 23 24 23 23 20 18
34 33 34 36 37 39 39 40 40 40 40 41 38 34 36 44 45 36 27 24 21 20 22 25 25 24 22 20 17 22 26 22 20 27 26 19 23 24 22 22 20 23 22 22 21 21 17
35 35 36 36 38 37 37 37 41 39 39 40 36 29 42 45 34 32 29 26 23 20 20 23 26 26 23 22 18 16 25 21 21 23 24 27 23 19 21 23 23 23 22 22 20 19 21
36 36 36 35 35 36 36 37 39 40 40 35 31 31 43 43 27 28 32 28 24 21 21 21 23 26 25 23 18 18 20 21 23 19 21 28 23 14 14 17 22 21 23 23 23 22 20
36 35 35 35 34 34 36 37 38 40 39 38 34 28 33 38 35 28 26 27 24 24 22 22 23 27 23 21 21 20 20 20 20 19 28 28 34 30 16 23 29 29 30 30 29 24 22
39 39 38 38 37 36 36 37 38 40 40 38 34 29 30 28 28 32 27 23 22 21 23 23 22 23 22 20 20 20 20 19 20 22 27 29 23 29 29 29 26 27 26 27 26 28 27
40 41 40 39 39 39 38 38 39 40 40 36 30 30 34 29 33 30 31 28 23 22 23 22 22 21 23 22 21 19 18 18 19 21 23 27 18 21 19 22 19 19 21 22 24 22 24
40 42 43 42 42 41 40 39 39 39 39 34 33 36 34 27 26 27 30 26 25 24 24 23 23 24 23 23 23 25 26 27 26 24 23 24 29 25 18 23 20 20 21 21 20 26 27
42 43 43 43 43 43 42 41 40 40 40 33 32 34 30 23 27 24 24 30 30 28 23 24 25 25 29 28 32 31 29 27 27 27 27 23 26 30 23 29 17 18 22 24 25 22 25
42 43 43 42 43 43 43 42 41 40 40 38 35 34 31 25 21 20 22 27 27 27 27 27 27 29 33 34 30 25 24 26 26 27 27 26 24 26 23 17 16 16 18 20 22 19 32
42 43 43 43 43 43 44 43 42 42 40 40 36 37 34 29 23 21 24 31 30 26 28 29 33 36 36 33 29 21 19 18 19 24 27 26 26 25 26 17 14 20 27 31 27 17 29
43 44 44 44 44 44 44 44 43 43 42 40 36 39 35 31 29 25 23 24 32 27 28 30 35 35 38 30 27 21 18 20 17 21 26 25 26 25 22 23 23 25 23 32 20 22 28
44 44 43 42 42 43 44 44 43 43 43 41 38 40 35 32 32 30 31 30 28 31 28 34 32 33 31 27 25 23 22 20 18 21 26 24 23 25 23 22 20 30 29 24 27 29 31
43 43 43 43 43 42 43 44 43 42 43 42 37 41 40 35 36 36 35 35 33 34 33 35 29 32 30 27 26 25 22 24 19 17 22 23 22 23 22 21 29 35 30 34 38 37 38

GFSGBSN_sfc_30mbdewp_081.txt.gz
Dewpoint
44 44 44 43 45 44 46 46 47 47 47 48 48 48 48 47 47 47 48 50 50 48 47 47 48 47 44 26 22 18 31 49 44 39 30 26 26 24 20 17 16 16 15 13 14 13 14
41 44 43 45 46 45 44 45 46 46 47 48 48 48 48 47 47 47 48 48 48 48 47 46 46 47 40 31 25 10 22 25 33 37 30 27 25 22 19 17 16 17 16 17 15 15 13
46 46 46 44 43 44 44 45 45 44 45 47 48 49 49 48 48 48 49 49 48 48 48 46 46 44 35 31 27 23 22 18 22 34 31 26 25 24 22 21 18 17 16 16 16 15 14
44 44 46 46 45 46 45 44 44 43 44 45 47 48 50 50 50 50 50 50 49 48 48 47 49 41 31 31 32 29 26 20 14 12 22 31 30 28 24 21 19 18 18 16 16 16 15
45 42 44 46 46 44 45 44 43 43 43 44 46 48 49 50 49 50 50 49 48 48 47 49 44 38 25 30 29 27 28 23 18 11 12 25 28 27 25 22 19 18 15 16 17 16 13
43 44 42 42 44 45 44 43 43 44 43 44 45 47 49 49 49 49 49 47 43 45 45 42 39 36 31 16 18 24 32 28 19 15 13 23 21 24 24 20 16 15 15 17 16 16 15
42 43 43 45 45 45 42 42 43 43 44 43 46 47 47 49 49 49 46 35 30 35 36 27 24 29 23 30 30 28 38 34 26 23 12 15 16 12 14 18 18 18 16 16 17 16 16
38 42 42 42 43 43 43 42 42 43 43 43 46 46 47 48 48 48 44 31 35 34 30 29 27 25 22 24 24 28 35 30 34 26 17 12 18 16 15 17 20 19 18 17 18 17 17
40 42 42 42 42 41 39 41 41 42 41 43 45 46 47 48 48 45 37 34 38 39 30 24 27 26 26 27 21 23 32 31 31 31 24 16 19 23 19 18 19 21 21 20 19 18 18
39 41 42 42 41 41 42 42 38 40 41 43 44 45 47 47 44 37 35 38 38 40 28 21 22 26 29 27 22 22 25 33 33 30 27 23 23 24 24 20 20 22 23 20 19 18 16
40 41 41 41 42 42 42 42 39 39 38 42 43 44 46 47 41 35 37 38 39 38 11 7 21 27 25 23 16 22 22 33 29 29 24 29 23 22 20 21 22 22 21 20 18 19 20
40 38 39 40 40 41 41 41 41 40 40 41 41 43 45 40 43 42 40 40 37 30 11 6 21 21 23 22 22 24 21 26 31 30 27 22 29 26 24 20 22 23 19 20 19 18 17
38 39 39 39 40 40 40 41 41 41 40 40 41 43 43 40 40 40 41 36 25 11 9 10 15 17 16 18 22 18 21 21 18 17 23 27 21 27 27 21 21 22 19 18 17 17 17
36 36 38 39 39 41 40 40 41 40 40 40 42 43 39 38 41 42 40 27 16 8 10 16 18 17 15 21 22 23 24 14 15 20 21 26 21 19 26 23 21 20 20 17 16 19 19
37 36 38 36 38 39 39 39 42 39 40 41 42 34 36 39 43 43 36 21 7 10 13 18 18 12 14 20 22 20 22 22 21 18 19 25 20 21 24 24 26 25 20 20 24 24 21
35 36 37 37 38 40 39 39 38 39 39 41 32 36 34 37 45 41 32 22 14 17 22 19 13 17 16 19 20 20 21 26 24 23 21 20 20 17 19 25 27 25 26 22 23 21 19
35 35 35 35 35 36 39 39 40 40 39 40 32 34 29 36 45 37 26 20 18 16 22 19 17 20 19 19 19 23 28 24 22 24 29 19 18 29 13 18 22 23 22 28 28 24 22
37 36 36 36 37 36 38 39 39 40 40 37 30 27 37 43 33 33 26 23 21 17 18 19 24 24 21 21 19 18 32 22 24 24 25 21 23 19 20 16 20 22 21 23 25 25 24
36 35 36 37 37 37 37 38 38 39 40 32 29 28 37 41 27 27 27 24 23 20 17 16 17 22 22 21 18 17 22 26 23 21 23 23 20 16 27 23 21 19 20 22 23 23 26
38 38 37 36 35 36 36 37 36 38 39 37 31 26 28 37 36 29 23 23 22 25 21 17 17 19 21 21 20 19 18 20 22 20 24 27 27 23 19 21 24 19 22 21 22 22 21
39 40 40 39 38 37 36 36 37 38 40 36 32 27 27 25 27 28 28 29 18 20 22 20 18 19 19 19 18 17 18 19 20 20 19 25 25 27 28 29 25 26 26 26 25 25 24
42 40 40 41 41 39 38 37 38 39 40 35 30 26 25 23 24 22 26 26 25 16 18 18 19 18 19 20 20 21 19 19 20 19 20 22 18 21 22 22 23 20 21 23 23 23 23
40 41 42 42 43 42 40 39 39 39 39 36 30 31 29 25 21 25 25 21 27 21 18 18 21 21 23 21 23 25 26 26 23 23 23 23 22 15 20 21 23 22 21 20 19 20 20
41 41 42 42 42 42 43 41 40 39 39 38 30 28 29 21 21 17 17 27 26 29 31 22 21 24 24 30 28 28 28 27 26 26 26 24 21 22 21 23 17 19 20 20 20 20 24
42 42 42 43 43 43 43 43 42 40 40 37 35 31 26 23 17 17 19 26 33 31 28 27 25 27 33 33 28 24 24 26 27 25 24 25 23 20 20 15 14 13 15 16 17 18 27
42 42 42 43 43 43 43 43 44 42 40 39 35 36 33 26 20 15 15 18 19 24 27 29 30 34 35 32 30 21 17 18 20 22 23 25 25 22 22 18 11 13 20 23 23 17 28
42 42 43 44 44 44 44 44 44 43 42 39 34 36 35 31 24 19 16 15 17 23 30 28 32 35 37 31 26 21 20 19 18 21 23 24 25 23 21 19 17 27 24 27 21 22 29
44 44 44 44 45 45 44 45 44 44 43 41 37 36 35 31 26 24 24 27 19 31 32 33 33 34 31 29 25 23 22 21 16 19 24 24 26 24 24 24 20 22 22 24 32 32 32
44 43 44 43 43 43 43 44 44 45 44 43 37 39 38 32 28 29 29 30 30 32 34 36 27 34 30 27 24 23 25 23 20 17 25 27 22 22 20 19 28 33 34 35 36 34 35

GFSGBSN_sfc_30mbdewp_084.txt.gz
Dewpoint
45 44 43 45 46 45 46 45 46 47 47 47 48 48 47 47 47 47 49 49 49 48 47 47 46 46 42 29 31 27 35 46 40 37 34 26 26 24 22 20 18 16 16 15 16 16 13
46 46 46 46 44 44 43 44 44 45 45 45 47 48 49 48 48 49 49 50 50 50 49 48 47 46 40 26 27 31 25 15 19 29 32 30 25 25 23 21 18 16 15 15 16 15 14
44 45 45 45 47 44 44 44 44 44 44 44 46 47 48 48 48 49 49 50 50 50 49 48 47 45 38 25 23 24 25 20 17 16 29 31 28 25 24 21 19 17 16 17 16 16 17
45 46 44 45 47 47 45 45 44 43 42 43 44 46 48 49 49 49 49 49 49 49 48 48 48 45 34 26 25 27 29 30 26 16 18 27 28 30 25 25 22 20 18 15 17 16 16
42 41 45 45 44 46 46 45 45 44 44 43 44 45 48 49 49 49 49 49 48 48 48 48 46 42 27 26 28 28 25 25 27 24 17 8 13 28 28 26 23 19 17 16 16 17 16
40 41 44 45 45 45 45 45 44 44 44 44 43 45 47 48 49 48 48 48 45 46 43 43 42 35 35 23 19 21 25 25 25 24 18 10 15 19 26 25 21 20 18 17 17 17 17
43 40 40 42 43 42 45 45 44 44 44 44 43 45 46 48 48 47 46 42 31 36 40 33 29 30 24 23 26 26 29 33 27 22 19 16 15 18 19 25 24 21 19 18 17 18 18
42 42 41 42 43 42 42 43 44 43 43 43 42 45 46 46 47 48 45 39 34 34 31 30 24 23 22 20 17 20 23 31 28 24 23 23 16 17 17 15 20 22 20 19 21 20 19
42 41 39 40 43 42 41 41 42 43 42 43 43 44 45 46 47 44 42 37 37 39 32 25 24 23 23 25 22 18 17 28 29 30 31 30 28 23 21 20 15 16 21 19 19 20 20
42 40 40 42 43 42 42 43 43 42 40 41 42 43 44 46 41 41 35 37 36 40 29 23 24 24 26 25 22 23 20 25 28 27 33 37 34 29 30 28 28 20 21 20 21 21 20
37 39 42 40 41 41 42 42 41 42 40 40 42 42 43 45 39 36 38 39 37 37 16 18 17 26 25 23 20 20 21 20 26 31 33 33 32 32 31 29 33 28 24 27 27 24 21
39 39 40 40 40 40 41 41 42 41 40 40 41 41 43 37 39 39 40 40 38 30 16 7 20 21 22 23 23 20 18 22 29 27 29 32 32 33 35 32 29 34 32 30 27 24 21
38 38 38 38 39 40 41 41 41 41 40 41 40 41 40 36 38 43 41 39 30 18 7 6 14 15 14 12 14 18 20 18 23 24 24 26 28 28 26 33 29 25 28 28 26 22 20
37 37 37 37 38 39 40 39 40 41 41 40 40 41 37 34 37 40 40 33 19 10 11 13 15 15 12 15 19 21 17 19 20 21 17 26 25 28 29 26 29 25 23 28 23 23 21
35 36 37 38 38 38 37 40 38 41 42 39 40 36 33 35 40 43 37 24 14 14 10 13 14 8 5 16 19 20 21 22 18 19 16 24 26 24 28 27 32 30 25 24 25 27 30
36 36 36 36 37 38 38 39 40 40 40 41 35 31 30 34 41 42 34 23 19 14 15 17 10 9 10 14 16 18 21 27 25 21 18 19 23 24 25 25 28 29 30 28 30 25 27
36 36 37 37 37 36 36 36 39 40 39 38 36 31 28 36 42 38 28 22 19 19 16 18 14 13 14 15 17 15 32 29 22 24 25 19 21 20 26 27 29 27 31 34 33 29 30
38 38 37 37 37 37 38 37 39 40 40 38 33 28 34 42 34 34 29 24 21 18 16 15 18 17 18 18 18 18 31 24 24 23 25 27 25 18 20 28 23 29 28 30 31 32 30
38 38 38 38 37 37 38 38 38 39 39 37 31 27 30 41 26 28 27 24 22 20 17 15 14 16 17 17 16 18 20 27 26 23 21 22 22 18 20 22 22 22 29 30 31 33 33
38 39 40 39 39 37 37 38 38 38 39 38 35 25 24 36 34 27 27 23 21 20 18 18 15 15 14 15 18 18 19 22 22 22 21 23 25 25 27 29 36 24 22 28 29 29 32
39 40 41 40 40 39 38 37 37 38 38 37 34 27 26 25 27 30 27 31 22 18 22 18 17 15 13 14 14 15 16 16 19 21 20 23 25 24 22 33 33 33 33 34 25 30 28
39 40 41 43 41 40 40 39 38 38 38 36 31 25 22 26 26 23 24 24 25 24 20 20 16 14 14 13 13 15 19 23 27 24 20 23 21 21 19 23 22 22 28 24 33 32 27
39 41 42 42 42 41 41 41 39 38 38 34 37 33 25 27 20 20 24 20 19 21 22 23 22 13 14 18 30 30 28 29 28 24 22 22 22 19 18 20 23 23 24 21 19 20 20
40 41 41 42 42 42 42 42 41 39 39 33 36 30 29 21 20 22 17 21 21 20 18 23 33 30 27 32 31 29 27 25 24 24 25 22 22 21 20 19 21 23 23 22 23 21 20
41 41 41 42 42 43 42 42 43 41 40 35 32 34 26 23 20 16 16 18 20 29 28 29 33 34 32 30 28 24 24 24 25 25 24 25 23 23 20 17 17 15 15 15 14 16 28
41 42 43 43 43 42 43 43 43 43 41 38 34 36 34 26 23 20 16 16 18 25 31 30 31 34 33 30 28 21 17 20 20 23 26 25 26 24 23 18 13 12 14 23 18 14 30
42 43 44 44 43 43 43 43 43 44 43 39 35 37 35 31 27 24 21 18 21 21 25 31 33 33 35 32 28 21 19 20 20 22 22 24 25 24 23 22 19 18 25 26 19 27 33
43 44 44 45 45 44 44 44 45 44 44 42 36 37 35 31 28 26 25 25 24 22 27 32 33 34 32 28 29 22 24 24 22 22 23 23 26 25 23 22 20 25 24 24 33 34 34
44 44 44 44 44 45 45 45 45 45 44 43 37 37 37 32 26 28 29 29 29 31 36 35 33 33 29 28 24 26 29 26 23 17 25 24 23 23 22 21 24 34 35 35 35 34 34

GFSGBSN_sfc_30mbdewp_087.txt.gz
Dewpoint
47 47 46 46 46 45 44 44 45 46 46 45 46 45 47 48 47 47 49 50 50 49 49 49 49 48 44 32 31 30 45 43 50 42 39 37 24 21 23 24 24 21 19 19 18 18 18
46 46 46 46 46 47 45 44 44 46 46 46 45 47 47 47 47 47 49 49 49 49 49 49 49 48 42 25 25 23 25 30 36 24 33 32 29 25 26 25 23 23 21 20 18 17 16
44 45 47 47 45 46 47 46 45 45 45 45 45 46 46 46 47 48 48 49 48 49 49 49 48 47 41 28 26 25 27 25 27 29 17 24 33 30 27 24 26 25 22 20 19 18 18
44 43 42 44 47 46 46 47 46 44 44 44 44 45 46 48 49 49 49 48 48 48 48 48 49 46 37 36 33 29 28 27 29 30 26 19 14 17 26 30 27 25 23 18 20 20 18
45 43 41 43 45 46 47 46 46 46 44 44 44 45 46 48 48 49 48 48 47 47 48 49 47 45 36 35 32 31 30 26 26 28 27 23 14 10 17 27 26 25 22 20 19 19 18
42 43 43 41 41 43 44 44 46 46 45 45 44 44 45 47 48 48 48 47 44 47 46 44 43 42 40 29 24 27 27 22 25 26 25 20 9 10 20 26 24 24 23 20 18 20 19
43 42 42 42 41 42 44 42 44 45 44 44 44 43 44 46 47 47 47 41 34 38 38 38 38 36 31 32 25 19 27 33 31 25 22 18 8 8 17 21 26 26 26 23 22 21 20
40 40 42 42 40 40 43 43 43 44 44 43 44 43 43 44 46 46 44 41 34 35 34 35 33 30 31 26 22 19 19 23 26 23 22 20 16 13 14 18 21 24 28 29 26 24 23
41 42 42 41 40 41 42 43 43 43 43 43 43 43 43 44 45 43 42 41 39 37 34 32 29 29 27 26 23 21 19 17 24 27 28 26 26 29 25 20 22 25 22 23 22 23 24
37 38 38 39 41 41 42 42 42 41 42 42 42 43 43 44 39 40 38 39 41 38 30 26 24 21 22 24 23 24 23 16 25 27 31 34 36 36 32 28 25 23 25 24 29 32 30
39 39 40 40 41 41 41 41 42 42 41 42 42 42 42 43 39 37 37 42 40 38 16 26 20 24 27 24 23 19 23 18 21 30 32 30 34 35 36 31 32 27 30 31 35 34 31
38 39 39 40 39 39 40 41 41 42 42 41 42 42 42 38 40 37 40 43 41 30 15 10 22 23 23 24 24 21 18 20 27 25 31 30 31 32 36 36 34 35 38 37 35 34 30
36 36 38 38 38 38 39 40 41 41 41 42 42 41 41 38 34 38 38 41 28 23 18 9 18 17 17 15 19 20 16 18 24 25 25 25 26 30 32 32 34 39 36 29 27 28 26
35 35 35 37 38 38 38 39 39 41 40 41 41 41 40 38 37 37 39 35 23 21 17 15 14 14 13 13 15 19 17 16 23 25 20 19 23 25 29 31 33 34 36 31 23 25 28
37 37 37 37 37 37 38 39 38 39 40 40 41 38 38 38 39 38 37 25 22 17 17 16 13 11 10 10 18 20 19 21 20 20 18 20 24 29 31 34 30 34 33 32 31 31 30
35 36 36 37 38 38 37 37 38 40 40 40 38 38 36 37 38 38 33 25 21 21 19 17 13 11 8 17 17 27 28 29 26 21 20 18 18 24 27 31 33 34 38 30 32 24 25
35 37 38 38 37 38 38 38 37 38 40 40 37 34 32 34 39 34 27 28 24 23 20 17 17 17 19 17 18 18 33 29 24 23 24 22 21 22 24 30 29 31 34 36 34 32 29
37 38 38 39 39 38 38 38 39 38 38 38 36 28 35 38 30 33 29 29 25 21 21 20 15 17 17 18 19 18 28 26 25 23 21 24 27 22 20 23 31 35 34 36 31 28 32
38 38 39 39 40 40 39 38 39 38 38 37 33 29 34 39 25 29 31 31 28 25 23 20 17 15 16 16 17 17 27 27 26 23 21 21 29 26 21 24 25 27 34 35 35 35 32
38 38 39 40 41 41 40 39 38 38 39 37 31 26 28 35 33 30 26 25 24 24 23 21 19 19 17 15 17 19 21 27 25 23 22 25 25 26 26 30 33 33 33 34 37 31 29
37 38 39 40 41 42 41 40 38 38 39 37 32 28 27 25 29 31 31 32 29 22 21 20 18 18 18 17 16 16 19 19 25 23 22 26 25 26 25 24 34 33 34 35 35 34 33
38 40 40 41 41 43 41 41 40 39 39 35 30 28 25 24 26 29 28 26 24 24 24 26 22 20 18 17 16 17 26 26 27 28 24 23 22 23 22 21 22 31 31 33 33 37 36
38 39 40 41 42 42 41 41 41 40 39 33 34 33 32 27 25 23 27 25 23 23 23 23 25 30 30 27 30 31 30 30 29 29 26 24 23 23 21 22 21 23 25 31 32 33 30
39 39 40 41 42 42 42 42 42 41 39 34 32 31 28 23 22 22 23 22 22 22 23 24 26 31 32 35 32 31 29 29 28 28 27 24 24 23 19 19 17 24 25 25 22 29 30
40 39 39 40 42 43 42 43 43 42 40 36 34 33 29 24 23 21 19 18 19 22 24 28 30 34 39 33 29 24 24 25 25 26 26 26 25 22 20 20 18 16 17 18 19 30 36
39 39 40 42 43 43 43 43 43 43 42 38 35 35 33 27 24 24 20 22 23 23 25 28 35 39 38 33 27 21 19 21 19 23 25 26 27 25 23 20 15 17 21 25 25 28 35
40 41 42 43 44 44 44 44 43 43 43 41 36 35 34 28 29 27 25 25 31 26 31 28 31 35 37 30 25 23 21 21 20 23 24 24 25 24 24 24 24 23 26 27 21 29 34
41 42 43 44 44 45 45 44 44 43 44 42 38 35 34 30 28 29 29 28 29 32 29 32 30 34 31 26 27 24 22 23 23 25 29 24 24 26 26 22 19 31 28 28 36 36 34
42 43 44 45 45 45 45 45 44 44 44 43 37 37 37 32 29 31 30 30 29 31 35 35 34 33 34 29 28 28 25 25 29 25 33 27 25 25 25 24 38 39 38 39 36 35 35

GFSGBSN_sfc_30mbdewp_090.txt.gz
Dewpoint
46 47 47 47 47 46 47 46 46 46 47 47 45 44 43 44 45 46 48 49 49 47 47 47 48 48 45 35 32 29 41 39 51 50 42 36 25 18 17 23 26 26 25 25 23 21 20
44 45 45 46 47 46 46 46 47 47 47 47 47 46 45 44 44 46 48 49 49 48 47 47 48 48 43 26 24 25 25 26 36 41 34 37 34 25 22 24 24 25 24 24 23 21 20
45 45 43 43 44 46 47 46 47 46 46 46 46 46 46 44 44 46 47 48 48 48 47 47 48 46 40 31 31 27 29 30 26 26 27 21 27 31 28 26 28 26 24 25 24 23 20
42 44 45 43 43 44 46 46 46 46 46 45 44 45 46 45 46 47 47 48 48 47 46 46 48 45 36 37 38 36 34 28 27 28 29 29 22 14 19 28 28 26 26 23 24 23 21
45 43 43 44 43 43 44 45 46 45 46 46 45 45 46 46 46 47 47 47 46 46 45 46 47 42 34 39 38 36 33 27 26 26 27 28 22 13 11 22 26 26 23 23 23 23 21
44 44 43 43 43 42 42 43 45 45 45 45 45 45 45 45 45 46 46 45 42 46 46 47 44 41 39 26 28 26 29 28 23 26 25 24 18 8 19 24 23 23 24 23 22 21 23
41 42 42 42 42 42 41 41 43 45 44 44 44 45 44 44 45 45 44 39 34 33 36 39 38 38 33 36 29 25 21 29 30 25 23 19 12 8 11 19 26 25 25 25 26 29 29
40 41 42 42 42 42 41 41 42 44 43 43 43 43 43 43 44 44 42 39 40 36 33 35 35 34 38 37 31 30 23 17 29 26 24 22 16 12 12 16 19 21 22 24 28 28 28
36 37 38 39 39 40 40 41 42 43 42 43 43 42 42 43 44 41 39 39 41 40 32 32 32 32 28 27 30 27 23 18 16 23 23 21 25 24 18 16 15 20 22 22 23 28 29
39 40 39 40 40 41 41 42 41 41 42 43 43 42 43 43 34 38 32 38 41 41 28 24 30 28 28 27 23 25 23 17 16 19 29 29 35 35 34 32 30 23 24 24 23 33 28
38 39 39 40 40 40 40 40 40 41 41 41 43 42 42 42 39 36 33 37 39 39 5 22 24 27 26 22 23 22 24 18 15 31 32 29 34 34 33 35 34 29 25 25 29 34 33
35 36 36 38 39 39 39 39 39 41 41 42 42 42 42 40 37 39 38 35 41 28 13 24 23 20 23 25 24 21 21 20 21 29 31 28 34 33 32 34 36 34 31 34 33 35 28
35 36 37 36 36 37 38 39 39 40 40 40 42 41 41 40 34 37 37 37 27 22 21 17 20 23 24 23 23 17 18 20 21 21 24 27 28 31 35 32 34 37 35 27 26 27 23
37 38 38 38 38 38 38 38 40 39 39 40 41 42 41 39 39 38 38 33 20 20 20 18 18 22 20 16 20 17 16 16 25 25 18 17 14 25 31 30 31 31 35 30 21 24 24
37 37 36 37 37 37 39 38 38 40 39 41 41 38 37 36 39 39 33 24 20 20 21 19 15 11 11 10 16 18 19 19 19 25 18 17 23 29 29 31 31 33 31 36 31 33 28
37 38 36 37 38 38 38 38 39 38 38 40 37 36 35 37 38 37 30 25 23 22 23 20 17 19 17 19 23 28 28 28 24 23 21 18 17 22 32 34 35 33 39 32 32 24 24
35 38 38 38 39 39 40 38 38 39 38 39 37 31 34 37 39 33 25 26 26 25 24 20 17 17 17 18 20 27 32 32 24 23 25 24 20 23 24 28 31 34 33 33 35 32 27
37 38 39 39 40 40 40 40 39 39 38 38 34 26 32 38 27 29 25 32 28 27 27 25 22 16 16 16 17 22 31 28 24 24 21 22 26 21 20 21 30 34 36 35 31 29 32
37 38 39 39 39 40 41 41 40 39 38 36 32 30 33 35 22 24 31 29 30 27 25 24 22 21 20 17 14 26 29 27 25 23 21 22 24 25 22 26 30 34 33 35 37 35 31
36 38 38 39 39 41 42 41 41 39 38 36 31 24 28 34 32 28 25 27 26 25 24 24 23 21 20 18 19 18 25 29 26 24 24 25 24 27 25 27 32 32 32 36 35 31 29
36 38 38 40 41 41 41 43 41 39 39 35 31 25 31 26 28 26 29 31 28 24 26 27 21 20 22 17 18 16 20 23 26 28 22 26 23 26 27 26 33 33 32 33 33 35 32
35 37 39 40 41 41 42 42 41 39 39 34 28 27 30 27 27 29 30 28 29 25 26 24 26 27 29 28 27 21 25 26 26 28 26 26 21 23 22 24 26 20 32 33 34 36 37
35 37 38 40 40 41 42 42 41 41 39 32 33 32 28 26 25 22 25 25 26 27 26 24 23 25 29 30 32 32 31 30 29 28 26 25 24 23 19 22 18 18 24 33 29 36 33
35 36 38 39 40 40 42 42 42 42 39 33 33 30 26 20 23 22 21 21 19 21 24 26 28 28 31 35 31 30 31 28 29 28 29 24 24 23 21 19 9 18 22 26 34 35 33
35 37 39 39 40 40 42 42 42 42 41 35 33 31 29 23 24 23 20 21 24 25 24 24 30 36 36 32 26 26 24 25 25 26 26 29 25 21 18 17 18 15 17 25 30 33 37
35 38 38 40 41 42 43 43 42 42 42 38 33 35 32 27 22 24 23 23 22 24 26 29 36 39 36 32 29 23 17 21 19 22 26 26 27 23 22 19 14 18 25 28 31 31 36
36 37 39 41 42 44 44 44 44 43 42 41 37 35 32 28 26 27 25 26 30 30 28 30 32 33 36 29 25 23 20 23 18 21 24 25 26 23 22 21 23 28 33 33 23 30 35
36 38 40 42 43 44 44 44 44 43 43 42 39 36 32 28 27 28 29 28 30 33 29 32 30 32 31 26 25 24 23 23 24 22 23 23 25 23 24 22 19 37 34 31 35 35 36
38 40 42 43 44 44 43 43 44 44 43 43 38 37 35 31 28 30 29 29 30 32 31 34 32 32 33 30 29 29 25 26 27 22 33 28 30 26 25 23 37 37 36 36 36 36 36

GFSGBSN_sfc_30mbdewp_093.txt.gz
Dewpoint
45 46 45 46 46 47 47 46 46 48 47 47 46 46 44 43 43 43 46 47 48 47 47 46 46 47 45 34 25 28 31 30 51 46 36 33 26 21 16 20 26 28 27 26 25 24 23
45 45 45 44 44 44 46 47 47 47 48 48 47 47 45 44 43 43 45 46 47 47 46 46 46 47 41 25 24 26 27 26 26 45 42 40 31 23 19 18 21 25 27 27 27 26 24
43 43 44 45 44 44 44 45 46 46 46 47 47 47 46 44 44 44 44 45 46 46 45 45 46 46 38 32 33 33 34 29 27 30 32 30 34 31 28 24 26 25 23 25 25 24 23
43 45 44 44 44 44 43 43 44 45 45 45 46 47 46 46 45 45 45 45 45 45 45 44 46 44 37 38 38 38 36 34 33 31 27 29 26 18 17 21 26 27 26 24 25 25 24
43 44 44 44 44 44 43 43 43 43 45 45 45 46 46 46 46 46 45 44 43 43 45 45 45 43 34 38 38 39 37 31 27 27 28 28 24 20 11 15 23 26 23 23 24 24 23
41 42 43 42 42 42 42 42 43 43 45 45 44 45 46 46 46 45 44 43 40 45 46 45 44 39 38 27 34 29 36 30 24 26 25 25 22 12 16 20 19 24 24 24 23 23 26
40 39 41 41 42 42 42 42 41 43 44 43 43 43 44 44 44 44 42 39 38 34 40 39 37 37 35 37 35 27 23 23 26 25 23 20 19 16 12 21 23 25 25 25 26 27 29
37 37 37 38 38 40 40 40 41 42 43 43 43 43 44 43 43 44 42 39 39 40 35 37 35 36 38 39 36 34 27 20 30 26 24 22 16 15 12 13 15 18 21 21 25 28 27
37 40 41 40 40 40 40 40 41 41 41 42 43 43 43 43 43 40 35 32 37 38 35 32 33 32 32 32 32 31 30 18 19 26 24 22 25 24 18 14 12 13 14 19 22 24 28
34 38 39 39 39 40 41 40 40 40 41 41 41 42 43 43 33 37 31 36 36 37 28 25 29 30 28 25 26 29 25 17 16 21 25 24 30 32 32 29 30 24 24 24 24 25 20
34 34 36 36 37 39 39 39 40 39 40 41 41 42 42 42 39 35 32 37 34 40 10 14 28 30 26 18 21 23 23 18 18 26 30 29 34 33 32 32 35 30 31 29 25 30 32
33 34 36 37 37 37 37 38 38 39 40 40 40 41 42 40 37 37 38 37 39 25 13 19 23 25 23 24 24 22 21 20 22 30 31 29 35 33 30 34 35 35 32 31 33 32 25
38 38 38 39 39 39 39 39 39 39 39 40 41 41 40 41 35 38 38 36 25 19 19 20 20 23 22 22 23 18 20 21 16 19 23 27 29 32 36 33 34 36 32 25 25 24 22
37 38 38 38 37 38 38 38 39 39 39 40 40 42 40 39 40 38 36 30 18 16 20 23 20 23 23 24 23 17 19 20 25 22 23 21 12 27 32 30 29 34 32 26 20 22 25
36 37 38 38 37 38 39 39 38 39 39 39 40 37 37 36 40 38 30 21 18 22 28 27 21 21 19 17 21 17 19 17 21 24 17 17 18 27 30 31 31 32 30 36 30 31 29
37 36 37 38 38 38 39 40 40 39 39 38 37 35 34 37 39 35 27 24 23 26 28 29 20 19 17 19 22 21 26 28 23 25 20 19 17 26 31 34 33 34 37 30 31 24 23
36 35 38 39 39 39 40 40 41 40 39 39 36 31 32 38 38 30 21 25 24 25 28 31 23 18 19 18 21 30 31 29 23 25 23 24 19 21 31 30 30 33 33 33 33 31 26
34 36 38 39 40 40 40 41 41 41 39 38 33 24 33 40 27 28 21 26 29 27 28 32 27 21 19 19 20 28 32 30 25 24 23 21 26 23 21 23 33 35 33 35 29 29 32
36 36 37 39 39 39 40 41 42 41 39 35 30 29 33 37 23 22 24 28 25 27 26 31 29 24 22 20 20 28 27 28 25 23 21 23 26 22 24 29 33 33 35 35 34 34 29
36 35 36 39 39 40 41 42 42 41 40 35 30 22 26 33 32 27 23 21 24 27 25 27 27 25 22 19 20 18 23 29 27 24 24 25 25 23 20 25 28 30 32 34 34 29 30
35 34 36 38 39 40 41 41 42 41 39 34 30 23 28 22 28 27 27 27 27 26 27 28 26 29 26 24 21 22 24 23 27 27 24 26 21 25 26 28 27 31 31 32 32 33 30
32 32 35 37 39 40 41 41 42 41 39 33 26 26 28 26 27 29 29 26 27 29 26 24 22 25 29 28 29 27 29 25 25 27 25 26 20 23 22 24 27 25 19 20 29 33 34
35 33 35 37 38 40 40 42 41 41 37 32 32 32 27 23 23 23 25 27 28 30 28 27 27 27 25 30 31 30 31 31 30 28 25 25 24 22 19 21 19 11 21 23 31 32 34
34 32 35 37 39 39 40 41 41 41 37 31 32 29 24 19 21 20 21 21 24 25 25 24 27 27 32 35 32 29 28 29 30 28 29 24 24 24 21 19 6 12 16 35 32 36 36
33 34 35 36 39 39 40 41 41 42 41 32 33 28 27 22 24 22 21 22 22 24 25 30 34 37 37 33 25 22 22 23 24 27 27 28 25 21 18 16 13 16 23 26 26 28 38
33 35 35 37 38 40 41 42 42 42 42 37 33 34 31 25 19 24 22 22 20 27 25 29 34 37 35 31 28 18 12 20 19 21 28 29 27 23 21 17 9 19 31 34 35 28 38
33 35 35 38 38 41 42 43 43 42 42 41 37 34 30 27 26 25 25 26 29 30 27 29 32 33 35 28 25 23 20 23 16 20 22 25 25 23 23 20 20 23 35 35 25 27 37
34 34 35 37 40 42 43 44 43 44 43 42 39 35 32 27 25 27 26 24 29 31 28 30 27 30 30 26 25 23 23 23 24 22 22 21 22 23 24 22 18 35 35 29 35 36 36
32 33 35 38 41 42 43 44 44 44 43 43 38 37 34 32 26 31 28 29 29 31 29 31 30 31 33 29 29 29 26 25 26 21 31 24 28 28 24 23 36 37 36 37 36 33 33

GFSGBSN_sfc_30mbdewp_096.txt.gz
Dewpoint
46 45 45 45 44 44 44 45 46 47 47 47 47 47 46 45 44 43 45 45 43 42 42 44 45 45 44 36 26 26 34 30 53 47 35 31 24 21 19 18 23 28 28 26 26 25 24
44 43 43 46 44 44 44 43 44 44 45 46 47 47 47 46 44 43 43 45 44 44 42 42 44 45 41 31 28 27 32 32 24 45 43 35 28 23 20 18 19 23 26 26 27 26 26
43 44 44 44 44 44 44 44 43 43 43 45 45 46 46 46 44 44 44 45 44 43 42 42 43 44 38 33 34 33 34 32 28 23 34 36 38 33 24 22 24 23 19 20 23 25 24
43 44 45 45 44 44 44 43 43 43 43 44 45 45 46 46 47 46 45 45 44 43 43 43 44 42 35 37 38 37 38 35 34 33 28 27 28 24 23 19 20 26 27 25 25 24 25
39 41 43 43 42 42 42 42 43 42 43 44 44 45 45 46 46 46 45 44 42 42 45 47 44 42 33 38 38 37 38 30 29 32 28 27 27 22 14 14 18 25 22 23 23 25 23
41 39 40 41 42 42 42 41 42 42 43 44 43 43 44 45 46 45 45 43 42 45 44 43 41 36 32 22 35 35 39 33 26 25 25 26 23 17 15 15 12 20 24 24 23 23 24
37 37 37 38 38 38 40 40 40 42 43 43 42 43 43 44 44 44 42 40 36 34 37 35 35 35 36 37 38 33 29 28 26 25 22 22 21 18 17 18 18 20 23 24 26 26 27
36 39 41 41 39 39 40 40 40 40 41 41 41 41 42 42 43 43 39 29 30 36 31 36 37 37 37 36 34 34 34 21 27 24 23 19 17 20 19 16 16 17 18 19 22 24 26
36 35 38 39 39 39 39 40 40 40 40 40 41 41 41 42 42 38 36 33 35 36 33 32 32 32 34 34 34 30 33 20 28 26 23 21 23 23 14 12 11 13 12 13 14 21 24
35 36 35 37 36 37 38 39 39 39 39 40 40 41 42 43 35 37 32 36 36 37 28 23 28 31 31 31 30 30 31 18 16 27 25 24 24 28 22 19 18 18 24 22 23 23 19
35 34 35 36 38 38 38 38 38 38 39 39 40 40 41 42 39 36 33 38 36 40 13 11 25 31 29 22 18 27 28 20 15 20 28 25 33 31 29 30 32 30 32 30 30 27 30
34 36 38 38 39 39 38 39 39 39 39 40 40 40 41 40 38 37 38 36 39 25 10 17 26 27 24 22 23 24 22 19 24 29 31 29 36 33 30 35 35 35 32 30 32 31 24
36 39 38 38 38 37 38 38 38 39 39 39 40 40 40 41 35 37 38 34 23 17 15 22 24 23 23 21 22 21 20 19 20 21 24 29 31 33 35 31 34 33 27 19 20 23 19
35 37 38 38 38 37 38 39 39 39 39 39 39 40 40 39 39 39 34 26 16 12 17 27 28 26 22 24 22 19 21 19 24 21 23 22 18 30 34 30 28 33 28 22 19 21 24
32 35 38 37 38 38 38 39 40 40 40 39 39 36 35 36 39 37 28 18 13 22 32 30 28 21 23 22 22 17 19 20 21 22 17 20 15 27 32 31 30 32 29 32 29 26 26
32 36 36 36 38 39 39 40 40 41 41 39 36 34 33 37 39 34 23 17 22 25 33 32 26 26 22 18 20 22 24 27 21 25 20 20 20 27 32 32 34 33 36 29 30 22 21
33 36 35 38 38 40 40 40 41 41 41 39 33 29 30 38 38 29 18 19 22 26 33 29 28 28 28 21 27 27 29 26 23 25 23 22 20 24 31 30 29 31 30 33 33 30 25
36 35 36 37 38 40 40 40 41 42 40 36 30 22 33 39 28 26 21 22 25 26 33 32 31 31 29 26 29 32 32 28 25 24 22 25 26 22 23 27 32 33 31 31 28 27 30
34 36 36 36 38 40 40 41 42 41 39 34 27 29 33 37 21 23 24 22 25 24 20 29 28 32 32 27 27 32 32 32 28 22 22 26 27 21 26 29 30 31 34 34 34 33 26
36 37 35 36 38 39 40 41 42 40 40 33 28 21 23 33 32 27 24 21 17 27 26 26 30 32 30 27 24 27 31 30 29 25 27 25 25 21 18 23 27 27 31 33 34 28 29
34 36 34 34 37 38 40 41 41 41 40 32 28 22 26 21 24 25 28 25 23 22 30 30 31 31 29 26 28 26 26 25 27 28 27 24 20 24 24 24 28 27 28 30 29 32 29
30 31 32 33 36 38 39 41 42 41 39 31 25 24 27 26 25 25 26 25 26 27 30 30 27 28 30 28 28 27 28 28 28 27 25 26 21 23 22 21 27 23 22 20 21 22 25
32 31 35 33 37 37 39 41 41 41 36 30 31 31 27 23 21 19 25 25 24 29 30 28 26 27 25 30 31 30 30 31 30 28 24 25 23 22 16 21 20 9 17 30 31 32 33
35 31 32 32 36 37 40 40 41 41 35 31 31 29 24 19 21 20 19 22 20 21 27 27 32 28 34 37 33 30 29 28 29 28 29 24 24 24 20 21 8 7 16 30 28 32 35
32 32 32 34 35 37 40 41 41 41 41 31 33 28 26 21 23 23 21 21 21 20 26 29 33 37 37 33 24 18 20 20 21 26 28 28 25 20 17 17 15 16 26 30 29 29 39
33 34 31 34 35 37 39 40 41 42 42 38 33 33 32 25 19 24 22 21 18 25 25 27 32 36 34 30 26 16 9 18 17 19 29 29 27 23 21 17 11 12 32 34 33 27 37
33 35 31 34 35 38 39 41 42 43 42 41 37 34 34 27 26 25 24 24 29 28 26 28 30 32 33 26 22 22 20 23 15 19 22 24 26 23 23 20 22 28 33 34 19 27 37
33 35 32 34 35 37 39 41 42 43 42 42 39 36 35 27 26 26 26 21 23 29 26 27 25 29 30 25 24 24 23 23 24 22 22 21 22 22 22 21 18 35 34 28 34 33 35
33 34 33 34 35 37 39 42 43 43 43 43 38 37 37 32 28 32 30 28 29 32 29 27 28 31 31 28 29 29 26 26 26 19 30 25 30 27 26 24 35 36 35 35 32 31 32

GFSGBSN_sfc_30mbdewp_099.txt.gz
Dewpoint
44 43 44 46 45 44 43 43 43 43 43 44 45 46 46 45 45 45 45 46 45 43 42 42 42 43 41 36 31 29 36 34 45 47 35 27 27 27 25 26 29 29 27 26 26 25 25
44 44 43 44 45 44 43 43 43 43 43 43 44 45 45 45 44 44 44 45 46 44 42 42 42 42 40 29 30 30 31 32 27 44 39 32 25 24 21 19 19 22 25 23 27 26 26
43 44 46 45 45 45 44 43 42 43 42 43 43 45 45 45 44 44 44 45 45 45 43 42 42 42 37 30 33 31 31 32 31 26 26 40 32 24 23 21 22 21 20 19 19 21 21
40 42 44 44 43 42 42 42 43 42 42 43 43 43 44 44 44 45 45 46 45 44 43 45 46 41 35 36 37 37 37 35 35 34 28 23 31 35 29 25 20 26 27 24 26 23 22
39 40 41 41 42 42 42 42 41 42 43 43 43 43 43 45 45 45 45 45 42 42 46 47 43 40 34 37 35 38 38 33 31 32 31 27 27 24 17 18 16 24 21 24 24 25 23
39 37 38 38 38 38 38 39 41 41 42 41 41 41 42 43 44 44 44 42 40 45 44 42 41 38 34 26 36 38 39 36 30 30 26 24 25 22 17 15 12 15 21 24 23 23 24
37 37 40 39 38 38 38 39 41 41 40 40 40 41 41 41 42 43 42 31 30 29 33 31 30 32 33 33 36 35 34 34 31 25 18 24 21 19 19 18 17 21 23 23 25 26 26
36 36 37 38 37 37 38 39 40 40 40 40 40 40 40 41 42 42 37 32 33 35 29 34 34 34 33 32 30 28 34 27 25 19 22 21 20 22 20 19 18 18 17 17 21 22 23
35 36 36 37 37 36 37 38 38 38 38 39 39 40 40 41 42 36 36 33 36 36 31 31 31 31 34 35 32 26 31 25 29 25 23 20 24 21 19 17 17 16 15 16 15 17 23
35 35 34 35 36 38 38 39 39 39 39 39 40 40 40 41 34 38 32 35 38 37 26 23 28 31 31 33 32 30 29 23 21 27 27 26 25 20 16 16 16 15 16 14 18 22 18
34 34 35 37 39 39 39 38 38 39 39 39 39 40 40 41 38 36 34 38 37 40 11 13 25 31 31 27 21 29 28 25 17 26 26 24 28 28 24 24 19 22 30 25 27 26 28
34 36 38 38 39 38 38 38 38 38 39 39 39 39 39 39 38 37 38 38 37 22 7 13 28 29 27 27 24 27 26 23 21 29 30 29 36 32 29 35 34 34 31 31 32 29 22
36 37 37 38 39 38 38 38 39 40 39 39 39 40 39 40 32 37 38 33 19 14 16 18 23 27 27 25 21 24 23 22 22 19 23 29 32 33 35 33 35 33 26 21 20 23 16
36 34 37 38 38 38 38 39 40 41 41 40 40 40 38 38 39 39 34 24 13 8 15 27 26 28 28 23 21 20 20 18 23 21 22 22 23 31 34 29 30 30 26 19 12 19 23
33 32 37 36 37 38 39 39 40 41 41 41 40 35 34 35 37 37 27 15 12 19 27 29 25 27 30 22 23 20 20 17 22 23 20 20 19 30 32 32 31 32 27 32 26 27 23
33 33 37 36 38 39 40 40 40 41 41 40 34 33 30 37 39 32 21 15 18 21 26 32 24 27 22 27 29 22 22 25 19 24 21 20 24 29 31 33 35 32 34 28 29 22 20
31 33 36 36 38 38 40 40 41 41 41 40 32 25 32 39 38 29 18 17 18 21 26 28 26 25 27 27 30 23 29 25 24 24 23 22 23 28 31 29 30 32 31 31 30 29 24
33 36 35 37 37 38 40 40 41 42 40 35 30 17 31 38 25 26 21 20 22 19 19 18 31 29 27 29 30 31 29 29 31 25 23 28 25 24 26 30 32 32 31 30 25 27 28
33 35 36 36 36 38 40 41 42 41 37 32 27 27 32 37 20 22 24 24 23 19 21 23 26 29 29 28 27 32 32 34 33 24 26 29 26 26 28 29 30 30 33 33 33 33 27
33 34 38 35 35 38 39 40 42 41 39 33 26 17 22 33 31 25 23 22 21 25 23 28 30 30 30 30 32 30 31 32 32 30 29 28 26 21 20 23 27 26 30 31 31 28 26
33 36 35 34 33 36 38 40 42 42 39 31 27 21 26 18 22 25 26 26 25 25 28 32 30 31 30 27 28 28 31 30 30 29 27 25 21 23 24 24 28 26 25 25 22 25 25
34 34 30 32 33 35 38 39 41 41 38 29 23 22 27 26 25 23 24 21 20 24 28 29 28 29 30 29 30 28 30 29 28 26 26 26 22 23 19 22 25 21 21 17 20 24 25
36 32 31 34 33 36 38 39 41 41 35 29 30 31 26 22 20 19 21 20 21 25 24 31 31 29 28 32 34 34 32 31 30 28 24 24 23 19 13 22 20 11 16 16 27 31 31
33 35 33 32 31 34 37 40 41 41 35 31 31 29 24 17 20 18 19 21 20 22 19 28 33 31 33 36 35 33 30 28 28 28 29 25 23 23 18 19 3 11 18 24 23 27 34
34 36 31 31 31 36 36 40 40 41 38 32 32 28 25 20 22 20 21 21 22 19 25 27 32 34 36 33 25 17 19 20 24 29 29 28 25 22 17 16 15 18 30 27 27 21 36
34 35 31 34 31 36 36 40 41 41 42 37 34 34 31 25 19 23 24 24 21 24 26 27 31 34 33 28 25 17 16 19 17 22 29 28 27 22 22 16 10 20 30 34 34 22 35
35 34 34 35 31 34 36 39 39 41 41 40 37 35 34 27 26 25 23 23 27 27 25 27 28 31 32 26 23 22 20 23 18 19 22 24 26 23 23 18 20 31 33 34 12 23 35
38 32 33 36 32 34 35 37 39 41 41 41 38 37 35 28 26 26 25 21 22 27 24 27 25 28 30 25 25 25 24 25 24 25 26 23 22 23 22 20 17 34 32 28 32 33 34
34 32 33 35 33 34 36 37 40 41 42 43 38 37 38 32 30 32 30 28 26 28 29 27 28 30 31 26 26 27 25 27 25 21 29 25 29 26 27 27 34 35 33 34 33 31 31

GFSGBSN_sfc_30mbdewp_102.txt.gz
Dewpoint
44 43 46 46 44 43 43 43 43 43 43 44 44 44 45 45 44 44 44 45 44 43 43 43 43 42 40 30 25 13 32 26 21 35 32 28 26 26 25 26 26 25 23 21 22 20 18
44 45 44 45 44 44 44 43 42 43 43 43 44 44 45 45 44 43 43 44 45 44 43 43 43 43 37 29 21 24 26 25 22 33 29 29 25 27 25 25 24 24 25 23 22 21 21
43 46 46 45 44 43 42 42 43 43 42 42 43 43 44 44 43 43 43 43 45 45 44 43 44 42 36 29 23 23 23 23 25 26 25 32 26 24 24 22 23 21 19 19 20 22 22
42 44 44 43 42 42 43 43 42 42 43 43 43 43 43 43 43 43 43 44 44 44 43 47 47 42 32 31 31 29 28 28 27 26 23 24 30 31 24 23 23 20 21 20 22 22 21
40 40 41 40 40 39 39 40 42 41 41 41 41 41 41 43 44 44 44 44 44 41 47 47 43 41 28 35 33 34 36 34 27 26 24 22 19 30 30 27 21 22 20 22 22 25 23
38 38 38 38 38 38 38 41 42 41 41 40 40 40 40 41 43 43 44 43 37 44 41 40 39 36 32 19 29 33 36 36 33 27 21 20 18 20 24 22 19 18 18 20 21 22 23
38 38 41 39 38 38 39 39 41 40 40 39 39 39 40 40 41 43 39 27 23 25 28 23 20 25 21 21 20 21 35 32 32 26 2 14 11 13 17 20 19 16 14 15 17 22 24
37 36 37 37 38 36 36 36 38 38 38 39 39 39 40 40 41 42 33 27 31 34 29 27 26 27 27 27 26 21 22 26 28 17 11 14 8 9 13 19 18 14 13 14 15 18 19
36 36 36 36 35 36 37 38 39 39 39 39 40 40 41 41 41 35 32 29 34 35 29 21 23 25 27 31 28 25 20 25 25 19 17 9 5 5 10 15 16 14 13 14 15 16 16
35 35 34 36 37 39 39 39 38 38 38 39 39 40 40 40 34 32 26 33 34 37 24 13 22 28 30 30 28 29 22 25 23 21 20 15 18 19 18 15 16 12 16 17 15 13 11
35 35 35 37 39 39 38 38 38 39 39 39 39 39 39 41 34 27 28 34 35 39 1 10 22 32 30 29 27 24 27 21 21 24 26 21 22 20 19 17 17 15 20 16 16 17 20
34 36 38 38 38 38 38 38 39 40 40 40 40 40 40 33 31 32 35 37 36 21 -2 4 14 23 20 25 28 25 26 22 23 26 25 28 30 24 23 26 19 28 27 28 27 23 20
35 36 37 38 38 38 37 38 39 40 41 41 41 40 37 33 28 37 38 30 15 4 -3 9 20 19 19 24 23 23 22 20 19 22 23 27 31 32 32 32 32 28 25 21 22 23 15
37 34 35 38 38 38 39 39 40 41 41 41 41 39 35 35 37 39 34 19 6 -7 4 16 18 20 25 31 26 22 20 14 19 16 18 18 22 31 33 27 26 27 22 17 9 13 14
38 32 34 37 36 38 39 40 41 41 42 42 39 32 33 37 40 38 26 11 -1 7 17 18 20 18 24 25 32 20 17 10 16 19 16 18 20 30 31 31 27 27 27 28 26 26 22
35 32 36 36 37 38 39 40 41 41 42 40 31 30 32 40 40 33 22 14 12 13 13 17 20 25 21 22 29 19 15 13 17 21 22 19 23 28 31 31 33 28 30 26 26 21 17
33 33 36 35 37 38 40 40 41 42 41 39 32 24 34 40 38 28 20 16 18 18 17 23 20 18 25 24 28 29 21 18 19 23 22 23 23 30 30 27 26 30 28 29 28 28 21
33 32 36 35 37 37 40 40 42 41 39 36 30 22 33 39 26 26 20 21 22 18 16 22 21 24 26 27 25 28 28 26 29 22 21 27 26 25 25 29 29 28 27 27 24 25 26
35 34 35 37 36 37 39 40 42 41 38 32 26 24 31 37 20 19 21 21 22 22 21 25 26 29 30 27 25 33 30 30 27 26 27 29 25 24 26 29 30 27 29 31 34 32 26
34 33 36 36 35 37 38 39 42 41 38 32 30 22 23 31 29 23 21 21 20 24 25 28 32 32 31 30 32 30 33 31 31 29 31 27 25 21 17 22 27 27 27 28 29 26 23
35 34 37 35 33 34 37 39 41 42 38 31 30 24 25 21 20 24 22 20 18 23 27 32 32 31 30 28 29 29 32 33 32 31 30 27 20 20 20 22 22 22 21 21 18 20 21
35 37 36 33 31 33 37 39 40 42 37 30 29 22 24 20 22 21 22 19 15 24 28 26 29 29 27 26 29 28 31 31 30 30 29 29 20 15 14 20 20 17 16 11 13 20 24
34 35 32 33 32 34 37 38 40 42 36 31 31 31 25 19 14 15 21 18 17 18 21 22 28 27 25 29 32 32 33 32 30 29 24 22 19 12 13 14 13 8 12 16 19 21 27
35 36 33 33 35 32 35 38 41 42 37 32 29 27 25 20 17 16 17 16 16 18 18 20 28 27 28 34 33 29 29 27 26 27 28 20 16 16 12 16 2 13 23 21 19 27 34
36 33 34 32 31 32 36 37 41 41 39 33 32 29 25 23 19 16 19 20 18 17 20 26 27 30 34 32 24 12 18 19 24 27 26 26 20 17 12 9 15 25 27 26 25 26 33
34 34 36 31 33 32 37 37 40 40 42 38 35 33 31 25 18 20 21 22 20 22 20 25 28 34 33 28 24 15 13 15 14 20 26 26 25 18 17 11 9 25 27 29 29 23 32
34 34 36 32 34 32 36 36 40 40 41 39 37 36 35 29 25 25 20 20 23 23 22 25 27 29 31 27 20 18 15 21 16 14 19 22 24 20 20 17 21 30 29 30 20 25 34
34 35 36 34 36 31 32 36 37 39 40 41 39 37 35 31 27 27 26 23 22 23 21 24 27 27 27 23 22 23 22 23 21 25 25 21 21 21 20 19 20 33 29 27 32 32 33
33 38 36 34 35 33 33 36 37 39 40 43 38 38 38 34 30 33 31 30 27 26 26 26 26 28 28 25 25 26 24 26 25 19 27 25 28 26 26 25 29 31 29 31 31 29 30

GFSGBSN_sfc_30mbdewp_105.txt.gz
Dewpoint
46 46 46 45 44 43 43 43 42 43 43 43 44 44 45 45 44 44 43 44 44 43 42 43 43 44 40 24 23 21 35 29 21 19 30 31 27 21 20 24 23 22 23 23 23 21 20
44 44 46 45 44 44 44 42 42 44 43 43 43 44 44 44 44 43 43 44 44 43 42 43 44 45 37 26 24 17 16 20 17 6 25 25 26 24 20 21 24 24 23 24 24 23 22
44 46 45 45 44 43 42 43 44 43 43 43 43 43 43 43 43 43 43 43 44 44 43 43 46 44 35 25 22 16 17 19 14 16 15 24 27 25 24 24 25 25 23 24 23 24 22
44 46 45 44 43 43 43 42 42 42 42 41 42 41 41 42 42 42 43 44 44 44 43 44 48 43 30 25 25 24 22 20 20 20 15 19 25 29 24 24 23 21 22 20 21 20 21
43 44 43 42 41 39 39 39 42 41 41 41 41 40 40 41 42 43 44 44 44 43 41 46 44 40 28 31 30 28 27 26 26 25 18 17 18 26 27 24 21 21 18 18 18 20 20
41 40 40 39 39 38 40 42 42 41 41 40 40 40 40 41 42 43 43 43 36 38 41 38 35 35 31 21 24 28 31 31 33 29 20 14 16 13 16 22 19 19 18 18 18 21 21
39 39 39 38 38 38 38 38 39 39 39 39 39 40 40 41 41 42 40 26 22 23 27 21 16 26 17 13 13 14 13 26 31 28 19 11 11 6 8 18 22 20 19 18 18 19 21
39 39 39 38 38 37 36 37 38 39 39 40 40 40 40 41 41 41 37 25 26 30 28 24 21 20 19 20 22 22 18 19 25 23 18 4 3 4 7 12 19 19 19 17 15 14 20
38 37 37 37 36 37 38 39 39 39 39 39 40 40 40 40 40 37 28 27 28 30 26 17 15 17 20 28 27 26 21 17 20 23 17 -1 3 1 4 9 15 19 17 15 10 12 14
38 37 36 36 37 39 39 38 38 38 39 39 40 40 40 41 36 26 23 26 30 33 24 4 18 25 30 29 27 27 25 16 15 18 19 8 2 8 5 9 14 16 19 13 9 12 11
37 37 36 38 40 40 38 39 39 40 40 40 40 40 40 40 32 26 25 29 32 35 7 1 15 29 26 24 22 25 24 15 12 17 18 14 6 8 8 11 11 14 12 10 13 14 12
36 36 37 39 39 38 38 38 39 40 41 41 41 41 39 30 29 28 33 35 32 23 4 -3 6 16 17 15 16 20 22 24 12 17 18 17 18 16 11 13 17 14 16 16 15 13 13
35 37 39 38 39 38 37 38 39 40 41 42 42 41 37 32 29 36 37 29 14 11 -1 0 8 9 9 16 24 25 25 21 11 15 26 20 25 19 17 17 19 16 19 18 18 16 13
36 36 37 38 38 38 39 39 40 41 42 42 42 40 37 33 36 38 33 19 4 -4 -3 5 6 7 15 25 24 28 20 14 13 13 19 18 26 25 26 20 18 21 21 15 12 11 9
37 35 35 38 37 38 39 40 41 41 42 42 41 32 30 36 39 36 27 11 2 4 7 8 9 13 18 20 25 30 27 13 11 16 28 19 27 31 27 24 26 28 22 20 25 24 21
39 34 35 37 36 38 39 40 41 42 42 42 31 26 29 38 39 34 22 12 9 10 11 12 14 14 18 20 25 25 20 13 10 17 29 23 23 27 27 28 28 28 24 23 24 16 11
36 34 37 36 37 38 39 41 41 42 41 39 32 22 32 37 37 27 21 13 14 15 15 16 17 21 23 24 27 24 14 8 10 20 20 24 24 25 27 25 23 27 26 28 26 26 20
35 34 35 36 37 37 39 40 42 42 40 37 28 24 31 36 30 22 17 17 20 20 22 22 24 27 27 29 27 28 25 9 16 16 15 19 22 24 28 21 23 22 22 24 20 22 22
34 33 35 36 37 37 39 40 42 41 40 32 23 19 30 35 20 18 17 18 18 21 21 25 29 32 32 29 25 29 31 29 25 21 20 21 23 23 29 25 29 27 25 28 31 29 25
35 34 36 37 36 37 39 39 41 42 41 34 30 25 21 25 26 21 19 17 18 24 26 27 31 33 32 30 31 29 33 33 31 29 31 28 25 23 20 19 24 25 27 27 26 25 24
35 34 35 38 35 35 37 39 40 42 41 34 32 24 22 22 22 22 20 17 17 22 25 27 31 25 29 27 27 29 32 32 30 33 30 28 26 29 27 25 25 25 26 25 25 22 19
35 35 36 37 34 33 35 39 40 42 40 32 29 23 22 17 20 20 22 17 15 18 25 24 23 24 23 22 26 27 30 30 32 33 31 29 17 17 17 19 21 20 17 12 11 15 20
36 35 37 35 32 33 35 38 39 42 40 29 27 27 23 18 13 14 19 15 14 16 20 19 24 24 21 26 30 31 30 30 28 27 30 28 19 17 15 12 11 10 14 16 16 30 31
37 36 35 34 33 34 35 38 39 41 41 33 28 26 22 19 13 14 14 14 14 13 14 19 24 24 25 31 30 26 28 26 25 25 25 18 18 13 11 13 6 19 21 20 27 29 31
37 35 35 34 35 33 33 37 38 41 42 36 31 29 24 21 15 14 17 16 17 17 18 20 24 26 32 30 24 16 18 21 18 22 22 23 18 15 10 8 15 24 24 24 23 30 30
36 37 34 36 32 33 35 37 38 40 42 38 33 35 31 26 18 19 19 17 17 18 19 20 25 30 31 26 22 13 13 16 13 17 20 21 21 16 15 8 16 28 28 27 26 26 32
36 35 34 36 34 34 34 37 37 40 41 40 39 38 34 30 24 24 21 21 20 19 18 20 24 28 29 26 22 16 15 16 14 13 16 18 20 18 17 14 25 30 31 30 26 24 33
36 35 36 37 34 35 34 37 38 39 40 41 38 38 35 32 27 27 27 25 23 22 20 21 25 26 27 23 22 22 22 21 22 20 22 22 25 21 20 17 22 30 29 27 29 31 32
36 35 36 37 36 36 33 35 36 38 40 42 38 39 38 35 29 35 34 33 31 29 27 23 25 28 28 27 26 26 25 23 22 26 25 25 26 26 26 24 29 31 29 31 31 30 31

GFSGBSN_sfc_30mbdewp_111.txt.gz
Dewpoint
52 51 49 48 46 45 44 43 43 44 44 43 44 44 44 44 43 42 42 42 42 42 42 42 43 44 43 34 31 29 34 39 37 28 21 17 16 31 33 26 21 13 18 24 27 27 27
52 51 49 46 46 45 44 44 42 44 43 44 44 43 43 42 41 42 42 42 42 42 42 43 44 44 41 25 29 27 27 33 32 26 16 12 11 7 13 26 28 20 16 16 22 25 26
51 49 48 47 45 44 45 43 44 43 43 42 42 42 42 42 42 42 42 42 43 42 43 43 44 42 38 29 32 32 32 31 27 21 13 13 12 7 9 15 23 25 22 21 19 19 23
50 49 47 47 45 45 43 43 42 42 41 41 41 41 41 41 42 42 43 44 45 43 44 45 45 44 35 35 36 34 32 29 25 23 20 16 15 14 14 14 15 19 21 21 21 20 20
49 47 47 46 45 44 43 42 42 41 41 41 40 41 41 42 42 44 44 43 44 44 45 45 43 42 37 37 35 34 32 26 23 22 20 16 13 13 14 11 15 20 20 21 21 22 20
48 46 46 46 45 43 41 40 42 41 40 40 40 41 41 41 42 43 43 43 42 44 42 37 37 36 39 31 28 20 20 16 26 27 23 25 17 13 12 9 11 17 22 21 20 22 23
47 47 48 46 43 41 40 42 41 39 39 40 41 41 41 40 41 42 43 36 23 25 24 22 26 30 28 24 21 18 18 16 15 13 9 18 26 20 16 10 9 16 20 21 20 22 21
47 48 47 44 42 41 41 40 39 39 40 40 40 40 40 41 41 43 41 23 24 27 26 25 23 23 23 22 20 20 19 15 14 13 14 8 16 24 20 13 8 9 10 11 15 17 20
47 46 45 43 43 41 40 38 39 40 39 39 40 41 42 42 42 40 30 24 29 32 26 23 19 18 29 28 23 23 26 32 29 17 17 14 8 22 22 14 7 6 7 9 11 14 23
45 45 43 43 42 40 38 39 39 39 39 41 41 42 42 43 38 35 27 33 32 33 25 19 18 27 21 4 14 15 28 33 31 29 27 16 11 11 18 16 10 3 4 6 9 11 25
43 44 45 43 40 39 40 39 38 40 41 41 42 43 43 42 36 33 34 37 35 34 7 1 1 25 9 6 7 8 22 23 28 31 28 28 14 10 14 19 10 3 5 5 16 30 29
44 44 43 41 39 41 39 39 40 40 41 42 43 43 42 38 39 36 38 39 37 24 4 1 7 8 10 13 25 24 22 26 29 30 27 25 19 11 16 24 27 9 10 27 27 26 24
44 43 41 39 41 41 39 39 40 40 41 42 43 44 42 39 34 38 39 36 24 4 5 5 7 11 13 16 22 26 23 23 23 22 21 21 18 12 24 24 27 16 21 20 19 22 17
43 41 39 41 40 39 38 38 39 40 41 42 43 44 40 38 39 40 38 30 12 6 6 10 15 16 15 20 24 25 25 23 25 25 25 18 5 14 27 26 23 15 20 21 15 19 18
42 39 39 39 39 39 39 39 40 41 42 43 43 39 39 39 39 39 34 20 7 9 11 15 18 19 19 23 28 28 25 23 25 27 24 17 8 30 30 31 23 15 16 25 27 27 24
40 38 42 39 37 38 38 39 40 41 42 42 36 37 36 38 39 39 30 22 13 15 17 19 20 23 23 25 27 27 28 29 30 27 26 31 20 33 30 33 31 17 19 20 28 21 21
39 41 38 40 38 37 38 40 41 42 42 40 37 33 36 37 40 36 23 15 16 18 25 24 25 26 26 26 27 25 25 28 34 31 31 33 28 32 34 29 24 28 25 29 33 30 25
38 38 36 40 37 37 38 40 41 42 41 40 37 28 34 38 31 32 23 16 19 22 24 24 28 31 29 29 27 27 26 31 36 33 29 34 31 29 31 36 35 36 31 30 28 28 30
41 38 37 39 37 38 38 40 41 42 41 38 33 31 33 38 25 22 22 22 20 22 24 23 26 28 30 29 24 28 30 33 36 34 34 35 32 25 25 33 36 33 33 34 34 34 30
41 38 39 38 37 37 37 39 40 42 42 38 34 26 29 31 25 23 21 21 20 21 22 24 24 27 26 26 28 29 30 32 33 33 35 36 32 30 26 29 31 29 31 32 34 28 30
40 38 36 37 38 37 37 38 40 41 42 38 33 29 27 23 24 21 21 21 17 16 20 23 22 23 23 21 25 27 32 32 30 32 32 33 30 31 32 32 33 32 32 33 31 30 28
38 38 37 38 38 37 36 38 39 40 42 37 17 31 19 18 19 17 24 22 15 15 17 19 21 22 23 21 25 27 30 31 28 30 31 32 30 30 29 31 31 31 28 29 31 34 32
38 37 38 38 38 35 35 37 39 40 41 37 33 27 26 23 17 17 21 15 15 17 16 16 22 23 22 23 28 29 31 32 32 31 30 28 28 27 24 27 26 26 28 28 30 31 31
38 37 37 38 37 34 34 37 39 41 42 41 37 35 27 22 22 14 14 15 15 16 18 20 24 22 25 30 31 30 30 29 25 31 30 26 26 22 19 21 20 27 30 29 29 30 31
39 38 36 38 35 34 35 37 38 40 41 40 38 35 30 26 22 18 15 16 19 22 20 24 24 25 31 30 28 24 23 23 24 27 27 29 25 21 20 24 28 26 25 27 28 26 31
39 38 37 38 36 36 35 36 38 40 40 40 39 40 33 28 28 26 22 24 21 20 21 25 24 30 30 30 27 20 16 20 23 24 25 26 29 24 21 20 19 24 26 28 31 21 31
39 38 38 38 37 37 36 37 38 40 41 39 39 40 35 30 32 28 25 24 25 26 25 25 26 27 30 27 23 20 21 22 25 23 24 24 27 23 26 23 23 27 27 28 21 22 31
39 39 38 38 38 37 37 37 39 40 41 41 39 39 37 32 30 34 32 29 28 27 26 27 25 27 27 26 23 24 25 25 28 26 26 25 25 22 23 20 17 29 27 23 29 31 32
39 39 38 38 38 37 37 37 39 39 40 41 38 40 39 34 32 35 34 35 34 32 30 30 28 31 31 26 26 25 26 25 25 23 28 24 27 23 24 23 29 31 30 32 32 30 30

GFSGBSN_sfc_30mbdewp_114.txt.gz
Dewpoint
53 52 52 52 51 48 47 45 44 44 44 44 44 44 44 43 42 42 42 43 43 43 43 43 43 44 42 33 22 31 38 39 45 30 22 19 18 24 32 27 22 11 9 11 15 22 28
52 52 53 51 49 47 46 44 43 44 44 44 44 43 43 42 42 42 42 43 44 43 43 43 44 44 40 19 26 30 31 32 32 32 26 21 16 12 9 8 20 28 25 20 16 15 16
53 53 52 50 48 47 46 45 43 45 43 43 42 42 42 42 42 42 42 42 43 43 44 45 45 44 38 27 28 30 35 34 32 29 25 21 14 12 10 11 13 16 22 26 25 23 19
53 54 52 49 48 47 46 44 44 43 42 42 42 41 41 42 42 42 42 43 44 44 44 45 46 43 35 37 37 36 35 33 30 26 24 23 20 16 14 14 13 10 13 15 20 23 24
53 53 51 49 48 47 46 44 44 43 41 41 40 41 41 42 42 43 44 45 45 46 46 46 44 42 35 40 36 28 28 28 18 22 24 21 19 15 13 11 10 10 7 11 17 22 23
53 52 51 50 48 46 44 44 43 42 41 40 40 41 42 41 42 43 44 44 42 41 42 42 39 36 37 26 28 23 20 19 18 16 15 21 21 18 14 11 8 6 8 14 19 22 23
53 52 51 49 47 45 44 42 43 42 40 40 41 41 41 41 42 43 44 34 22 19 25 16 16 22 22 22 23 21 22 20 19 15 11 12 9 9 20 17 12 11 9 9 15 20 19
52 51 50 49 46 44 42 43 43 40 40 40 40 41 41 42 42 44 40 24 26 28 21 26 26 24 23 23 21 17 22 21 22 23 28 22 12 11 9 19 21 14 11 8 9 14 15
51 50 49 47 45 43 43 42 41 40 40 39 40 41 42 43 43 39 31 30 31 31 24 23 22 19 21 24 7 8 24 29 28 27 26 25 26 18 10 9 19 20 13 9 5 6 8
50 50 49 47 44 44 43 41 40 40 39 40 42 42 43 43 35 35 32 36 35 32 17 5 16 23 20 11 10 13 25 27 30 21 25 29 31 28 21 13 11 26 19 11 6 7 6
50 49 47 45 43 43 41 40 40 39 40 41 42 43 43 43 36 33 34 37 38 33 -2 5 6 18 14 13 16 19 23 25 21 21 27 20 23 26 26 12 12 22 27 15 6 4 18
48 46 44 45 44 42 42 41 40 40 41 42 43 43 43 39 39 36 38 39 35 14 -5 6 9 12 18 18 18 22 25 26 25 25 29 27 27 26 25 18 16 22 25 23 26 24 20
44 43 43 44 44 43 42 41 41 41 41 42 43 44 43 40 34 38 40 35 14 0 8 7 10 16 19 18 22 24 24 25 23 19 22 23 23 24 21 15 17 24 25 17 12 19 17
44 45 44 43 42 43 41 41 40 40 41 42 43 44 41 40 39 40 37 26 1 7 8 11 17 19 18 21 25 27 27 24 25 23 23 22 12 15 17 13 15 19 21 13 12 17 17
43 42 42 41 43 41 41 40 39 41 42 43 42 39 37 40 39 39 32 9 7 11 13 19 20 22 22 23 26 28 27 26 28 28 23 22 14 24 27 31 30 24 21 21 19 25 20
42 41 41 43 42 41 40 40 40 41 42 42 34 36 36 38 39 38 26 16 14 17 24 24 20 25 23 23 24 26 25 27 33 35 28 28 18 27 29 33 31 32 25 20 25 15 16
41 40 42 41 40 39 39 40 41 41 42 41 36 32 36 38 40 32 17 15 16 25 24 24 25 25 26 27 25 26 25 29 34 35 35 33 27 21 30 28 25 23 22 26 24 27 22
40 42 42 40 39 38 39 41 41 42 41 39 36 30 35 39 30 30 22 18 20 23 25 24 26 28 28 28 25 26 27 32 34 36 33 34 31 24 31 36 36 34 28 28 18 23 28
41 38 41 39 38 37 39 40 42 42 41 38 34 30 34 37 23 22 23 22 23 22 23 23 24 28 27 28 23 25 28 32 34 32 33 35 31 25 28 32 35 32 32 29 34 32 29
41 38 39 39 38 38 39 40 41 42 42 37 33 26 29 32 27 23 22 21 20 21 21 22 23 25 24 23 29 25 28 31 32 33 34 37 30 28 23 26 32 32 30 33 33 27 25
40 39 40 38 37 36 38 39 40 41 42 37 30 28 26 23 24 20 22 22 17 15 19 21 22 23 22 21 22 25 29 29 32 31 32 33 28 30 32 33 33 31 32 33 32 31 25
40 39 39 38 37 35 38 39 40 41 42 36 23 28 22 20 25 18 23 22 14 15 18 15 19 23 21 22 23 24 26 28 30 31 30 31 27 31 29 32 31 28 30 31 31 30 28
40 38 37 38 38 37 36 38 39 41 41 37 36 33 26 25 18 17 23 17 15 19 18 20 23 21 21 23 26 27 28 29 30 30 30 27 27 28 24 30 28 21 27 28 28 30 30
39 37 37 37 38 36 35 38 40 41 41 40 37 35 27 21 22 17 18 15 17 20 22 23 24 23 25 29 31 31 30 30 30 30 32 27 27 25 25 26 15 26 32 29 27 29 30
39 38 37 38 37 35 36 38 39 40 41 39 38 34 30 24 26 23 24 24 21 22 22 23 23 26 30 30 28 24 21 21 25 27 28 29 29 24 24 23 25 23 26 26 26 25 30
40 39 38 39 37 37 38 38 39 40 40 39 39 39 32 27 27 29 24 24 23 24 23 25 26 29 30 29 27 21 20 21 23 25 28 28 28 28 26 19 16 23 26 28 29 20 30
40 39 39 39 37 38 37 38 39 40 41 39 38 39 32 27 32 30 27 25 26 26 25 26 26 28 30 25 22 22 22 27 24 24 25 25 27 22 24 21 23 26 28 30 20 21 30
40 39 40 39 39 37 38 38 40 40 41 39 38 39 34 29 29 34 33 29 29 28 25 27 24 27 27 25 23 23 25 26 27 27 27 25 24 21 21 16 15 29 26 24 27 30 31
40 39 40 39 39 38 39 39 40 41 41 40 37 40 38 31 29 36 33 32 33 32 30 30 31 31 31 25 25 24 25 27 25 23 29 23 24 23 24 22 29 30 29 32 31 28 24

GFSGBSN_sfc_30mbdewp_117.txt.gz
Dewpoint
56 55 54 52 52 52 51 49 47 45 44 44 44 44 44 44 43 42 43 43 44 44 44 43 44 45 41 25 11 29 36 33 36 36 26 22 18 25 30 22 23 11 7 8 12 12 11
56 55 54 53 52 52 50 48 46 44 45 44 44 44 43 43 42 42 43 43 43 43 43 44 45 45 38 7 25 30 33 35 31 31 28 23 19 15 11 10 17 22 13 13 13 18 23
56 55 54 53 53 52 50 48 46 44 45 44 44 43 42 42 42 42 43 43 43 44 45 45 46 44 38 25 32 37 37 34 33 30 25 24 20 15 13 13 14 13 10 10 9 12 21
56 55 54 53 53 51 50 48 46 44 45 44 42 42 41 42 42 43 43 43 44 45 46 46 46 43 32 38 37 39 34 30 29 29 27 25 23 19 16 15 13 11 10 7 9 14 16
56 55 54 54 52 50 49 48 46 45 44 42 42 41 41 42 43 43 43 44 45 46 47 47 44 41 31 39 36 30 25 21 18 18 19 20 21 18 15 12 11 10 7 7 8 9 14
57 55 54 54 52 50 49 48 45 45 43 42 40 41 42 42 42 44 45 45 42 40 45 44 42 36 33 18 23 25 23 20 19 18 16 13 14 17 16 13 14 13 7 5 6 9 15
57 55 54 54 51 50 48 46 46 45 43 41 40 41 41 41 43 44 45 29 18 15 22 10 23 23 20 21 23 21 22 21 19 17 15 16 13 10 9 13 16 17 16 15 13 12 11
57 55 54 53 51 49 47 46 45 44 42 40 41 40 41 43 43 44 38 27 24 25 17 22 25 24 24 23 20 16 22 19 23 18 26 25 19 19 17 14 11 11 19 18 17 17 15
56 55 54 52 50 48 47 45 45 43 40 41 40 41 42 43 44 36 32 31 32 30 22 22 24 22 21 22 14 11 20 26 22 24 25 22 18 22 22 17 14 10 7 13 21 20 14
55 54 53 51 50 48 45 46 43 41 41 40 41 42 43 43 34 35 33 37 35 31 15 5 17 21 17 16 14 16 20 22 29 22 21 22 24 27 28 25 20 16 16 14 24 24 13
54 53 51 50 48 46 46 45 44 43 41 41 42 43 44 44 33 32 34 38 38 31 -4 7 7 14 18 17 19 19 25 27 22 22 23 20 20 22 20 21 24 22 17 17 23 24 16
53 51 50 48 46 46 45 44 43 40 41 42 42 43 44 40 38 35 38 39 34 10 -7 7 10 14 19 20 20 22 25 27 26 24 23 23 24 26 25 23 23 22 23 25 26 21 13
51 50 48 47 45 44 43 42 41 42 42 42 42 44 43 41 33 39 39 34 8 -4 9 8 13 18 20 21 23 27 27 27 25 22 19 24 24 27 27 26 24 22 19 17 13 13 16
49 47 46 45 44 44 42 40 40 41 41 42 43 44 41 40 39 39 36 24 -1 8 9 11 18 21 20 24 24 27 27 26 29 28 25 22 17 19 19 24 16 14 19 18 11 13 13
47 46 45 43 42 42 40 40 40 41 41 42 43 39 36 39 39 39 26 6 6 11 14 21 21 22 22 23 25 26 26 25 33 35 25 25 20 22 28 29 20 22 18 20 18 20 20
43 43 43 43 43 40 40 40 41 40 42 43 34 37 36 39 40 36 23 13 13 19 24 24 21 25 22 23 24 26 25 27 33 35 36 28 25 26 29 29 31 27 30 21 21 11 14
43 42 44 44 41 41 41 40 40 41 42 40 35 32 36 40 39 29 14 14 17 25 24 24 24 25 26 26 26 24 26 28 34 32 34 33 30 22 28 23 25 27 27 27 21 21 21
42 44 42 42 40 41 41 40 41 42 42 37 36 29 36 39 28 29 20 21 19 24 24 25 25 27 26 26 25 24 26 28 32 32 31 35 32 26 28 34 36 34 27 25 16 17 26
43 41 41 40 40 39 40 41 42 42 41 38 32 29 35 36 24 24 22 23 23 21 23 23 23 28 28 26 22 25 26 30 31 31 31 34 31 24 22 29 32 31 31 33 32 31 26
44 42 40 39 37 39 41 41 42 42 41 37 32 20 28 32 28 22 21 21 19 21 20 23 22 24 23 21 28 25 26 28 30 32 35 37 32 28 23 27 31 30 30 33 29 24 23
41 41 40 39 38 40 40 41 42 42 41 36 30 25 26 23 24 21 23 21 16 14 18 21 22 22 22 19 21 24 25 27 28 32 31 34 29 29 29 30 30 30 33 32 29 29 23
40 41 40 39 38 38 40 40 41 42 41 35 28 26 22 25 24 19 22 21 14 15 17 15 19 22 22 19 20 21 24 25 27 30 30 30 29 31 27 27 25 25 28 30 28 26 25
40 40 40 38 37 38 39 40 41 41 40 36 35 33 24 24 21 18 23 18 14 18 20 23 23 23 22 22 25 26 26 27 28 28 30 29 28 28 24 27 25 18 25 26 26 29 29
40 39 38 38 36 37 37 40 41 41 41 38 37 33 24 22 20 17 21 17 19 21 21 22 24 23 24 28 31 31 30 30 30 29 31 30 28 26 26 26 14 24 29 29 26 27 29
40 38 38 38 37 36 37 40 41 41 41 38 38 33 28 24 26 25 23 22 22 23 22 24 23 25 29 30 27 23 21 22 25 27 26 29 30 28 23 20 24 24 25 25 25 23 28
40 39 38 39 38 38 38 39 40 41 41 39 38 37 31 25 26 30 23 24 22 23 21 24 27 30 30 25 24 21 21 24 24 24 28 28 28 28 26 19 16 22 26 31 28 19 29
40 39 39 39 38 39 38 39 40 40 41 38 38 38 31 28 31 29 25 23 26 26 24 25 26 28 29 23 22 22 22 27 23 23 25 24 25 22 23 20 22 25 28 33 21 20 30
40 39 40 39 39 38 38 40 41 41 41 38 38 39 31 28 28 34 33 28 28 27 21 25 22 26 26 23 22 23 25 26 27 27 27 23 22 20 21 16 16 28 26 23 27 30 31
40 40 40 39 39 39 39 41 42 42 41 39 36 39 36 28 27 35 34 32 32 31 29 29 29 30 30 23 23 25 24 27 25 22 28 22 23 22 23 21 27 30 29 31 29 23 23

GFSGBSN_sfc_30mbdewp_123.txt.gz
Dewpoint
59 59 58 57 57 56 55 54 53 52 51 50 47 45 44 44 44 44 43 44 44 44 45 45 46 46 36 5 5 22 40 37 33 30 26 23 18 25 19 23 22 22 21 14 13 11 10
57 59 58 57 57 57 55 54 53 52 52 50 47 45 45 45 44 42 43 44 44 45 46 46 46 46 31 0 21 34 37 32 31 27 26 23 19 18 17 15 11 13 12 13 12 11 11
52 55 59 58 57 57 56 54 53 53 52 49 47 45 45 44 43 42 43 44 44 45 46 46 46 44 31 17 32 38 38 31 32 27 20 24 23 19 16 14 16 15 12 10 6 8 8
50 51 53 57 57 57 56 54 53 53 52 49 46 46 45 43 42 43 43 44 45 47 48 47 46 42 14 34 38 36 36 23 32 29 27 25 23 20 19 18 15 12 13 7 6 7 8
47 48 51 52 54 57 56 54 54 53 51 49 46 46 44 43 43 43 44 45 47 48 48 47 41 37 21 33 27 27 30 19 21 20 22 22 22 20 16 16 16 14 6 8 9 10 12
47 47 48 50 52 56 56 55 54 53 51 49 47 45 43 42 43 43 45 46 48 46 45 43 42 26 21 19 21 22 23 23 20 20 17 16 16 16 16 15 5 5 8 9 10 12 13
47 46 47 48 51 53 57 55 54 53 50 48 46 44 42 42 42 44 37 36 23 20 36 13 13 23 19 20 23 20 21 21 20 18 12 17 11 7 10 13 10 11 11 10 11 12 12
47 47 47 48 49 51 54 55 54 52 49 48 46 42 42 41 42 44 33 19 14 18 4 21 22 22 23 23 18 18 22 17 21 17 23 21 14 14 16 16 15 15 15 14 14 15 14
48 47 46 47 49 51 52 56 54 51 49 47 44 42 41 42 43 35 29 27 31 28 11 17 22 21 22 22 18 14 19 23 22 21 22 16 14 19 18 17 16 15 18 18 16 15 16
46 46 47 48 49 50 52 56 53 49 47 46 44 42 42 42 35 34 31 36 33 30 7 12 18 19 21 21 16 18 20 24 25 21 22 22 23 22 21 20 19 17 21 19 18 17 14
45 47 47 48 49 49 51 54 51 49 47 45 42 41 42 42 33 30 31 38 34 27 -26 8 15 21 22 20 20 20 25 27 23 22 23 21 22 24 23 21 24 21 22 20 21 19 19
45 46 49 51 53 50 50 53 50 48 45 42 41 42 42 39 36 35 38 38 32 2 -27 8 13 17 19 21 23 26 28 29 27 25 24 24 25 23 22 23 22 22 22 22 24 22 16
43 46 52 55 53 50 52 51 48 46 43 43 43 43 42 39 34 38 39 32 4 -7 7 9 14 21 20 22 24 26 26 27 27 24 23 25 24 26 25 24 26 24 22 11 12 18 12
43 50 55 54 52 50 52 49 46 43 42 43 43 44 41 38 39 40 34 20 -8 4 7 18 21 22 19 24 24 26 25 25 31 29 26 22 17 20 24 22 17 24 20 10 5 6 8
42 54 53 52 51 52 49 46 44 43 43 44 43 39 40 40 40 36 27 8 -2 8 14 21 22 18 20 24 25 25 24 25 30 34 27 25 23 26 23 25 25 20 18 19 15 14 15
41 52 52 52 51 48 46 44 43 43 44 41 35 35 33 39 39 33 21 10 13 20 24 22 18 22 18 22 22 23 24 27 29 34 35 30 25 27 28 30 29 26 25 22 20 16 16
43 41 47 48 47 46 45 44 44 43 40 39 36 32 38 40 35 29 16 14 22 25 24 22 23 23 23 22 25 23 24 27 30 30 31 31 30 25 29 27 26 29 26 26 25 24 20
44 43 41 41 44 44 44 43 42 40 41 39 36 29 38 39 31 26 17 20 25 24 26 25 25 24 23 26 24 23 23 27 29 30 28 31 31 25 27 29 31 32 29 27 23 19 25
43 43 43 41 40 40 41 42 41 40 41 38 33 33 37 36 23 23 23 23 24 24 23 23 25 25 27 24 19 24 25 27 29 28 30 34 29 21 16 24 25 30 33 35 30 28 24
41 41 41 41 42 41 41 41 41 42 42 36 30 27 31 34 29 23 23 20 19 22 23 23 25 26 23 21 25 22 24 25 29 28 32 37 29 22 19 23 27 26 29 30 31 24 21
41 41 41 41 41 41 41 42 41 42 42 34 29 27 31 27 24 24 22 19 18 17 20 23 23 21 21 16 20 20 25 24 26 31 30 34 28 30 29 28 26 25 26 28 25 27 22
41 41 42 42 41 41 41 42 43 42 40 31 27 25 27 25 25 22 22 17 15 16 17 19 18 21 23 18 13 14 20 24 25 29 29 34 28 31 27 30 27 23 25 26 25 23 22
41 39 41 41 42 42 42 42 42 42 39 33 33 29 26 23 22 20 21 17 16 21 23 20 22 22 21 21 23 22 23 24 24 25 27 30 30 28 23 28 26 18 23 24 24 25 26
42 39 40 41 40 41 41 41 41 41 41 36 35 28 24 20 19 20 20 17 18 20 22 23 24 21 23 29 30 31 29 28 28 28 28 28 29 30 24 27 15 24 29 28 24 26 25
42 39 38 40 40 40 40 41 41 41 41 37 36 29 25 22 21 23 20 22 23 24 24 23 23 25 30 27 26 23 23 26 28 29 29 30 30 27 23 20 23 26 25 25 25 22 26
42 39 38 39 39 40 40 41 41 42 40 38 37 36 28 22 23 24 22 21 20 21 20 24 27 31 27 24 23 21 18 24 23 23 28 29 30 29 23 19 16 22 25 28 29 19 25
41 39 38 38 37 39 40 41 41 41 40 37 36 37 31 29 31 26 21 22 26 23 20 23 26 27 27 23 23 22 23 27 21 20 22 21 23 22 23 20 21 24 27 30 21 21 24
41 40 40 39 39 39 40 41 41 41 41 36 36 37 31 30 31 32 29 27 27 23 13 23 22 26 24 21 22 23 25 26 26 25 24 21 21 20 23 20 17 26 29 24 27 29 26
40 41 40 40 39 39 41 41 41 41 40 38 30 36 34 30 31 34 33 33 29 26 28 30 27 29 27 23 24 25 26 27 25 20 27 20 22 21 22 21 26 27 26 26 28 27 27

GFSGBSN_sfc_30mbdewp_126.txt.gz
Dewpoint
55 56 60 59 58 58 57 57 55 54 53 52 51 49 47 45 44 45 44 44 45 45 45 46 47 47 37 10 8 26 40 34 29 25 18 15 12 11 6 12 10 9 10 14 13 10 7
52 53 55 59 59 58 58 57 56 54 53 53 51 49 46 45 45 44 43 44 45 45 46 47 47 47 30 -1 23 33 34 27 25 22 20 19 16 16 12 10 8 8 9 9 8 7 6
50 51 52 54 56 58 58 57 56 55 54 53 51 48 46 45 45 43 43 44 44 45 46 47 47 42 30 16 31 33 34 24 25 22 18 21 21 18 15 11 15 13 9 5 5 5 4
48 49 49 50 52 53 57 57 56 55 54 53 51 48 47 46 44 43 43 44 45 47 48 48 47 40 17 31 34 30 26 20 23 23 21 22 21 20 18 19 14 12 10 4 6 6 6
49 48 48 49 49 50 52 55 56 55 54 53 51 49 48 46 44 43 44 45 47 48 48 47 41 37 18 32 24 22 23 16 18 21 22 20 21 18 18 13 7 12 4 2 4 8 9
48 47 47 48 49 48 49 52 56 55 54 53 51 49 47 45 43 43 44 45 48 47 44 41 38 30 23 17 20 21 21 19 19 20 17 16 14 13 11 9 -3 -0 2 3 4 7 8
48 50 50 49 48 48 48 50 52 55 54 53 50 48 47 44 43 43 43 42 29 27 34 17 14 20 18 21 22 18 19 20 20 17 13 17 11 7 8 9 9 8 6 5 6 10 10
47 48 49 48 48 48 48 48 50 54 55 52 50 48 46 43 42 44 40 23 17 24 8 19 16 20 22 23 16 17 21 17 19 16 20 18 11 13 14 14 12 10 8 6 8 11 11
47 48 48 49 49 49 49 48 49 52 54 52 49 47 44 44 44 41 30 26 29 30 13 14 19 18 22 21 16 13 19 21 20 19 19 16 14 18 17 16 14 13 11 10 10 13 12
47 46 45 45 46 47 47 47 48 50 54 51 48 45 44 44 38 35 30 34 33 33 12 11 18 18 21 20 16 17 21 24 25 21 20 20 20 20 18 16 16 12 15 15 15 12 6
47 46 45 44 45 46 47 48 48 50 53 50 47 44 44 36 36 32 35 36 36 32 10 12 16 21 20 18 19 21 26 26 24 23 24 20 20 21 20 18 19 15 21 18 16 16 14
47 46 44 44 45 46 47 48 48 49 52 50 46 43 43 36 36 36 40 38 37 18 7 7 12 15 17 21 22 24 26 29 28 25 25 23 24 23 20 21 21 20 20 19 18 17 11
46 46 44 44 45 46 46 47 48 48 52 48 45 42 38 37 33 41 41 38 21 12 12 8 10 15 15 20 23 24 25 26 25 21 20 23 22 23 24 21 23 22 20 11 9 14 7
46 44 43 45 49 51 52 50 48 51 48 45 42 42 39 40 40 42 38 28 10 8 0 12 16 17 15 22 23 24 25 25 30 28 24 20 18 21 23 22 19 22 19 10 7 3 8
45 43 43 51 54 54 53 52 50 48 45 42 41 40 39 41 43 42 32 21 16 5 14 19 19 16 20 22 25 25 23 24 29 30 27 25 21 23 23 23 24 25 20 17 16 17 16
45 42 42 51 53 54 52 50 50 45 44 41 38 37 37 42 43 39 28 22 12 13 18 17 16 17 18 19 25 25 24 28 30 31 32 27 25 25 27 27 25 25 27 23 22 15 12
45 42 41 50 52 52 51 48 46 44 41 40 38 33 40 43 42 33 25 15 17 22 22 21 21 21 22 24 25 23 24 27 28 28 29 30 29 24 26 27 27 32 26 24 22 20 16
44 42 41 44 47 46 46 45 43 41 41 39 36 28 40 41 31 29 21 15 23 23 25 24 23 24 26 26 25 25 24 28 29 28 27 30 31 26 24 25 31 29 27 23 21 20 21
44 43 42 41 44 46 45 44 41 41 40 39 32 32 41 40 27 27 21 22 22 21 21 22 23 27 28 28 24 29 25 27 28 28 28 33 29 19 16 25 22 23 30 33 31 29 25
41 44 43 43 41 40 43 43 43 43 42 39 34 28 33 36 34 21 20 22 21 22 22 24 26 28 26 25 28 24 24 24 28 28 31 36 27 25 20 23 24 22 24 27 28 28 26
42 40 42 42 43 41 41 41 43 44 42 39 34 29 29 27 29 26 24 20 19 18 22 24 25 22 23 19 23 24 24 24 27 32 32 34 29 28 26 28 26 27 26 28 27 28 25
42 41 40 41 41 42 41 42 43 44 42 35 32 31 32 28 27 25 22 19 17 19 20 20 19 21 22 13 13 17 22 25 27 30 31 33 28 31 28 30 28 24 26 28 26 23 22
40 42 41 42 41 41 40 41 44 44 40 35 33 32 28 27 26 21 20 19 17 19 21 18 20 21 20 19 20 20 21 23 27 27 28 30 29 27 26 29 28 23 24 26 25 26 25
39 41 40 42 42 42 42 43 43 43 41 39 36 30 25 23 21 18 19 18 19 20 20 24 23 17 25 28 30 32 29 27 28 28 29 27 26 27 25 28 19 25 30 28 25 25 24
39 39 41 41 41 41 41 41 41 42 41 38 36 31 24 22 20 20 18 18 22 23 23 23 24 26 30 26 27 24 26 27 28 29 29 29 28 26 24 22 24 26 26 28 27 23 25
41 40 41 40 40 41 41 42 42 42 40 37 37 37 26 22 20 20 21 20 20 21 23 27 29 32 29 19 24 16 15 17 22 25 29 28 29 29 24 20 18 23 26 29 28 22 24
41 40 40 40 39 40 41 41 42 41 40 37 36 39 32 28 29 23 19 20 22 19 18 23 26 27 28 21 22 18 19 24 19 16 21 21 23 24 23 22 21 23 27 30 23 23 24
41 40 40 37 38 40 41 42 41 41 40 37 36 38 33 30 32 30 29 26 25 19 16 26 23 26 25 21 20 23 22 24 23 22 21 19 21 22 24 22 19 26 30 26 27 27 24
41 40 39 39 40 40 41 42 41 41 39 38 33 36 36 31 31 35 35 34 28 27 26 28 26 27 25 23 23 25 25 27 22 22 25 21 22 22 24 24 27 28 29 29 28 26 24

GFSGBSN_sfc_30mbdewp_129.txt.gz
Dewpoint
52 53 55 56 60 59 58 58 57 56 55 54 53 52 50 48 46 45 46 45 44 45 45 47 47 48 41 20 6 26 34 37 29 22 15 12 9 7 2 4 4 4 3 6 9 6 4
51 51 53 54 54 59 59 58 58 56 55 54 53 52 51 48 46 45 45 44 44 45 46 47 47 48 35 11 20 27 28 24 20 18 17 16 13 13 8 6 4 4 7 5 4 4 3
49 49 50 51 52 53 57 58 58 57 55 54 53 52 50 48 46 45 45 43 45 45 46 47 48 41 28 15 26 28 25 18 18 18 14 18 17 14 14 8 11 11 7 5 2 3 2
48 49 50 49 50 51 51 53 57 57 56 55 54 52 50 48 47 45 44 43 45 46 48 49 48 37 17 27 29 27 21 17 18 18 17 18 19 17 16 15 13 9 8 6 5 5 5
47 50 50 49 49 50 49 50 51 53 56 55 54 52 50 48 47 45 43 44 46 49 48 48 43 34 15 29 22 18 18 15 14 18 20 17 18 17 16 14 5 4 2 1 -1 1 4
45 47 49 50 48 49 49 49 50 51 54 56 54 52 49 48 46 43 43 44 48 48 45 39 32 27 22 16 18 17 17 17 16 19 17 17 14 13 11 7 1 -1 -1 -2 -3 -1 2
45 45 47 49 50 49 49 49 49 50 51 55 54 52 50 48 45 43 42 43 36 31 32 21 17 14 17 18 19 15 16 18 18 17 13 14 11 4 6 10 8 6 3 1 2 3 6
45 46 46 46 48 49 48 49 49 49 49 51 55 52 50 47 44 43 43 34 23 27 17 23 16 18 20 17 13 14 16 15 18 13 16 15 12 11 13 13 12 10 8 7 7 6 8
46 45 45 46 46 47 47 48 49 50 49 49 52 52 49 46 45 42 36 29 31 31 19 19 11 9 17 17 9 13 15 17 16 15 15 13 12 17 16 14 11 10 9 10 9 9 9
45 45 47 48 47 46 46 46 47 47 48 48 50 52 47 45 37 33 30 33 34 38 28 25 14 13 19 16 12 12 16 20 22 18 16 15 18 17 15 12 14 12 15 14 12 10 4
44 45 46 47 48 47 47 46 45 46 48 48 51 50 45 39 33 31 31 34 39 33 22 27 17 17 17 11 16 15 23 24 20 20 21 19 17 17 16 15 17 15 19 16 15 13 12
42 45 45 46 47 47 46 45 45 46 47 48 51 48 43 38 36 35 37 39 36 27 20 17 16 16 15 14 17 20 23 26 26 23 21 20 21 19 16 18 20 19 20 19 18 15 9
42 44 45 46 47 46 45 46 46 46 47 48 51 47 41 37 34 38 38 35 26 22 21 12 11 13 13 14 16 20 21 24 20 19 18 19 19 19 20 19 21 22 21 16 9 10 8
43 44 45 46 46 45 46 46 47 50 47 48 50 44 39 40 39 42 35 32 24 24 18 10 10 12 11 16 18 19 20 19 24 22 20 15 17 18 20 19 19 20 20 15 6 2 5
42 43 45 46 45 46 46 46 50 52 47 48 49 41 38 43 43 41 37 28 27 24 23 12 13 12 15 19 21 20 19 17 23 26 22 19 15 19 19 20 22 25 20 21 15 15 14
43 44 45 44 46 48 51 52 53 52 48 48 40 39 39 43 44 40 34 32 30 20 14 15 13 13 16 18 23 21 19 21 26 28 29 26 24 22 22 25 24 23 26 22 19 15 13
42 44 43 44 47 49 51 53 51 49 48 42 39 35 41 45 43 37 29 32 27 19 18 16 16 16 19 17 24 19 19 24 27 28 28 28 27 23 24 23 23 26 25 26 21 19 17
42 44 43 45 47 51 52 51 49 45 43 41 37 29 42 42 32 32 31 30 20 20 26 26 21 20 24 24 24 20 21 26 26 26 26 28 32 26 23 23 26 26 25 29 21 18 23
42 44 44 44 47 48 46 45 44 44 42 39 32 33 41 40 28 29 29 27 20 20 23 23 25 29 31 31 28 32 25 28 28 27 27 30 30 23 22 27 22 21 24 26 28 34 26
41 43 44 43 45 46 45 44 45 44 41 39 34 27 32 34 36 29 26 22 19 21 20 22 24 30 29 30 30 30 27 26 27 28 31 34 26 26 21 25 22 22 23 24 25 27 29
41 41 44 43 42 43 43 43 43 43 42 40 36 29 30 27 31 28 21 22 19 18 21 24 26 25 25 25 23 25 23 25 26 31 30 33 28 28 24 25 25 27 26 28 29 29 27
41 40 42 43 42 42 43 43 43 43 43 38 33 28 27 28 30 27 25 24 20 19 21 20 20 21 18 18 20 21 27 25 27 29 32 33 30 30 28 29 25 25 27 29 26 25 24
41 41 40 42 43 43 43 43 44 43 43 38 39 33 31 33 31 29 30 25 20 21 22 21 19 19 15 14 18 22 24 28 28 27 28 30 30 27 26 29 27 23 26 26 25 25 24
42 41 41 40 41 43 42 43 43 43 41 38 36 37 32 29 29 29 24 23 20 21 19 18 21 18 25 24 28 28 25 25 27 27 27 25 25 25 27 26 20 26 27 26 25 25 25
41 40 42 41 40 41 42 42 43 42 42 37 36 34 29 29 27 23 20 19 19 20 20 21 22 25 25 24 26 25 26 27 26 27 28 27 25 23 22 23 24 26 27 26 26 24 26
40 40 41 42 42 42 42 42 42 42 42 39 37 39 32 26 25 23 20 19 20 21 23 27 29 30 27 17 22 13 13 13 20 24 27 26 27 26 23 19 18 25 25 26 25 23 24
41 40 40 40 41 41 42 42 41 41 40 40 36 43 33 25 22 20 19 21 20 21 20 25 26 25 26 15 19 12 13 16 17 17 23 23 22 22 22 20 23 24 27 29 23 25 25
40 41 41 39 39 40 41 42 41 41 39 38 37 41 33 29 29 28 26 24 21 19 20 23 22 23 19 17 13 16 18 20 21 18 19 18 18 22 22 20 21 26 29 26 28 26 24
41 41 40 39 40 41 41 42 41 41 39 38 33 36 34 29 33 34 34 33 30 26 22 26 21 17 18 14 18 19 22 25 18 21 22 20 21 25 24 25 28 29 31 29 28 25 24